Date StartTime U_cm/s V_cm/s W_cm/s Ustd_cm/s Vstd_cm/s Wstd_cm/s Uvar_(cm/s)^2 Vvar_(cm/s)^2 Wvar_(cm/s)^2 KE_(m/s)^2 TurbulentKE_(m/s)^2 HorizWindSpeed_cm/s FrictionSpeec_cm/s DragCoef SpeedOfSound_m/s SonicTemperature_C Pressure_mb 
12/01/2014  00:00:00      102.235       35.514        4.428       26.798       28.323       23.883      718.159      802.197      570.415        0.691        0.105      108.228       16.837        0.024      334.791        4.994      862.358
12/01/2014  00:01:00      103.175       58.520        2.733       28.259       26.541       25.930      798.545      704.421      672.355        0.813        0.109      118.616       12.233        0.011      334.763        4.948      862.345
12/01/2014  00:02:00       82.968       63.394       12.604       30.363       23.666       21.078      921.916      560.072      444.278        0.649        0.096      104.415       11.057        0.011      334.731        4.897      862.347
12/01/2014  00:03:00       66.725       42.575        5.576       20.058       16.354       17.249      402.332      267.463      297.515        0.363        0.048       79.151        6.162        0.006      334.730        4.895      862.363
12/01/2014  00:04:00       37.081       40.745       -3.961       14.975       10.735       11.571      224.260      115.240      133.886        0.176        0.024       55.092        5.308        0.009      334.713        4.865      862.381
12/01/2014  00:05:00       14.435       30.412       -1.820       20.629       14.172       10.540      425.545      200.848      111.092        0.094        0.037       33.664        6.610        0.039      334.728        4.896      862.389
12/01/2014  00:06:00       20.965       45.685       -5.706       12.799       28.220       12.224      163.824      796.388      149.432        0.183        0.055       50.265       16.180        0.104      334.734        4.907      862.384
12/01/2014  00:07:00       26.646       33.882       -1.250       15.440       15.680       10.144      238.384      245.862      102.893        0.122        0.029       43.104        6.064        0.020      334.732        4.903      862.385
12/01/2014  00:08:00       55.618       34.887       -2.412       21.614       13.397       11.203      467.146      179.489      125.505        0.254        0.039       65.654        9.417        0.021      334.748        4.928      862.389
12/01/2014  00:09:00       74.741       39.687        5.069       14.427       17.677       16.360      208.146      312.484      267.662        0.399        0.039       84.625        8.303        0.010      334.791        4.999      862.383
12/01/2014  00:10:00       75.432       60.865       20.560       21.688       15.437       22.028      470.371      238.315      485.235        0.551        0.060       96.925       13.504        0.019      334.823        5.051      862.361
12/01/2014  00:11:00       94.660       65.409       22.575       19.398       18.835       24.904      376.297      354.765      620.228        0.755        0.068      115.060       11.450        0.010      334.754        4.935      862.350
12/01/2014  00:12:00      102.491       70.962        6.677       29.054       20.144       15.469      844.142      405.795      239.276        0.854        0.074      124.660       10.171        0.007      334.729        4.894      862.346
12/01/2014  00:13:00       99.941       40.785       13.252       40.717       27.431       20.160     1657.852      752.460      406.424        0.732        0.141      107.943       17.634        0.027      334.737        4.907      862.342
12/01/2014  00:14:00       36.223       26.291       -0.144       25.379       20.038       16.263      644.103      401.537      264.499        0.166        0.066       44.759       15.159        0.115      334.705        4.857      862.335
12/01/2014  00:15:00       31.103       40.672        3.393       22.794       20.981       16.505      519.559      440.198      272.424        0.193        0.062       51.202       12.613        0.061      334.689        4.831      862.346
12/01/2014  00:16:00       21.964       56.350       -9.456       16.336       19.082       13.829      266.878      364.109      191.240        0.228        0.041       60.480       11.456        0.036      334.673        4.802      862.358
12/01/2014  00:17:00       22.678       29.866        2.427       14.990       19.392       14.076      224.694      376.058      198.130        0.111        0.040       37.500       11.733        0.098      334.681        4.817      862.348
12/01/2014  00:18:00       41.695       51.169        5.163       23.901       25.778       20.460      571.270      664.482      418.627        0.302        0.083       66.005       15.353        0.054      334.667        4.792      862.334
12/01/2014  00:19:00       64.374       55.678       -0.112       42.761       27.997       29.132     1828.533      783.845      848.688        0.535        0.173       85.112       19.142        0.051      334.652        4.765      862.320
12/01/2014  00:20:00       50.768       42.074       29.695       42.813       28.202       26.929     1832.951      795.342      725.182        0.429        0.168       65.937       19.732        0.090      334.691        4.830      862.318
12/01/2014  00:21:00       91.449       47.901        3.280       23.395       18.328       16.743      547.305      335.929      280.343        0.592        0.058      103.235       12.705        0.015      334.659        4.778      862.329
12/01/2014  00:22:00       64.154       32.245       -4.655       26.434       15.024       12.589      698.774      225.706      158.487        0.313        0.054       71.802        8.618        0.014      334.671        4.799      862.339
12/01/2014  00:23:00       53.515       37.970       14.221       21.119       23.194       18.062      446.025      537.955      326.240        0.291        0.066       65.617        8.816        0.018      334.664        4.784      862.335
12/01/2014  00:24:00       93.486       49.471        6.430       22.584       20.086       13.915      510.046      403.463      193.637        0.617        0.055      105.769        9.808        0.009      334.635        4.738      862.319
12/01/2014  00:25:00      104.630       56.020        8.100       27.726       22.652       22.005      768.709      513.125      484.232        0.796        0.088      118.683       13.793        0.014      334.649        4.761      862.304
12/01/2014  00:26:00      127.400       71.345       10.110       21.497       18.014       24.151      462.139      324.520      583.290        1.140        0.068      146.016       15.137        0.011      334.640        4.746      862.304
12/01/2014  00:27:00       87.914       61.836       21.194       26.223       17.136       23.711      687.663      293.633      562.227        0.677        0.077      107.483       13.475        0.016      334.663        4.784      862.303
12/01/2014  00:28:00       83.916       55.263       28.671       29.326       18.785       22.719      859.998      352.892      516.148        0.632        0.086      100.478       15.204        0.023      334.642        4.749      862.311
12/01/2014  00:29:00       77.718       37.743        7.514       20.459       19.091       23.152      418.553      364.484      536.006        0.442        0.066       86.398       10.594        0.015      334.615        4.704      862.319
12/01/2014  00:30:00       87.895       57.246       17.558       25.798       17.978       21.611      665.558      323.218      467.055        0.638        0.073      104.893       13.473        0.016      334.640        4.744      862.324
12/01/2014  00:31:00       88.394       66.107       16.234       23.484       26.411       23.442      551.514      697.538      549.531        0.712        0.090      110.379       19.116        0.030      334.632        4.731      862.314
12/01/2014  00:32:00       64.151       50.846        8.064       28.842       20.092       17.711      831.889      403.673      313.689        0.416        0.077       81.858       12.631        0.024      334.615        4.704      862.300
12/01/2014  00:33:00       72.747       28.977        2.783       29.736       27.308       21.173      884.235      745.740      448.297        0.411        0.104       78.306       15.257        0.038      334.618        4.710      862.288
12/01/2014  00:34:00       33.380       27.591       -3.619       20.963       21.107       13.615      439.432      445.516      185.371        0.148        0.054       43.307       11.611        0.072      334.639        4.744      862.277
12/01/2014  00:35:00       34.460       35.116       -5.376       21.070       21.585       14.032      443.937      465.900      196.890        0.178        0.055       49.200       12.145        0.061      334.597        4.672      862.266
12/01/2014  00:36:00       33.736       77.760       -8.150       15.048       26.119       14.578      226.444      682.221      212.511        0.419        0.056       84.763        8.306        0.010      334.568        4.627      862.256
12/01/2014  00:37:00       34.368       69.070       -4.463       24.828       35.012       24.193      616.409     1225.849      585.319        0.420        0.121       77.148       23.192        0.090      334.564        4.622      862.254
12/01/2014  00:38:00       47.456       49.802        2.812       26.291       34.979       16.133      691.208     1223.559      260.275        0.346        0.109       68.792       15.413        0.050      334.573        4.635      862.270
12/01/2014  00:39:00       42.224       43.124       -6.392       22.891       26.918       17.123      524.004      724.583      293.192        0.261        0.077       60.353       16.811        0.078      334.570        4.631      862.283
12/01/2014  00:40:00       54.291       21.364        8.089       23.852       16.519       17.378      568.897      272.887      302.009        0.231        0.057       58.344       12.237        0.044      334.580        4.647      862.293
12/01/2014  00:41:00       59.661       17.821       -1.809       25.243       22.658       15.433      637.203      513.389      238.163        0.263        0.069       62.266       14.101        0.051      334.555        4.607      862.296
12/01/2014  00:42:00       66.205       30.965        2.674       15.971       15.775       10.943      255.069      248.842      119.747        0.299        0.031       73.089        8.691        0.014      334.572        4.634      862.286
12/01/2014  00:43:00       71.278       32.945        7.369       17.741       18.433       17.249      314.739      339.772      297.518        0.359        0.048       78.523       11.961        0.023      334.554        4.604      862.285
12/01/2014  00:44:00       62.201       27.779        3.377       13.606       11.889       10.897      185.128      141.343      118.737        0.255        0.022       68.122        6.148        0.008      334.549        4.595      862.280
12/01/2014  00:45:00       26.622       19.082        3.921       24.507       17.017       15.379      600.613      289.562      236.503        0.111        0.056       32.754       14.468        0.195      334.540        4.580      862.276
12/01/2014  00:46:00        9.110       42.975       -5.804       14.703       24.853        9.080      216.188      617.664       82.452        0.144        0.046       43.930       10.301        0.055      334.540        4.579      862.266
12/01/2014  00:47:00       12.914       71.456      -10.010       14.077       10.961        6.546      198.152      120.147       42.857        0.287        0.018       72.614        4.644        0.004      334.537        4.574      862.244
12/01/2014  00:48:00       17.489       58.556       -7.065       11.596       15.015       12.857      134.457      225.463      165.292        0.215        0.026       61.112       11.671        0.036      334.533        4.569      862.231
12/01/2014  00:49:00       -0.306       78.319      -17.600        9.332       12.089        7.504       87.081      146.153       56.315        0.337        0.014       78.320        5.133        0.004      334.542        4.583      862.245
12/01/2014  00:50:00        7.705       69.650       -6.367       11.265       11.938       12.680      126.896      142.512      160.774        0.269        0.022       70.075        8.944        0.016      334.577        4.642      862.266
12/01/2014  00:51:00      -12.612       21.319        8.051       20.827       13.456       17.209      433.763      181.068      296.159        0.079        0.046       24.770       14.539        0.345      334.639        4.745      862.293
12/01/2014  00:52:00      -48.901       10.930       -3.832       13.463       15.792       10.565      181.259      249.378      111.619        0.153        0.027       50.107        4.927        0.010      334.716        4.872      862.321
12/01/2014  00:53:00      -30.991       -1.667       -0.395       11.555       12.119       10.384      133.526      146.862      107.822        0.068        0.019       31.036        6.553        0.045      334.646        4.757      862.337
12/01/2014  00:54:00      -39.164       14.795       -0.919       16.232       15.224       11.938      263.472      231.783      142.521        0.120        0.032       41.865        5.814        0.019      334.734        4.902      862.335
12/01/2014  00:55:00      -13.138       35.280        6.266       22.312       23.460       13.889      497.804      550.362      192.897        0.135        0.062       37.646       13.275        0.124      334.689        4.826      862.322
12/01/2014  00:56:00        2.855       66.124       -4.261       16.029       25.775       15.646      256.918      664.367      244.813        0.278        0.058       66.186       16.099        0.059      334.695        4.839      862.300
12/01/2014  00:57:00       15.577      114.903      -20.000       10.664       14.918       11.773      113.713      222.539      138.600        0.716        0.024      115.954        6.968        0.004      334.634        4.735      862.261
12/01/2014  00:58:00        8.847      113.177      -20.418       13.608       14.158        8.237      185.178      200.442       67.849        0.688        0.023      113.523        5.217        0.002      334.634        4.735      862.231
12/01/2014  00:59:00       -1.091       91.335      -16.032       15.342       16.737        9.282      235.376      280.121       86.152        0.460        0.030       91.342        6.669        0.005      334.622        4.718      862.226
12/01/2014  01:00:00        2.783       52.611       -2.744       14.025       15.842       13.283      196.704      250.967      176.427        0.170        0.031       52.685        9.622        0.033      334.647        4.758      862.238
12/01/2014  01:01:00       17.584       48.950       -2.942        9.723       13.822       10.774       94.535      191.055      116.079        0.156        0.020       52.013        9.238        0.032      334.614        4.704      862.264
12/01/2014  01:02:00       20.116       41.987       -0.981        9.171       22.149       11.963       84.115      490.579      143.123        0.144        0.036       46.557       13.629        0.086      334.621        4.715      862.285
12/01/2014  01:03:00       41.455       28.238       -1.778       11.682        9.236        6.601      136.463       85.311       43.572        0.139        0.013       50.158        4.185        0.007      334.659        4.776      862.290
12/01/2014  01:04:00       40.838       23.953        2.278       17.287       16.163       14.048      298.839      261.230      197.359        0.150        0.038       47.344        5.260        0.012      334.640        4.745      862.298
12/01/2014  01:05:00       51.719       27.299        3.407       11.358       13.317       11.079      129.014      177.339      122.752        0.193        0.021       58.482        8.362        0.020      334.655        4.769      862.321
12/01/2014  01:06:00       38.351       21.782       -3.060        7.020        6.671        7.963       49.276       44.508       63.404        0.106        0.008       44.105        3.361        0.006      334.643        4.751      862.346
12/01/2014  01:07:00       38.104       25.220        0.503        7.508        8.387        8.713       56.367       70.347       75.925        0.115        0.010       45.694        4.734        0.011      334.655        4.770      862.369
12/01/2014  01:08:00       32.140       34.243        3.813       13.946       14.308       12.402      194.497      204.707      153.801        0.139        0.028       46.963        9.419        0.040      334.655        4.770      862.365
12/01/2014  01:09:00       44.411       37.138        1.321       13.913       13.288       11.564      193.567      176.558      133.732        0.193        0.025       57.893        9.393        0.026      334.660        4.780      862.363
12/01/2014  01:10:00       21.504       31.334       -2.038       16.104       19.169       13.434      259.346      367.469      180.483        0.113        0.040       38.003        7.249        0.036      334.691        4.833      862.372
12/01/2014  01:11:00       19.768       21.382        2.065       17.216       17.689       12.082      296.398      312.894      145.984        0.080        0.038       29.119        8.213        0.080      334.714        4.868      862.386
12/01/2014  01:12:00       28.192       20.422        0.310       12.392       15.727       10.347      153.553      247.331      107.058        0.086        0.025       34.812        6.488        0.035      334.719        4.876      862.398
12/01/2014  01:13:00       25.236       22.616        3.243       15.013       14.727       11.604      225.379      216.882      134.649        0.087        0.029       33.887        8.991        0.070      334.729        4.894      862.394
12/01/2014  01:14:00       27.096       33.920        0.700       11.845       16.859        9.477      140.305      284.232       89.805        0.120        0.026       43.414        8.274        0.036      334.737        4.907      862.390
12/01/2014  01:15:00       40.343       31.987        8.329       17.783       16.477       13.560      316.222      271.505      183.867        0.175        0.039       51.485       12.038        0.055      334.728        4.893      862.385
12/01/2014  01:16:00       14.954       34.509       -0.944       11.742       18.750        9.859      137.874      351.558       97.202        0.100        0.029       37.610        9.665        0.066      334.697        4.843      862.396
12/01/2014  01:17:00       22.368       62.594       -5.903       14.110       23.156       12.710      199.095      536.202      161.551        0.267        0.045       66.470       14.956        0.051      334.682        4.819      862.412
12/01/2014  01:18:00       33.035       42.364       -3.480       19.639       17.952       11.515      385.703      322.269      132.599        0.187        0.042       53.722        8.375        0.024      334.692        4.833      862.422
12/01/2014  01:19:00       35.795       38.378       -4.975       16.364       18.222        8.160      267.785      332.051       66.580        0.172        0.033       52.480        5.897        0.013      334.664        4.788      862.426
12/01/2014  01:20:00       14.527       61.515      -12.602       15.189       17.634        9.638      230.691      310.960       92.885        0.239        0.032       63.207        6.827        0.012      334.628        4.728      862.436
12/01/2014  01:21:00       11.103       37.479       -3.000       15.722       23.532       13.010      247.179      553.745      169.248        0.125        0.049       39.089       13.223        0.114      334.662        4.782      862.453
12/01/2014  01:22:00       10.050       45.369       -9.178       10.881       11.959       10.636      118.395      143.008      113.135        0.131        0.019       46.468        7.851        0.029      334.667        4.792      862.477
12/01/2014  01:23:00       10.414       31.670      -10.315       13.924       10.156        6.546      193.871      103.150       42.850        0.078        0.017       33.338        6.108        0.034      334.658        4.775      862.505
12/01/2014  01:24:00       25.083       19.879        1.583       12.922       13.698       15.069      166.980      187.649      227.084        0.080        0.029       32.005        8.532        0.071      334.668        4.793      862.537
12/01/2014  01:25:00       47.795       28.634       -3.328       13.535        9.725        8.596      183.187       94.573       73.885        0.173        0.018       55.716        4.448        0.006      334.676        4.806      862.554
12/01/2014  01:26:00       67.024       45.144        7.255       17.949       14.319       17.714      322.162      205.043      313.788        0.371        0.042       80.810       10.702        0.018      334.707        4.858      862.574
12/01/2014  01:27:00       11.649       37.079       32.413       25.889       21.085       26.162      670.258      444.586      684.438        0.218        0.090       38.866       21.406        0.303      334.771        4.963      862.592
12/01/2014  01:28:00       23.885       49.945       34.059       24.333       17.381       22.442      592.087      302.083      503.636        0.281        0.070       55.362       18.616        0.113      334.749        4.927      862.603
12/01/2014  01:29:00       30.738       40.670       18.136       15.067       14.183       20.286      227.018      201.157      411.523        0.188        0.042       50.979       12.622        0.061      334.731        4.897      862.607
12/01/2014  01:30:00       35.354       33.360       -1.261       10.864        9.114       15.677      118.017       83.073      245.783        0.141        0.022       48.609        6.807        0.020      334.702        4.848      862.606
12/01/2014  01:31:00       31.635       32.571        1.334       15.109       15.952        8.052      228.278      254.472       64.841        0.131        0.027       45.405        6.755        0.022      334.694        4.836      862.603
12/01/2014  01:32:00       28.232       35.056        2.598       17.765       10.689        9.737      315.602      114.260       94.802        0.128        0.026       45.010        6.315        0.020      334.712        4.868      862.604
12/01/2014  01:33:00       52.310       47.423       13.513       19.260       13.790       14.791      370.933      190.152      218.762        0.297        0.039       70.607       12.008        0.029      334.732        4.899      862.616
12/01/2014  01:34:00       71.632       50.340       12.241       20.015       17.180       16.627      400.583      295.142      276.459        0.439        0.049       87.551       10.316        0.014      334.730        4.895      862.624
12/01/2014  01:35:00       87.166       58.443        3.596       18.298       11.792       14.091      334.799      139.057      198.567        0.585        0.034      104.946       10.731        0.010      334.654        4.771      862.615
12/01/2014  01:36:00       86.538       55.228        7.222       23.949       13.181       18.599      573.557      173.745      345.940        0.584        0.055      102.659       10.778        0.011      334.646        4.757      862.618
12/01/2014  01:37:00       88.312       46.108        4.350       21.939       17.682       21.859      481.321      312.649      477.829        0.561        0.064       99.624       13.454        0.018      334.640        4.746      862.616
12/01/2014  01:38:00       84.875       34.717        0.237       27.847       28.969       19.466      775.452      839.215      378.910        0.520        0.100       91.701       12.361        0.018      334.649        4.761      862.603
12/01/2014  01:39:00       83.280       40.895        5.644       30.222       24.608       24.051      913.388      605.553      578.460        0.537        0.105       92.779       14.697        0.025      334.662        4.784      862.599
12/01/2014  01:40:00      108.060       55.211        4.803       14.288       13.199       14.116      204.134      174.205      199.255        0.766        0.029      121.348        8.418        0.005      334.613        4.700      862.599
12/01/2014  01:41:00       80.382       37.564        0.834       30.540       20.501       20.375      932.718      420.288      415.143        0.482        0.088       88.726        9.168        0.011      334.643        4.752      862.610
12/01/2014  01:42:00      100.202       57.998        5.806       17.730       17.243       18.940      314.354      297.330      358.708        0.720        0.049      115.777       10.628        0.008      334.603        4.685      862.613
12/01/2014  01:43:00       85.994       52.818       19.897       24.476       20.652       20.846      599.092      426.502      434.572        0.602        0.073      100.919       12.541        0.015      334.648        4.760      862.614
12/01/2014  01:44:00       66.969       54.218       27.057       36.581       22.136       26.561     1338.154      490.025      705.486        0.534        0.127       86.165       19.764        0.053      334.694        4.836      862.622
12/01/2014  01:45:00      105.407       55.526        9.661       18.114       15.369       16.876      328.105      236.213      284.787        0.757        0.042      119.138        8.723        0.005      334.603        4.685      862.636
12/01/2014  01:46:00       73.143       58.876        6.009       18.522       13.135       11.591      343.061      172.531      134.344        0.475        0.032       93.895        8.940        0.009      334.594        4.669      862.654
12/01/2014  01:47:00       60.604       46.871        2.430       24.910       13.063       16.965      620.488      170.642      287.796        0.348        0.054       76.615       13.921        0.033      334.603        4.685      862.672
12/01/2014  01:48:00       53.458       36.315       -0.501       22.223       15.931       13.264      493.840      253.799      175.940        0.255        0.046       64.626       10.612        0.027      334.620        4.711      862.680
12/01/2014  01:49:00       46.606       35.908        6.617       22.751       16.723       13.443      517.618      279.656      180.707        0.224        0.049       58.834        8.297        0.020      334.627        4.726      862.668
12/01/2014  01:50:00       34.827       21.956        9.207       23.539       15.499       15.299      554.074      240.210      234.053        0.140        0.051       41.171        8.884        0.047      334.618        4.711      862.644
12/01/2014  01:51:00       29.984       37.853        2.595       26.744       30.149       18.646      715.263      908.943      347.669        0.215        0.099       48.290       14.249        0.087      334.607        4.690      862.627
12/01/2014  01:52:00       83.478       51.411       -3.697       25.885       22.631       22.636      670.051      512.184      512.379        0.566        0.085       98.039       16.718        0.029      334.573        4.633      862.610
12/01/2014  01:53:00      101.541       55.705       -9.349       25.605       22.187       22.776      655.633      492.260      518.761        0.758        0.083      115.817       12.440        0.012      334.573        4.633      862.597
12/01/2014  01:54:00       56.023       46.900       -3.525       40.796       26.549       16.998     1664.287      704.863      288.925        0.400        0.133       73.063       19.649        0.072      334.584        4.652      862.585
12/01/2014  01:55:00       25.310       66.222       -8.933       18.449       23.137       13.566      340.375      535.309      184.033        0.308        0.053       70.894       11.220        0.025      334.546        4.591      862.592
12/01/2014  01:56:00       13.209       38.072        1.747       14.523       24.370       17.675      210.928      593.920      312.406        0.137        0.056       40.298       16.375        0.165      334.561        4.613      862.609
12/01/2014  01:57:00       27.092       24.506        4.609       18.084       11.529       13.001      327.020      132.910      169.027        0.099        0.031       36.531        6.538        0.032      334.566        4.622      862.623
12/01/2014  01:58:00        8.716       24.951       -4.021       21.473       12.702       14.171      461.101      161.345      200.804        0.077        0.041       26.430        6.571        0.062      334.585        4.652      862.631
12/01/2014  01:59:00       10.151       31.900       -0.552        9.593       17.100       10.539       92.034      292.396      111.063        0.081        0.025       33.476       10.913        0.106      334.596        4.673      862.639
12/01/2014  02:00:00        9.162       49.079       -8.308        9.402       10.951        6.795       88.392      119.930       46.178        0.141        0.013       49.927        4.517        0.008      334.560        4.614      862.633
12/01/2014  02:01:00       34.566       33.003        3.941       15.418       11.894       10.294      237.711      141.455      105.972        0.139        0.024       47.791        6.301        0.017      334.614        4.702      862.626
12/01/2014  02:02:00       40.970       35.640        2.219       23.035       18.187       14.564      530.613      330.752      212.122        0.201        0.054       54.302       10.686        0.039      334.630        4.729      862.614
12/01/2014  02:03:00       38.886       46.298       -4.406       26.820       22.076       20.789      719.339      487.334      432.199        0.266        0.082       60.462       17.530        0.084      334.615        4.704      862.601
12/01/2014  02:04:00       26.704       58.779       -5.822       26.132       27.453       19.160      682.867      753.690      367.119        0.300        0.090       64.561       15.453        0.057      334.594        4.669      862.604
12/01/2014  02:05:00       21.264       54.923       -6.469       21.837       23.269       17.737      476.860      541.443      314.594        0.242        0.067       58.896       14.354        0.059      334.572        4.632      862.627
12/01/2014  02:06:00       22.368       41.004        1.780       19.358       19.619       16.225      374.722      384.924      263.262        0.160        0.051       46.708       12.526        0.072      334.579        4.643      862.671
12/01/2014  02:07:00       27.173       10.996        3.618       14.834       15.746       13.144      220.040      247.934      172.752        0.076        0.032       29.314       10.991        0.141      334.623        4.717      862.727
12/01/2014  02:08:00       27.477        7.563        4.143       13.614        8.945        7.377      185.330       80.018       54.424        0.057        0.016       28.499        7.685        0.073      334.636        4.740      862.782
12/01/2014  02:09:00        7.967       23.633       13.008        8.302        9.906        9.580       68.926       98.130       91.768        0.052        0.013       24.940        6.373        0.065      334.647        4.757      862.818
12/01/2014  02:10:00       25.981       29.156       14.717       14.661       12.751       10.471      214.939      162.589      109.640        0.111        0.024       39.052        7.794        0.040      334.669        4.797      862.823
12/01/2014  02:11:00       26.946       25.469        0.859       13.316       12.678        8.312      177.309      160.724       69.093        0.089        0.020       37.078        6.405        0.030      334.666        4.790      862.814
12/01/2014  02:12:00       20.370       32.783       -3.546       18.126       15.716       11.256      328.567      246.995      126.687        0.110        0.035       38.596        9.977        0.067      334.662        4.783      862.825
12/01/2014  02:13:00       17.032       41.143       -4.996       11.076       18.149        9.902      122.688      329.374       98.047        0.128        0.028       44.529        9.425        0.045      334.661        4.781      862.835
12/01/2014  02:14:00       25.891       32.021       -3.772       14.323       12.071       10.561      205.140      145.717      111.535        0.109        0.023       41.179        6.458        0.025      334.705        4.853      862.858
12/01/2014  02:15:00        9.946        5.995        3.067       12.818        9.471        7.874      164.301       89.701       62.004        0.023        0.016       11.613        6.197        0.285      334.774        4.968      862.873
12/01/2014  02:16:00        5.904       11.675       -0.709       12.436        8.862        8.852      154.656       78.527       78.363        0.024        0.016       13.083        8.312        0.404      334.759        4.944      862.870
12/01/2014  02:17:00        8.575       14.101        5.910       12.400        8.759        7.287      153.764       76.723       53.105        0.030        0.014       16.503        4.492        0.074      334.749        4.929      862.864
12/01/2014  02:18:00        3.897       14.165       -2.390        8.672       11.695        9.741       75.211      136.776       94.885        0.026        0.015       14.691        7.062        0.231      334.716        4.874      862.859
12/01/2014  02:19:00       -1.474       29.152       -8.866        6.865        8.675        4.039       47.132       75.264       16.316        0.053        0.007       29.190        3.534        0.015      334.696        4.840      862.857
12/01/2014  02:20:00       -2.598       40.095       -6.858        7.720        9.351        4.088       59.605       87.432       16.716        0.091        0.008       40.179        3.142        0.006      334.723        4.885      862.838
12/01/2014  02:21:00        3.588       51.096       -7.019       14.279        8.955        9.679      203.895       80.195       93.692        0.153        0.019       51.222        4.658        0.008      334.745        4.919      862.801
12/01/2014  02:22:00       22.974       40.225       -4.560       12.602       20.643        7.221      158.820      426.154       52.139        0.140        0.032       46.324        4.672        0.010      334.722        4.883      862.773
12/01/2014  02:23:00       66.140       52.835        8.346       15.999       22.491       19.363      255.958      505.864      374.944        0.419        0.057       84.652       12.612        0.022      334.723        4.883      862.768
12/01/2014  02:24:00       48.858       62.464       38.246       30.664       25.604       25.781      940.302      655.548      664.677        0.501        0.113       79.302       18.411        0.054      334.704        4.852      862.772
12/01/2014  02:25:00       41.214       55.012       36.927       39.967       31.601       28.484     1597.379      998.655      811.312        0.475        0.170       68.738       23.730        0.119      334.695        4.836      862.758
12/01/2014  02:26:00       73.446       49.219        2.625       36.962       27.963       22.555     1366.198      781.922      508.737        0.524        0.133       88.413       15.180        0.029      334.599        4.677      862.729
12/01/2014  02:27:00       28.216       43.149       -3.421       33.208       32.187       13.776     1102.755     1036.026      189.777        0.250        0.116       51.556       12.059        0.055      334.568        4.624      862.734
12/01/2014  02:28:00       36.672       30.046        2.804       18.942       13.539       12.387      358.811      183.311      153.440        0.148        0.035       47.408        7.997        0.028      334.556        4.604      862.767
12/01/2014  02:29:00       58.487       44.594       11.413       21.575       15.706       13.465      465.473      246.669      181.319        0.322        0.045       73.548        9.935        0.018      334.557        4.608      862.786
12/01/2014  02:30:00       87.494       47.125       12.732       18.079       13.026       15.492      326.855      169.665      240.017        0.539        0.037       99.378        7.854        0.006      334.564        4.620      862.763
12/01/2014  02:31:00      103.952       61.128       18.782       25.034       25.871       22.392      626.706      669.287      501.409        0.835        0.090      120.593       14.494        0.014      334.521        4.550      862.707
12/01/2014  02:32:00      113.246       74.662        6.901       42.553       26.543       32.432     1810.719      704.506     1051.841        1.101        0.178      135.643       23.597        0.030      334.507        4.525      862.660
12/01/2014  02:33:00      104.446       53.676       -1.258       33.708       25.668       21.210     1136.221      658.825      449.885        0.802        0.112      117.431       12.062        0.011      334.492        4.498      862.664
12/01/2014  02:34:00       63.838       33.558       14.395       35.952       25.157       29.350     1292.528      632.892      861.445        0.410        0.139       72.121       22.603        0.098      334.505        4.522      862.722
12/01/2014  02:35:00       34.908       12.868       13.485       36.948       24.149       18.273     1365.185      583.197      333.902        0.192        0.114       37.204       20.236        0.296      334.563        4.617      862.770
12/01/2014  02:36:00       63.839       28.764       29.041       42.928       28.247       30.824     1842.835      797.888      950.108        0.467        0.180       70.019       20.464        0.085      334.528        4.561      862.760
12/01/2014  02:37:00       94.197       40.986       14.401       37.386       36.845       21.488     1397.750     1357.540      461.742        0.699        0.161      102.727       15.869        0.024      334.494        4.505      862.694
12/01/2014  02:38:00       84.726       45.977        9.346       34.769       25.696       20.175     1208.899      660.282      407.025        0.583        0.114       96.397       12.377        0.016      334.488        4.495      862.644
12/01/2014  02:39:00       86.094       20.564        5.970       46.824       31.180       30.659     2192.479      972.165      939.982        0.599        0.205       88.516       20.085        0.051      334.474        4.471      862.661
12/01/2014  02:40:00       32.401       31.205       12.870       22.075       19.799       16.432      487.297      392.012      270.004        0.167        0.057       44.984        8.633        0.037      334.443        4.419      862.711
12/01/2014  02:41:00       14.655       14.956       -6.302       24.965       10.229       13.381      623.236      104.623      179.046        0.069        0.045       20.940        2.616        0.016      334.420        4.384      862.747
12/01/2014  02:42:00       17.130       34.834       -6.630       29.907       24.677       13.212      894.406      608.960      174.550        0.161        0.084       38.818       13.410        0.119      334.441        4.417      862.754
12/01/2014  02:43:00       56.939       30.024        4.288       17.791        9.600       10.578      316.526       92.168      111.899        0.234        0.026       64.370        5.381        0.007      334.450        4.430      862.744
12/01/2014  02:44:00       52.658       25.174        2.506       24.831       19.779       18.877      616.601      391.224      356.352        0.239        0.068       58.366       13.856        0.056      334.509        4.528      862.730
12/01/2014  02:45:00       25.839       42.048       28.746       22.330       21.395       13.855      498.629      457.763      191.959        0.220        0.057       49.353       10.564        0.046      334.519        4.544      862.743
12/01/2014  02:46:00       33.138       27.328       20.894       20.061       17.126       19.882      402.431      293.315      395.310        0.169        0.055       42.952       14.561        0.115      334.501        4.516      862.762
12/01/2014  02:47:00       68.916       41.166       11.956       11.857       16.149       15.408      140.591      260.788      237.405        0.361        0.032       80.275        9.888        0.015      334.455        4.438      862.760
12/01/2014  02:48:00       78.914       42.755        7.102       22.988       14.597       19.098      528.470      213.069      364.742        0.461        0.055       89.752        8.154        0.008      334.482        4.486      862.763
12/01/2014  02:49:00       79.651       56.974       27.859       19.601       13.948       22.288      384.195      194.552      496.762        0.572        0.054       97.930       13.534        0.019      334.512        4.533      862.764
12/01/2014  02:50:00       32.704       60.641       59.504       37.887       32.373       33.940     1435.394     1048.041     1151.942        0.596        0.182       68.898       32.367        0.221      334.545        4.587      862.750
12/01/2014  02:51:00      103.994       59.129       26.455       26.508       31.322       28.140      702.671      981.073      791.872        0.874        0.124      119.628       20.608        0.030      334.506        4.524      862.716
12/01/2014  02:52:00      105.766       58.510        1.671       20.908       23.530       18.913      437.146      553.676      357.694        0.798        0.067      120.871       11.534        0.009      334.449        4.431      862.710
12/01/2014  02:53:00       38.561       14.758       -9.513       25.359       24.303       13.667      643.069      590.621      186.784        0.161        0.071       41.289       14.147        0.117      334.474        4.473      862.758
12/01/2014  02:54:00       23.314       26.526       -7.369       15.165        8.947       11.065      229.965       80.052      122.432        0.087        0.022       35.315        6.733        0.036      334.503        4.518      862.824
12/01/2014  02:55:00       56.834       37.844       25.938       26.729       11.508       14.863      714.452      132.445      220.915        0.320        0.053       68.281        7.777        0.013      334.519        4.545      862.846
12/01/2014  02:56:00      102.616       57.051       15.984       17.733       15.960       16.295      314.458      254.711      265.518        0.744        0.042      117.409       10.890        0.009      334.488        4.495      862.826
12/01/2014  02:57:00      140.646       86.996       24.357       31.225       24.029       28.105      975.029      577.416      789.867        1.514        0.117      165.377       17.407        0.011      334.497        4.508      862.787
12/01/2014  02:58:00       78.503       76.062       49.294       52.435       27.008       27.524     2749.475      729.459      757.578        0.931        0.212      109.308       19.686        0.032      334.535        4.571      862.785
12/01/2014  02:59:00       23.778        3.582       31.241       25.342       28.195       16.888      642.217      794.959      285.188        0.164        0.086       24.046       14.011        0.339      334.560        4.613      862.816
12/01/2014  03:00:00       12.855      -29.485        2.590       20.217       14.040       11.817      408.707      197.134      139.633        0.089        0.037       32.165        6.141        0.036      334.463        4.453      862.851
12/01/2014  03:01:00       27.509       15.358       12.580       19.700       21.916       17.957      388.090      480.296      322.466        0.117        0.060       31.505       12.747        0.164      334.482        4.486      862.849
12/01/2014  03:02:00       68.180       53.864       17.566       34.294       28.029       26.277     1176.107      785.614      690.505        0.525        0.133       86.890       21.871        0.063      334.461        4.450      862.813
12/01/2014  03:03:00       82.029       46.554       22.011       53.865       28.758       33.663     2901.398      827.035     1133.171        0.712        0.243       94.319       35.467        0.141      334.489        4.496      862.779
12/01/2014  03:04:00      128.521       73.107       17.148       28.917       26.498       28.637      836.180      702.141      820.076        1.226        0.118      147.859       13.450        0.008      334.481        4.481      862.750
12/01/2014  03:05:00      116.741       76.364       24.106       35.492       27.475       27.936     1259.675      754.889      780.406        1.142        0.140      139.499        3.372        0.001      334.437        4.409      862.721
12/01/2014  03:06:00       89.620       68.005       35.522       36.540       39.326       33.508     1335.157     1546.550     1122.785        0.896        0.200      112.501       19.151        0.029      334.421        4.383      862.700
12/01/2014  03:07:00       78.718       38.766       22.708       40.917       31.816       33.522     1674.223     1012.277     1123.753        0.601        0.191       87.746       22.345        0.065      334.384        4.321      862.693
12/01/2014  03:08:00       65.215       22.307        8.390       33.243       26.518       22.751     1105.114      703.203      517.606        0.357        0.116       68.925       16.206        0.055      334.360        4.284      862.709
12/01/2014  03:09:00       97.979       53.266       12.615       51.310       34.398       23.661     2632.697     1183.199      559.836        0.849        0.219      111.522       19.654        0.031      334.335        4.242      862.741
12/01/2014  03:10:00       53.612       85.628       62.623       38.019       36.255       34.697     1445.419     1314.436     1203.894        0.905        0.198      101.027       28.481        0.079      334.390        4.333      862.771
12/01/2014  03:11:00      122.105       90.448       43.197       62.330       31.180       36.973     3885.012      972.208     1367.034        1.559        0.311      151.956       34.368        0.051      334.319        4.212      862.757
12/01/2014  03:12:00      137.708      109.166       23.027       37.362       31.093       31.845     1395.934      966.792     1014.092        1.739        0.169      175.729       19.623        0.012      334.308        4.196      862.701
12/01/2014  03:13:00      130.083       82.131        7.483       53.304       37.255       31.979     2841.334     1387.899     1022.679        1.449        0.263      153.841       20.025        0.017      334.313        4.204      862.640
12/01/2014  03:14:00       38.284       58.804        0.107       41.048       30.618       26.286     1684.957      937.475      690.943        0.412        0.166       70.169       23.690        0.114      334.317        4.212      862.617
12/01/2014  03:15:00       17.513       20.004        5.674       17.149       22.469       16.319      294.089      504.874      266.320        0.090        0.053       26.588       12.894        0.235      334.336        4.243      862.629
12/01/2014  03:16:00       54.179       80.238       -0.691       27.789       43.364       34.321      772.253     1880.445     1177.941        0.660        0.192       96.817       31.248        0.104      334.328        4.228      862.655
12/01/2014  03:17:00       61.094       52.835        4.611       29.895       34.095       23.178      893.719     1162.472      537.223        0.457        0.130       80.772       21.137        0.068      334.333        4.236      862.648
12/01/2014  03:18:00       97.325       64.398        9.890       44.390       41.577       29.833     1970.499     1728.645      890.023        0.915        0.229      116.702       15.204        0.017      334.349        4.264      862.627
12/01/2014  03:19:00       79.851       79.998       31.396       41.539       30.101       34.260     1725.504      906.088     1173.739        0.878        0.190      113.030       29.524        0.068      334.362        4.284      862.646
12/01/2014  03:20:00      120.890       43.109       16.567       43.657       47.167       27.979     1905.907     2224.709      782.828        1.083        0.246      128.346       13.009        0.010      334.362        4.284      862.692
12/01/2014  03:21:00       98.467       31.231       15.385       38.072       26.175       26.507     1449.512      685.146      702.632        0.687        0.142      103.301       21.727        0.044      334.386        4.325      862.742
12/01/2014  03:22:00       50.442       20.435       47.885       44.954       37.104       26.364     2020.871     1376.685      695.065        0.467        0.205       54.424       18.909        0.121      334.439        4.414      862.789
12/01/2014  03:23:00       17.866       23.472       37.303       36.964       42.675       24.305     1366.310     1821.141      590.732        0.302        0.189       29.498       20.771        0.496      334.427        4.393      862.805
12/01/2014  03:24:00       17.386       37.970       40.932       26.180       23.509       16.568      685.392      552.690      274.495        0.247        0.076       41.761        9.534        0.052      334.477        4.474      862.803
12/01/2014  03:25:00       36.401       50.283       33.508       23.747       17.073       21.969      563.924      291.477      482.637        0.316        0.067       62.076       15.148        0.060      334.454        4.438      862.795
12/01/2014  03:26:00       26.104       35.269       20.898       36.733       16.552       23.026     1349.286      273.962      530.207        0.226        0.108       43.879       17.941        0.167      334.508        4.526      862.783
12/01/2014  03:27:00       36.355       28.455       15.125       43.025       41.727       24.004     1851.176     1741.122      576.205        0.326        0.208       46.167       23.160        0.252      334.446        4.423      862.778
12/01/2014  03:28:00      116.578       70.082        9.805       33.828       15.205       17.263     1144.339      231.183      298.027        1.014        0.084      136.022        8.295        0.004      334.331        4.232      862.786
12/01/2014  03:29:00       74.318       56.516       14.785       36.494       23.774       26.666     1331.817      565.189      711.076        0.577        0.130       93.366       21.272        0.052      334.373        4.303      862.800
12/01/2014  03:30:00       22.910       32.778       37.124       22.631       21.693       24.155      512.181      470.602      583.487        0.227        0.078       39.991        9.111        0.052      334.437        4.410      862.822
12/01/2014  03:31:00       13.768       21.692       28.489       20.627       23.974       24.657      425.486      574.748      607.944        0.154        0.080       25.693       19.757        0.591      334.490        4.496      862.834
12/01/2014  03:32:00       42.967       35.338       17.927       16.070       13.309       15.104      258.242      177.129      228.131        0.204        0.033       55.632       11.638        0.044      334.428        4.394      862.839
12/01/2014  03:33:00       47.976       38.145       16.235       24.405       18.205       15.931      595.596      331.404      253.797        0.260        0.059       61.292       10.437        0.029      334.396        4.343      862.829
12/01/2014  03:34:00       69.280       47.626       12.721       28.363       18.861       16.583      804.472      355.737      274.994        0.433        0.072       84.071       14.706        0.031      334.390        4.331      862.780
12/01/2014  03:35:00       68.830       45.486       14.080       44.563       26.465       27.539     1985.871      700.412      758.413        0.522        0.172       82.502       18.607        0.051      334.416        4.377      862.707
12/01/2014  03:36:00       84.601       63.422        4.070       49.163       34.724       32.081     2417.004     1205.780     1029.164        0.792        0.233      105.734       22.120        0.044      334.403        4.353      862.647
12/01/2014  03:37:00       83.353       47.984        8.611       49.649       41.391       25.237     2465.014     1713.226      636.895        0.707        0.241       96.178       19.771        0.042      334.393        4.337      862.650
12/01/2014  03:38:00       67.028       43.894       10.043       47.422       27.687       18.564     2248.836      766.552      344.633        0.494        0.168       80.121       15.981        0.040      334.379        4.312      862.707
12/01/2014  03:39:00        6.504        9.009       -1.155       20.819       17.086       15.729      433.446      291.940      247.415        0.055        0.049       11.112       13.490        1.474      334.406        4.359      862.760
12/01/2014  03:40:00       15.591       13.197        3.782       19.283       12.680       10.617      371.838      160.793      112.715        0.054        0.032       20.426        5.994        0.086      334.398        4.346      862.765
12/01/2014  03:41:00       50.944       35.492        1.244       14.300       13.970       10.575      204.485      195.169      111.838        0.218        0.026       62.088        7.608        0.015      334.397        4.344      862.739
12/01/2014  03:42:00       82.463       58.588       13.287       27.386       25.663       23.215      750.008      658.599      538.933        0.618        0.097      101.156       15.778        0.024      334.450        4.429      862.707
12/01/2014  03:43:00      103.262       61.591       47.314       45.605       34.122       43.221     2079.794     1164.332     1868.063        1.090        0.256      120.236       32.209        0.072      334.415        4.373      862.686
12/01/2014  03:44:00       98.535       59.005       36.611       39.695       36.006       36.555     1575.724     1296.437     1336.260        0.937        0.210      114.851       26.937        0.055      334.386        4.327      862.706
12/01/2014  03:45:00       95.979       64.706       27.325       35.850       22.229       27.953     1285.198      494.143      781.378        0.835        0.128      115.753       15.065        0.017      334.384        4.322      862.725
12/01/2014  03:46:00       68.077       39.166       10.301       26.053       22.393       22.088      678.767      501.424      487.900        0.397        0.083       78.539       13.354        0.029      334.361        4.285      862.750
12/01/2014  03:47:00      105.382       56.726        8.203       18.307       24.884       18.977      335.136      619.216      360.127        0.785        0.066      119.680       11.570        0.009      334.334        4.239      862.766
12/01/2014  03:48:00       70.780       51.221       10.789       28.809       18.100       18.479      829.935      327.602      341.477        0.462        0.075       87.369       17.328        0.039      334.347        4.263      862.775
12/01/2014  03:49:00      117.731       65.233       20.942       32.870       27.792       27.632     1080.419      772.381      763.502        1.058        0.131      134.595       17.353        0.017      334.412        4.369      862.755
12/01/2014  03:50:00      155.004       84.013       18.368       29.750       34.933       28.380      885.082     1220.340      805.400        1.717        0.146      176.308       14.231        0.007      334.336        4.244      862.714
12/01/2014  03:51:00      170.441       71.437       21.525       64.075       41.457       49.340     4105.638     1718.656     2434.388        2.144        0.413      184.807       33.746        0.033      334.351        4.265      862.679
12/01/2014  03:52:00      127.904       65.615       24.723       57.081       44.043       43.337     3258.240     1939.809     1878.139        1.417        0.354      143.753       35.578        0.061      334.353        4.270      862.687
12/01/2014  03:53:00       89.763       74.043       38.337       29.454       28.912       33.484      867.551      835.881     1121.191        0.892        0.141      116.360       20.406        0.031      334.375        4.307      862.712
12/01/2014  03:54:00       72.252       61.858       35.473       33.950       27.564       32.422     1152.615      759.788     1051.173        0.663        0.148       95.114       23.762        0.062      334.360        4.283      862.740
12/01/2014  03:55:00       59.570       30.942       17.982       30.751       34.457       30.012      945.627     1187.307      900.720        0.393        0.152       67.127       23.930        0.127      334.354        4.273      862.768
12/01/2014  03:56:00       72.593       14.896       10.410       26.177       20.871       16.235      685.223      435.589      263.562        0.349        0.069       74.105       12.873        0.030      334.368        4.295      862.817
12/01/2014  03:57:00       77.786       43.923       29.704       22.639       31.756       19.077      512.543     1008.442      363.914        0.537        0.094       89.330       10.829        0.015      334.354        4.273      862.847
12/01/2014  03:58:00      102.597       62.679       21.698       19.292       17.398       12.815      372.191      302.699      164.217        0.788        0.042      120.229        8.075        0.005      334.329        4.229      862.839
12/01/2014  03:59:00       91.761       60.443       10.649       23.468       24.623       23.863      550.762      606.281      569.431        0.696        0.086      109.879       15.808        0.021      334.325        4.224      862.817
12/01/2014  04:00:00       98.936       30.636        6.361       51.155       46.911       32.328     2616.870     2200.669     1045.101        0.831        0.293      103.571       30.878        0.089      334.328        4.229      862.826
12/01/2014  04:01:00       22.059       13.273        5.313       30.444       33.432       25.587      926.860     1117.700      654.681        0.169        0.135       25.745       18.075        0.493      334.367        4.296      862.886
12/01/2014  04:02:00       12.636       16.118       17.095       18.378       21.675       22.585      337.743      469.787      510.094        0.101        0.066       20.481       12.822        0.392      334.372        4.304      862.966
12/01/2014  04:03:00       26.057       31.636       35.626       26.343       25.816       21.302      693.955      666.484      453.785        0.238        0.091       40.986       15.143        0.137      334.394        4.339      863.008
12/01/2014  04:04:00       77.737       49.664       26.378       32.406       15.707       19.231     1050.139      246.711      369.843        0.544        0.083       92.247       15.589        0.029      334.344        4.255      863.003
12/01/2014  04:05:00       63.794       53.612       17.602       33.671       22.187       24.540     1133.731      492.263      602.207        0.474        0.111       83.330       13.524        0.026      334.312        4.203      862.970
12/01/2014  04:06:00       96.081       58.728        3.554       43.686       27.176       23.668     1908.460      738.554      560.192        0.795        0.160      112.608       18.338        0.027      334.287        4.162      862.926
12/01/2014  04:07:00      132.813       67.668        9.257       57.001       34.396       33.044     3249.096     1183.054     1091.938        1.391        0.276      149.058       27.653        0.034      334.330        4.231      862.876
12/01/2014  04:08:00      156.416       65.600       14.242       50.051       38.765       36.365     2505.111     1502.701     1322.435        1.715        0.267      169.616       30.111        0.032      334.287        4.159      862.859
12/01/2014  04:09:00      105.488       43.573       23.838       36.668       35.542       27.246     1344.570     1263.259      742.344        0.847        0.168      114.133       18.577        0.026      334.265        4.124      862.901
12/01/2014  04:10:00       60.378       38.139       31.921       27.858       20.968       21.470      776.076      439.672      460.949        0.390        0.084       71.415       19.881        0.077      334.297        4.179      862.952
12/01/2014  04:11:00       75.118       61.938       15.201       28.210       22.771       22.480      795.811      518.522      505.337        0.576        0.091       97.360       12.833        0.017      334.243        4.088      862.964
12/01/2014  04:12:00      117.268       70.805       20.284       29.492       22.227       22.769      869.757      494.030      518.436        1.053        0.094      136.986       15.357        0.013      334.236        4.074      862.950
12/01/2014  04:13:00       79.115       69.307       31.036       34.746       19.761       20.309     1207.265      390.500      412.453        0.702        0.101      105.179       21.965        0.044      334.232        4.069      862.971
12/01/2014  04:14:00       93.115       69.500       24.241       40.213       20.815       31.627     1617.099      433.276     1000.290        0.857        0.153      116.192       28.353        0.060      334.285        4.156      863.026
12/01/2014  04:15:00       85.906       73.823       47.569       33.693       20.163       31.333     1135.217      406.552      981.749        0.881        0.126      113.268       23.162        0.042      334.285        4.156      863.036
12/01/2014  04:16:00      136.960       60.289       26.898       35.557       32.765       30.700     1264.303     1073.569      942.504        1.320        0.164      149.642       17.757        0.014      334.249        4.096      862.993
12/01/2014  04:17:00       96.028       62.738        7.302       39.925       28.219       25.048     1593.986      796.291      627.406        0.811        0.151      114.706       17.326        0.023      334.204        4.023      862.991
12/01/2014  04:18:00       35.884       22.218        5.026       36.351       33.680       14.671     1321.424     1134.337      215.234        0.224        0.134       42.206       14.937        0.125      334.199        4.013      863.048
12/01/2014  04:19:00        6.399       -1.195       12.688       19.299       16.756       10.391      372.440      280.763      107.980        0.048        0.038        6.510        6.546        1.011      334.235        4.075      863.122
12/01/2014  04:20:00       49.222       30.561        7.493       15.422       23.218       19.444      237.846      539.097      378.079        0.228        0.058       57.938       17.782        0.094      334.197        4.014      863.162
12/01/2014  04:21:00       74.743       56.252       22.775       24.112       20.071       22.533      581.402      402.847      507.737        0.538        0.075       93.546       15.236        0.027      334.203        4.021      863.134
12/01/2014  04:22:00       54.910       59.517       -1.078       37.038       36.093       30.569     1371.782     1302.691      934.494        0.508        0.180       80.978       27.729        0.117      334.209        4.030      863.077
12/01/2014  04:23:00       51.265       55.275        5.368       32.349       27.761       22.077     1046.490      770.683      487.383        0.401        0.115       75.388       15.477        0.042      334.254        4.104      863.041
12/01/2014  04:24:00       38.385      119.149      -19.086       26.769       21.826       24.498      716.597      476.354      600.128        0.891        0.090      125.179       16.305        0.017      334.175        3.973      863.050
12/01/2014  04:25:00       13.954       59.007       -3.838       25.406       47.920       23.464      645.446     2296.373      550.552        0.359        0.175       60.634       28.746        0.225      334.197        4.010      863.084
12/01/2014  04:26:00       30.270       76.238       -5.583       23.105       26.747       19.004      533.844      715.391      361.154        0.418        0.081       82.027       17.565        0.046      334.187        3.994      863.106
12/01/2014  04:27:00       37.395       37.089       -0.341       20.627       20.147       19.883      425.477      405.913      395.343        0.200        0.061       52.669        9.408        0.032      334.219        4.048      863.108
12/01/2014  04:28:00       23.422       42.232        0.647       21.907       30.342       20.397      479.937      920.629      416.051        0.207        0.091       48.292       19.251        0.159      334.245        4.092      863.129
12/01/2014  04:29:00        7.441      106.486      -18.460       15.345       13.476       10.335      235.482      181.600      106.822        0.613        0.026      106.746        5.830        0.003      334.158        3.946      863.157
12/01/2014  04:30:00        6.310       63.208      -10.282       10.473       29.894       10.588      109.684      893.673      112.111        0.263        0.056       63.522        5.565        0.008      334.181        3.985      863.164
12/01/2014  04:31:00       31.175       82.378       -8.457       26.260       46.580       20.487      689.573     2169.717      419.728        0.555        0.164       88.080       26.707        0.092      334.199        4.014      863.143
12/01/2014  04:32:00       41.602       99.320      -10.635       33.023       36.414       30.404     1090.550     1326.014      924.417        0.752        0.167      107.681       27.289        0.064      334.171        3.966      863.096
12/01/2014  04:33:00       46.098       76.344       -4.305       42.987       60.586       36.813     1847.859     3670.648     1355.192        0.742        0.344       89.182       33.698        0.143      334.143        3.921      863.041
12/01/2014  04:34:00       29.946       88.551      -11.851       37.121       44.344       24.049     1377.936     1966.422      578.355        0.640        0.196       93.478       24.995        0.071      334.147        3.929      863.070
12/01/2014  04:35:00      -14.081       22.936      -11.116       15.250       33.268       13.428      232.560     1106.728      180.308        0.118        0.076       26.914       14.820        0.303      334.154        3.940      863.174
12/01/2014  04:36:00      -16.249        4.979        2.194       26.159       21.506       17.965      684.292      462.529      322.759        0.088        0.073       16.995       13.689        0.649      334.345        4.256      863.215
12/01/2014  04:37:00       17.471       79.555       -3.874       46.858       48.450       27.363     2195.690     2347.445      748.714        0.597        0.265       81.451       27.659        0.115      334.248        4.095      863.146
12/01/2014  04:38:00       73.841       97.205       -9.202       43.215       54.854       40.495     1867.497     3008.983     1639.817        1.075        0.326      122.071       33.904        0.077      334.166        3.959      863.004
12/01/2014  04:39:00      129.667       81.552       16.989       67.923       56.208       44.747     4613.538     3159.377     2002.313        1.676        0.489      153.180       29.504        0.037      334.205        4.023      862.881
12/01/2014  04:40:00      138.849      100.933       23.998       67.691       45.742       39.825     4582.050     2092.308     1585.992        1.915        0.413      171.658       16.922        0.010      334.154        3.936      862.869
12/01/2014  04:41:00       24.050       43.829        4.042       44.040       34.112       34.080     1939.552     1163.659     1161.451        0.339        0.213       49.994       21.366        0.183      334.162        3.951      862.943
12/01/2014  04:42:00      -18.978      -16.559        2.290       14.828       20.540       14.521      219.857      421.900      210.872        0.075        0.043       25.187       13.271        0.278      334.258        4.114      863.072
12/01/2014  04:43:00      -14.764      -26.803        6.818       35.619       25.487       20.027     1268.719      649.609      401.070        0.165        0.116       30.600       21.121        0.476      334.434        4.405      863.165
12/01/2014  04:44:00        6.302      -52.608       11.531       43.970       29.237       17.127     1933.390      854.818      293.332        0.301        0.154       52.984       14.700        0.077      334.360        4.281      863.218
12/01/2014  04:45:00        2.669      -23.241       -3.656       15.842       10.938        9.444      250.963      119.648       89.182        0.051        0.023       23.394        7.091        0.092      334.305        4.190      863.227
12/01/2014  04:46:00       31.171       35.641       16.296       25.659       28.538       18.597      658.396      814.404      345.835        0.216        0.091       47.349       16.394        0.120      334.350        4.268      863.196
12/01/2014  04:47:00       26.943       94.932      -14.186       20.927       25.635       16.214      437.925      657.162      262.880        0.565        0.068       98.681        9.446        0.009      334.281        4.150      863.142
12/01/2014  04:48:00       35.533       53.609       -6.376       38.057       37.876       23.457     1448.299     1434.604      550.234        0.380        0.172       64.316       17.919        0.078      334.283        4.154      863.102
12/01/2014  04:49:00       40.644       75.057       -8.296       27.688       47.146       28.705      766.609     2222.746      823.952        0.558        0.191       85.355       26.900        0.099      334.234        4.073      863.118
12/01/2014  04:50:00        4.884       54.865      -16.232       21.651       44.926       20.474      468.781     2018.311      419.165        0.310        0.145       55.082       18.850        0.117      334.268        4.128      863.201
12/01/2014  04:51:00       28.372       -4.471        8.212       19.662       18.770       12.717      386.588      352.311      161.721        0.090        0.045       28.722        9.528        0.110      334.289        4.162      863.281
12/01/2014  04:52:00       32.895        9.218        3.602       26.807       16.416       17.566      718.617      269.480      308.579        0.124        0.065       34.162       11.900        0.121      334.307        4.195      863.294
12/01/2014  04:53:00       17.068       88.719       -7.226       26.450       25.390       16.090      699.580      644.661      258.898        0.491        0.080       90.345       15.569        0.030      334.238        4.078      863.259
12/01/2014  04:54:00       17.129       92.522       -8.988       22.960       37.193       18.589      527.160     1383.289      345.548        0.559        0.113       94.094       15.097        0.026      334.258        4.113      863.210
12/01/2014  04:55:00       41.072       71.243       -2.969       30.651       36.566       30.835      939.495     1337.058      950.767        0.500        0.161       82.235       29.229        0.126      334.303        4.189      863.178
12/01/2014  04:56:00       32.919       27.677        6.670       31.510       25.961       22.044      992.867      673.964      485.947        0.202        0.108       43.008       18.865        0.192      334.297        4.178      863.178
12/01/2014  04:57:00       55.638       29.083        4.008       31.878       22.557       24.278     1016.175      508.815      589.409        0.304        0.106       62.781       16.110        0.066      334.262        4.119      863.199
12/01/2014  04:58:00       60.731       42.381       10.223       19.049       25.520       17.025      362.870      651.253      289.855        0.345        0.065       74.057       11.347        0.023      334.260        4.115      863.225
12/01/2014  04:59:00       71.596       64.672       22.509       32.846       24.180       19.972     1078.863      584.665      398.865        0.594        0.103       96.480       14.305        0.022      334.287        4.161      863.184
12/01/2014  05:00:00       95.068       75.473       14.477       59.857       33.433       26.487     3582.809     1117.778      701.587        1.017        0.270      121.385       22.285        0.034      334.250        4.099      863.100
12/01/2014  05:01:00       51.389       52.731        6.190       45.767       33.991       29.492     2094.608     1155.398      869.761        0.479        0.206       73.630       20.554        0.078      334.244        4.089      863.040
12/01/2014  05:02:00       57.853       44.173        8.755       46.558       35.111       29.858     2167.640     1232.750      891.488        0.483        0.215       72.789       23.299        0.102      334.216        4.040      863.073
12/01/2014  05:03:00       59.174       20.166        6.556       31.495       20.555       20.455      991.943      422.520      418.427        0.289        0.092       62.516       15.926        0.065      334.228        4.061      863.145
12/01/2014  05:04:00       51.443       34.529       27.727       33.459       25.550       20.597     1119.508      652.796      424.253        0.340        0.110       61.956       10.008        0.026      334.243        4.087      863.178
12/01/2014  05:05:00       97.308       60.863       10.127       22.829       24.962       18.275      521.177      623.115      333.985        0.738        0.074      114.774        8.580        0.006      334.171        3.969      863.163
12/01/2014  05:06:00       20.352       14.653        4.523       37.996       18.937       17.335     1443.719      358.604      300.517        0.138        0.105       25.078       11.472        0.209      334.206        4.026      863.152
12/01/2014  05:07:00      -11.320      118.416      -24.515       20.410       43.406       16.253      416.582     1884.076      264.172        0.866        0.128      118.956       18.893        0.025      334.172        3.969      863.174
12/01/2014  05:08:00       -9.362      103.003      -12.667       19.103       26.176       12.071      364.909      685.198      145.711        0.603        0.060      103.428       12.734        0.015      334.197        4.011      863.211
12/01/2014  05:09:00        2.288      105.126      -12.625       11.473       26.450       16.491      131.633      699.613      271.944        0.616        0.055      105.151       16.001        0.023      334.265        4.124      863.239
12/01/2014  05:10:00       25.340      115.925      -21.486       22.007       26.328       15.177      484.306      693.139      230.343        0.797        0.070      118.662        9.321        0.006      334.130        3.904      863.228
12/01/2014  05:11:00       68.454       66.232       -1.528       34.294       29.634       27.023     1176.053      878.183      730.245        0.593        0.139       95.251       22.283        0.055      334.171        3.968      863.215
12/01/2014  05:12:00       52.762       45.595       19.286       37.838       31.206       31.597     1431.688      973.812      998.386        0.432        0.170       69.733       16.859        0.058      334.178        3.979      863.230
12/01/2014  05:13:00       36.815       21.160       11.420       24.188       20.696       15.902      585.075      428.325      252.864        0.160        0.063       42.463       13.793        0.106      334.238        4.079      863.287
12/01/2014  05:14:00       32.572       16.941       -0.192       11.643        8.470        9.294      135.569       71.734       86.374        0.082        0.015       36.715        4.279        0.014      334.141        3.917      863.341
12/01/2014  05:15:00       34.231       36.349        9.767        9.700        7.992       10.921       94.088       63.879      119.276        0.143        0.014       49.930        5.902        0.014      334.139        3.912      863.354
12/01/2014  05:16:00       55.239       50.216       10.133       17.751       11.713       12.400      315.116      137.205      153.751        0.314        0.030       74.652        5.951        0.006      334.155        3.942      863.313
12/01/2014  05:17:00       24.202       63.434      -10.009       18.153       21.853       14.196      329.532      477.552      201.527        0.286        0.050       67.894       12.244        0.033      334.157        3.947      863.271
12/01/2014  05:18:00       -9.081       97.985      -21.809       11.464       25.003        8.131      131.417      625.166       66.113        0.549        0.041       98.405        9.446        0.009      334.186        3.994      863.277
12/01/2014  05:19:00      -54.457        6.248        4.316       51.885       59.558       25.439     2692.087     3547.171      647.155        0.495        0.344       54.814       17.040        0.097      334.332        4.234      863.343
12/01/2014  05:20:00      -84.021      -38.789      -13.788       24.176       27.905       13.520      584.460      778.671      182.781        0.515        0.077       92.542        7.566        0.007      334.355        4.274      863.401
12/01/2014  05:21:00      -25.645      -36.944        7.483       26.141       18.046       14.809      683.334      325.660      219.304        0.165        0.061       44.973       12.243        0.074      334.366        4.294      863.405
12/01/2014  05:22:00       26.030       31.758        7.989       36.415       24.447       19.400     1326.082      597.654      376.371        0.202        0.115       41.063       15.426        0.141      334.355        4.276      863.361
12/01/2014  05:23:00       40.381       26.558        8.146       23.431       26.845       19.745      549.031      720.667      389.875        0.203        0.083       48.332        7.120        0.022      334.305        4.192      863.346
12/01/2014  05:24:00       23.539       19.565       -4.915       12.079       18.250        9.317      145.901      333.055       86.799        0.076        0.028       30.608        8.611        0.079      334.231        4.065      863.379
12/01/2014  05:25:00       17.656       23.908        0.400       15.083       12.030       10.017      227.496      144.729      100.340        0.068        0.024       29.721        6.031        0.041      334.260        4.115      863.395
12/01/2014  05:26:00       59.613       54.013       12.601       20.198       23.739       13.904      407.941      563.549      193.334        0.390        0.058       80.443       12.846        0.026      334.281        4.151      863.382
12/01/2014  05:27:00       70.539       59.766       -7.670       33.667       27.976       21.820     1133.467      782.638      476.118        0.550        0.120       92.453       19.586        0.045      334.279        4.147      863.353
12/01/2014  05:28:00       33.166       21.787       -9.872       36.655       22.340       17.670     1343.606      499.088      312.242        0.191        0.108       39.682        4.746        0.014      334.284        4.155      863.360
12/01/2014  05:29:00       16.037       25.209        5.338       20.524       11.564       18.470      421.234      133.728      341.139        0.091        0.045       29.878       14.894        0.248      334.272        4.136      863.408
12/01/2014  05:30:00        9.971       41.832       -6.604       16.319       18.980        9.200      266.301      360.254       84.635        0.130        0.036       43.004        9.108        0.045      334.233        4.070      863.453
12/01/2014  05:31:00       10.545       55.041        2.983       16.714       25.278       17.533      279.353      638.960      307.407        0.219        0.061       56.042       17.662        0.099      334.297        4.178      863.464
12/01/2014  05:32:00        3.870       34.506        8.448       25.763       23.752       19.520      663.725      564.139      381.049        0.144        0.080       34.722       16.781        0.234      334.381        4.317      863.450
12/01/2014  05:33:00       32.694       70.059      -14.321       30.805       27.475       11.124      948.947      754.899      123.743        0.400        0.091       77.312        8.032        0.011      334.293        4.171      863.438
12/01/2014  05:34:00       38.770       16.715       10.366       34.042       16.726       19.464     1158.849      279.766      378.836        0.185        0.091       42.219       13.818        0.107      334.349        4.266      863.428
12/01/2014  05:35:00       47.955       27.630        1.897       34.372       19.703       16.148     1181.409      388.193      260.771        0.245        0.092       55.345       10.898        0.039      334.313        4.203      863.449
12/01/2014  05:36:00       39.927       25.852        3.504       23.416       20.465       20.077      548.286      418.820      403.089        0.182        0.069       47.565       18.176        0.146      334.333        4.239      863.501
12/01/2014  05:37:00        9.854       -0.921       37.817       18.108       35.340       13.503      327.892     1248.938      182.330        0.164        0.088        9.897       10.989        1.233      334.390        4.334      863.577
12/01/2014  05:38:00       22.539       11.865       46.547       24.776       39.505       20.169      613.871     1560.640      406.783        0.270        0.129       25.471       24.467        0.923      334.416        4.374      863.646
12/01/2014  05:39:00       68.360      -39.578        1.269       49.634       55.519       39.343     2463.493     3082.310     1547.854        0.667        0.355       78.991       40.346        0.261      334.363        4.288      863.664
12/01/2014  05:40:00       28.242       -5.960       37.870       33.758       39.074       30.835     1139.594     1526.776      950.802        0.294        0.181       28.864       24.591        0.726      334.372        4.302      863.640
12/01/2014  05:41:00       36.968       31.172       39.497       40.589       55.355       30.966     1647.464     3064.168      958.922        0.478        0.284       48.356       25.133        0.270      334.333        4.237      863.596
12/01/2014  05:42:00       50.140       32.180       22.040       36.073       28.036       24.072     1301.261      785.997      579.454        0.335        0.133       59.578        7.684        0.017      334.323        4.223      863.587
12/01/2014  05:43:00       62.262       41.848       17.083       23.926       21.664       18.458      572.444      469.311      340.716        0.365        0.069       75.019       13.802        0.034      334.293        4.171      863.615
12/01/2014  05:44:00       65.130       41.030       19.169       22.041       19.048       23.391      485.784      362.844      547.139        0.384        0.070       76.977       16.377        0.045      334.309        4.198      863.648
12/01/2014  05:45:00       76.244       46.539       46.894       52.373       33.835       36.336     2742.940     1144.819     1320.328        0.769        0.260       89.326       23.958        0.072      334.302        4.186      863.666
12/01/2014  05:46:00      113.276      110.697       69.364       52.383       28.081       40.155     2743.934      788.547     1612.457        1.752        0.257      158.384       33.339        0.044      334.259        4.114      863.664
12/01/2014  05:47:00      137.490       80.965       44.885       61.864       45.346       47.345     3827.193     2056.254     2241.578        1.780        0.406      159.558       34.548        0.047      334.201        4.017      863.636
12/01/2014  05:48:00      138.618       92.995       65.121       75.826       59.294       57.013     5749.543     3515.802     3250.491        2.231        0.626      166.922       44.331        0.071      334.177        3.974      863.572
12/01/2014  05:49:00      130.709       68.059       20.721       56.581       50.458       49.277     3201.377     2545.978     2428.182        1.516        0.409      147.366       20.785        0.020      334.175        3.973      863.497
12/01/2014  05:50:00      177.601       98.873       15.448       50.199       41.558       34.410     2519.897     1727.097     1184.073        2.349        0.272      203.268       23.036        0.013      334.148        3.928      863.429
12/01/2014  05:51:00      157.256       77.256        7.557       67.286       45.079       45.682     4527.373     2032.154     2086.870        1.970        0.432      175.208       35.098        0.040      334.126        3.890      863.384
12/01/2014  05:52:00      141.357       98.981       15.033       64.088       52.659       42.362     4107.261     2772.988     1794.560        1.934        0.434      172.566       30.746        0.032      334.102        3.852      863.383
12/01/2014  05:53:00      109.484       72.432       31.135       60.107       55.254       38.663     3612.854     3053.048     1494.801        1.318        0.408      131.275       26.922        0.042      334.088        3.828      863.443
12/01/2014  05:54:00       88.489       32.846       23.813       55.674       50.520       32.503     3099.648     2552.229     1056.419        0.809        0.335       94.388       15.716        0.028      334.066        3.792      863.537
12/01/2014  05:55:00       23.749       -9.860       19.189       48.069       46.660       21.034     2310.639     2177.157      442.439        0.298        0.247       25.715       26.035        1.025      334.067        3.796      863.629
12/01/2014  05:56:00        1.069        7.325       -5.137       22.084       24.806       14.432      487.684      615.335      208.292        0.070        0.066        7.402        3.118        0.177      334.064        3.789      863.676
12/01/2014  05:57:00       45.871       39.886       34.946       56.886       31.960       36.527     3236.014     1021.454     1334.191        0.525        0.280       60.787       25.483        0.176      334.133        3.903      863.698
12/01/2014  05:58:00       83.872       87.267       49.641       49.355       36.633       37.600     2435.885     1341.953     1413.762        1.115        0.260      121.037       26.306        0.047      334.137        3.910      863.715
12/01/2014  05:59:00       35.318       76.974       86.925       48.798       48.301       38.078     2381.260     2332.943     1449.923        1.045        0.308       84.690       37.770        0.199      334.085        3.824      863.745
12/01/2014  06:00:00       60.707      111.662       98.785       55.253       48.051       40.234     3052.887     2308.920     1618.791        1.645        0.349      127.098       41.178        0.105      334.055        3.773      863.769
12/01/2014  06:01:00       65.908       25.589       42.520       65.176       42.704       39.559     4247.851     1823.595     1564.879        0.722        0.382       70.701       27.604        0.152      334.044        3.756      863.796
12/01/2014  06:02:00       13.868       19.672       38.211       34.486       26.782       18.573     1189.313      717.258      344.951        0.215        0.113       24.069       16.153        0.450      334.092        3.835      863.829
12/01/2014  06:03:00        0.098      -16.952        4.574        8.750       17.511       13.678       76.565      306.641      187.079        0.044        0.029       16.952        4.792        0.080      334.080        3.815      863.874
12/01/2014  06:04:00       43.596       28.479       15.926       38.356       35.774       14.509     1471.154     1279.745      210.513        0.296        0.148       52.074       10.531        0.041      334.045        3.760      863.867
12/01/2014  06:05:00       91.424       90.835       12.200       34.343       32.089       32.029     1179.466     1029.680     1025.851        1.000        0.162      128.877       20.669        0.026      334.003        3.690      863.823
12/01/2014  06:06:00      116.458       82.797        9.224       37.436       33.244       26.210     1401.417     1105.174      686.954        1.185        0.160      142.891       12.548        0.008      333.998        3.682      863.782
12/01/2014  06:07:00      122.153       59.568        9.623       47.305       35.239       38.201     2237.794     1241.785     1459.301        1.175        0.247      135.903       23.066        0.029      334.031        3.736      863.759
12/01/2014  06:08:00       57.650       71.821       68.182       55.058       43.894       41.320     3031.406     1926.702     1707.335        0.990        0.333       92.097       27.482        0.089      334.041        3.752      863.783
12/01/2014  06:09:00       95.984       87.613       73.711       77.813       43.470       46.978     6054.938     1889.643     2206.974        1.623        0.508      129.958       52.203        0.161      334.042        3.752      863.803
12/01/2014  06:10:00       76.159       58.419       67.480       42.438       42.207       33.851     1800.998     1781.397     1145.902        0.925        0.236       95.984       19.313        0.040      334.038        3.747      863.792
12/01/2014  06:11:00      123.366       36.375       13.498       49.448       37.603       32.550     2445.146     1413.965     1059.498        1.082        0.246      128.617       25.809        0.040      333.999        3.685      863.766
12/01/2014  06:12:00       58.740       27.856       16.814       45.210       29.394       26.672     2043.938      864.013      711.409        0.406        0.181       65.010       25.575        0.155      334.034        3.740      863.759
12/01/2014  06:13:00       81.722       34.610       25.127       44.947       31.362       33.235     2020.273      983.553     1104.597        0.631        0.205       88.749       24.642        0.077      334.022        3.721      863.786
12/01/2014  06:14:00       48.633       24.287       39.789       32.523       30.683       23.058     1057.763      941.453      531.673        0.353        0.127       54.360       19.710        0.131      334.055        3.775      863.809
12/01/2014  06:15:00       62.759        2.758       18.803       45.375       24.168       19.934     2058.882      584.106      397.360        0.367        0.152       62.820       13.446        0.046      334.051        3.768      863.826
12/01/2014  06:16:00       60.654       47.110       22.549       29.201       29.526       17.378      852.689      871.813      301.993        0.422        0.101       76.800       17.975        0.055      334.014        3.708      863.823
12/01/2014  06:17:00       34.733       64.833        0.652       22.995       37.456       19.299      528.765     1402.959      372.441        0.386        0.115       73.551       23.530        0.102      333.995        3.677      863.805
12/01/2014  06:18:00       50.241      101.039        4.169       35.560       43.867       36.891     1264.509     1924.313     1360.970        0.865        0.227      112.841       29.324        0.068      334.002        3.688      863.777
12/01/2014  06:19:00      130.258       90.016        2.806       45.411       35.523       32.098     2062.159     1261.911     1030.290        1.472        0.218      158.335       27.847        0.031      333.970        3.635      863.798
12/01/2014  06:20:00      125.902       71.711       12.855       49.996       33.157       33.106     2499.570     1099.360     1095.994        1.293        0.235      144.892       30.091        0.043      333.961        3.619      863.863
12/01/2014  06:21:00       76.484       66.929       20.037       47.880       36.115       37.561     2292.527     1304.306     1410.853        0.787        0.250      101.633       33.241        0.107      333.954        3.608      863.918
12/01/2014  06:22:00       88.631       56.354       24.143       24.902       25.080       20.580      620.103      629.028      423.535        0.664        0.084      105.030       13.219        0.016      333.941        3.587      863.929
12/01/2014  06:23:00       26.077       24.439       -2.288       15.315       22.879       11.149      234.535      523.453      124.298        0.108        0.044       35.739       11.430        0.102      333.947        3.595      863.914
12/01/2014  06:24:00       14.639       32.019       -7.726       16.075       37.648       14.901      258.392     1417.366      222.046        0.160        0.095       35.207       21.781        0.383      333.940        3.585      863.917
12/01/2014  06:25:00       38.003       14.676       -0.902       19.437       12.923       12.188      377.815      166.999      148.553        0.118        0.035       40.738        7.852        0.037      333.996        3.679      863.947
12/01/2014  06:26:00       20.421       19.585        0.302       16.688       13.368       10.422      278.501      178.694      108.618        0.068        0.028       28.295        8.462        0.089      333.985        3.661      863.982
12/01/2014  06:27:00      -12.316        3.192       -6.988        5.369        5.150        5.439       28.824       26.521       29.579        0.015        0.004       12.723        3.542        0.077      333.954        3.606      864.018
12/01/2014  06:28:00      -29.651       17.972        2.923       25.671       23.914       12.578      658.993      571.891      158.197        0.130        0.069       34.672       14.849        0.183      334.170        3.965      864.033
12/01/2014  06:29:00      -54.850       92.616      -23.355       20.774       27.266       16.687      431.553      743.461      278.450        0.679        0.073      107.640       10.967        0.010      333.991        3.669      864.003
12/01/2014  06:30:00      -54.928      118.782      -19.653       32.673       26.725       18.502     1067.505      714.205      342.322        0.982        0.106      130.868       12.343        0.009      334.123        3.889      863.936
12/01/2014  06:31:00      -29.063      130.160      -14.563       25.353       31.986       20.675      642.763     1023.083      427.468        1.005        0.105      133.365       18.547        0.019      334.242        4.085      863.876
12/01/2014  06:32:00        9.507      125.284       -7.750       28.790       41.615       25.947      828.869     1731.839      673.230        0.954        0.162      125.645       19.962        0.025      334.092        3.838      863.865
12/01/2014  06:33:00       55.883       78.110       -8.928       41.558       34.693       17.927     1727.073     1203.603      321.374        0.628        0.163       96.042       14.736        0.024      333.971        3.638      863.891
12/01/2014  06:34:00       68.921       43.078        0.943       20.954       28.757       22.982      439.071      826.946      528.195        0.420        0.090       81.277       13.001        0.026      333.952        3.606      863.941
12/01/2014  06:35:00       15.651       19.015        8.824       15.734       11.493       10.910      247.569      132.091      119.035        0.059        0.025       24.628        8.288        0.113      334.040        3.753      863.991
12/01/2014  06:36:00       15.370       18.035        7.487       21.319       10.186       12.606      454.482      103.752      158.911        0.067        0.036       23.696        7.999        0.114      334.056        3.777      864.032
12/01/2014  06:37:00       57.082       37.766        4.828       11.973       15.078       12.455      143.361      227.359      155.124        0.262        0.026       68.444        6.894        0.010      334.016        3.712      864.052
12/01/2014  06:38:00       65.428       37.539        9.327       25.568       21.402       18.812      653.735      458.045      353.899        0.362        0.073       75.432       10.020        0.018      333.987        3.664      864.054
12/01/2014  06:39:00       40.115       70.559      -11.048       22.813       26.014       16.711      520.450      676.738      279.270        0.409        0.074       81.165       15.398        0.036      333.932        3.571      864.050
12/01/2014  06:40:00       -2.548       44.799       -6.283       22.813       34.652       15.384      520.416     1200.742      236.653        0.200        0.098       44.871       20.315        0.205      333.951        3.604      864.078
12/01/2014  06:41:00     -105.472      -34.230      -17.829       36.275       32.245       18.951     1315.891     1039.750      359.143        0.766        0.136      110.888       12.132        0.012      334.106        3.860      864.159
12/01/2014  06:42:00      -39.593      -52.712       -2.797       39.255       38.845       21.435     1540.956     1508.956      459.457        0.393        0.175       65.925       16.752        0.065      334.172        3.969      864.218
12/01/2014  06:43:00      -77.141        9.280        2.391       30.409       23.929       13.758      924.690      572.605      189.294        0.386        0.084       77.698       11.692        0.023      334.156        3.943      864.195
12/01/2014  06:44:00       -4.477      103.131       -9.116       38.571       50.833       27.243     1487.758     2584.041      742.167        0.778        0.241      103.228       29.254        0.080      334.120        3.882      864.087
12/01/2014  06:45:00       49.906      107.541      -12.542       36.894       66.187       33.994     1361.197     4380.745     1155.620        1.055        0.345      118.556       39.911        0.113      334.079        3.813      864.008
12/01/2014  06:46:00       57.203       57.791       -7.804       37.563       41.590       35.496     1410.997     1729.753     1259.957        0.554        0.220       81.314       24.160        0.088      334.063        3.788      864.035
12/01/2014  06:47:00       39.430       32.723       -2.475       38.245       13.713       17.465     1462.717      188.054      305.028        0.229        0.098       51.239       21.406        0.175      334.053        3.772      864.120
12/01/2014  06:48:00        7.253       48.523      -13.921       15.654       16.663       10.887      245.038      277.670      118.522        0.162        0.032       49.062       10.101        0.042      334.079        3.816      864.148
12/01/2014  06:49:00        9.265       86.896      -11.113       15.567       15.858       11.665      242.329      251.471      136.080        0.419        0.031       87.389        8.249        0.009      334.020        3.715      864.121
12/01/2014  06:50:00       -9.091       84.282      -17.438       24.898       21.046       11.639      619.889      442.929      135.471        0.434        0.060       84.771        8.965        0.011      334.105        3.858      864.108
12/01/2014  06:51:00      -47.517       30.740       -8.191       23.643       23.185       16.788      558.980      537.540      281.844        0.232        0.069       56.593       16.258        0.083      334.279        4.147      864.138
12/01/2014  06:52:00      -27.430       34.124       -9.173       19.886       22.361       10.072      395.434      500.022      101.452        0.150        0.050       43.782        9.262        0.045      334.206        4.026      864.185
12/01/2014  06:53:00       16.048       42.096       10.072       16.316       18.339       13.417      266.225      336.317      180.018        0.146        0.039       45.051       11.309        0.063      334.123        3.889      864.184
12/01/2014  06:54:00      104.483       77.262        6.004       35.017       25.070       19.292     1226.218      628.481      372.182        0.957        0.111      129.947       13.797        0.011      334.166        3.958      864.131
12/01/2014  06:55:00      138.387       94.011       31.660       51.165       42.678       46.553     2617.830     1821.410     2167.181        1.780        0.330      167.299       34.290        0.042      334.155        3.941      864.072
12/01/2014  06:56:00       54.247       77.706       78.175       44.507       40.452       28.330     1980.865     1636.377      802.598        0.976        0.221       94.767       19.348        0.042      334.165        3.957      864.067
12/01/2014  06:57:00       44.736       28.244       29.360       40.885       27.838       27.075     1671.599      774.966      733.050        0.342        0.159       52.906       20.866        0.156      334.129        3.896      864.121
12/01/2014  06:58:00      -10.387       34.786      -18.823       36.300       30.105       15.027     1317.657      906.283      225.812        0.206        0.122       36.304       13.607        0.140      334.075        3.807      864.197
12/01/2014  06:59:00        6.152        3.677       -9.651       14.601       11.177        7.381      213.203      124.936       54.480        0.027        0.020        7.167        8.703        1.474      334.190        4.000      864.262
12/01/2014  07:00:00        0.361        9.433       23.172       31.765       20.327       14.381     1009.026      413.197      206.822        0.113        0.081        9.440        7.769        0.677      334.311        4.201      864.290
12/01/2014  07:01:00       19.281       19.127        6.332       20.316       19.227       14.134      412.724      369.659      199.777        0.088        0.049       27.159       16.289        0.360      334.263        4.121      864.286
12/01/2014  07:02:00       47.524       39.649       -6.804       27.721       21.607       15.281      768.474      466.845      233.498        0.267        0.073       61.891       14.851        0.058      334.214        4.040      864.255
12/01/2014  07:03:00       31.110       48.240       30.881       29.849       24.398       24.078      890.979      595.258      579.754        0.316        0.103       57.401       20.881        0.132      334.255        4.109      864.239
12/01/2014  07:04:00       36.974       49.180       49.014       34.394       25.725       30.680     1182.924      661.767      941.245        0.449        0.139       61.528       20.648        0.113      334.239        4.080      864.234
12/01/2014  07:05:00       33.892       40.766       32.514       25.276       26.783       21.332      638.887      717.336      455.053        0.284        0.091       53.015       14.822        0.078      334.203        4.022      864.250
12/01/2014  07:06:00        7.982       20.501       21.430       15.875       12.125        9.089      252.023      147.006       82.609        0.071        0.024       22.000        5.663        0.066      334.189        3.999      864.266
12/01/2014  07:07:00       30.459       30.456        9.547        7.612        8.545       10.487       57.946       73.022      109.986        0.109        0.012       43.074        4.090        0.009      334.173        3.975      864.275
12/01/2014  07:08:00       43.787       39.056        5.001        7.734        6.371        8.741       59.812       40.586       76.404        0.182        0.009       58.674        2.431        0.002      334.200        4.018      864.279
12/01/2014  07:09:00       56.990       35.956       10.301       16.494        7.192       10.230      272.037       51.723      104.650        0.254        0.021       67.384        7.836        0.014      334.247        4.095      864.275
12/01/2014  07:10:00       64.670       60.212       20.950       22.851       21.040       20.790      522.149      442.677      432.212        0.482        0.070       88.361       15.885        0.032      334.276        4.142      864.258
12/01/2014  07:11:00       67.110       58.965       45.964       51.758       34.281       26.287     2678.881     1175.202      690.995        0.732        0.227       89.334       22.143        0.061      334.276        4.142      864.227
12/01/2014  07:12:00       99.812      104.094       61.146       43.115       35.478       36.806     1858.929     1258.662     1354.662        1.450        0.224      144.215       31.125        0.047      334.154        3.939      864.190
12/01/2014  07:13:00       96.310       92.961       69.293       48.310       52.429       40.552     2333.848     2748.824     1644.449        1.472        0.336      133.856       31.995        0.057      334.112        3.870      864.186
12/01/2014  07:14:00       33.859       24.971       42.052       42.110       36.349       28.191     1773.212     1321.259      794.750        0.371        0.194       42.072       24.377        0.336      334.122        3.887      864.217
12/01/2014  07:15:00       13.695        4.540        8.237       15.678       11.016       12.466      245.806      121.346      155.398        0.040        0.026       14.427        8.215        0.324      334.126        3.892      864.290
12/01/2014  07:16:00       -9.436       16.593       -0.621        8.687       10.478        9.225       75.458      109.782       85.104        0.032        0.014       19.088        7.120        0.139      334.086        3.824      864.346
12/01/2014  07:17:00      -13.302       32.259      -12.860        9.617       10.038        9.673       92.491      100.767       93.559        0.083        0.014       34.894        6.460        0.034      334.103        3.854      864.343
12/01/2014  07:18:00       19.158       57.550       -7.911       14.096       20.362       17.177      198.704      414.608      295.034        0.232        0.045       60.655       11.965        0.039      334.106        3.860      864.314
12/01/2014  07:19:00       30.509       14.030        5.995       19.238       19.386       22.848      370.117      375.830      522.043        0.122        0.063       33.580       15.201        0.205      334.223        4.053      864.347
12/01/2014  07:20:00       52.204      -67.064        0.401       56.781       68.375       45.741     3224.047     4675.163     2092.271        0.861        0.500       84.987       47.500        0.312      334.224        4.055      864.409
12/01/2014  07:21:00        2.196       64.922      117.177       39.795       54.791       28.004     1583.611     3002.057      784.200        1.166        0.268       64.959       31.625        0.237      334.301        4.183      864.437
12/01/2014  07:22:00       92.627       84.919       76.703       91.785       52.683       44.218     8424.396     2775.509     1955.275        1.741        0.658      125.662       51.654        0.169      334.222        4.051      864.397
12/01/2014  07:23:00      176.162      110.288       36.405       51.425       40.376       44.473     2644.549     1630.252     1977.862        2.539        0.313      207.838       25.082        0.015      334.105        3.853      864.329
12/01/2014  07:24:00      208.186      101.642       14.839       52.347       46.431       40.107     2740.158     2155.883     1608.549        3.020        0.325      231.674       34.179        0.022      334.088        3.824      864.271
12/01/2014  07:25:00      199.403       99.743       25.456       50.311       44.792       44.979     2531.229     2006.354     2023.092        2.846        0.328      222.958       27.706        0.015      334.058        3.776      864.280
12/01/2014  07:26:00       69.142       56.379       43.499       48.043       39.867       34.229     2308.103     1589.370     1171.608        0.746        0.253       89.214       26.723        0.090      334.092        3.837      864.391
12/01/2014  07:27:00       35.067        4.454       29.560       32.846       57.407       30.266     1078.848     3295.558      916.027        0.371        0.265       35.349       34.217        0.937      334.097        3.844      864.557
12/01/2014  07:28:00       83.622     -104.042       -8.384       39.972       65.257       34.063     1597.753     4258.420     1160.311        1.245        0.351      133.482       35.216        0.070      334.173        3.971      864.648
12/01/2014  07:29:00       56.472       25.018       36.827       35.706       50.493       36.547     1274.949     2549.542     1335.684        0.516        0.258       61.765       18.806        0.093      334.127        3.894      864.636
12/01/2014  07:30:00      203.549       91.796       39.792       64.018       71.165       48.907     4098.244     5064.401     2391.874        3.150        0.578      223.290       29.173        0.017      333.966        3.625      864.524
12/01/2014  07:31:00      220.137       92.357       31.554       85.849       70.137       52.159     7370.131     4919.154     2720.596        3.649        0.750      238.726       39.961        0.028      333.902        3.518      864.445
12/01/2014  07:32:00      125.927       42.652       25.586       60.038       74.906       38.133     3604.566     5610.869     1454.160        1.450        0.533      132.954       31.391        0.056      333.895        3.509      864.483
12/01/2014  07:33:00       73.118       -1.351       15.089       32.042       40.659       26.245     1026.687     1653.130      688.825        0.447        0.168       73.131       21.640        0.088      333.899        3.516      864.576
12/01/2014  07:34:00       56.571      -42.173        3.353       37.005       29.103       18.314     1369.352      846.956      335.385        0.377        0.128       70.561        4.172        0.003      333.906        3.528      864.615
12/01/2014  07:35:00       58.914       66.842        1.535       50.619       44.988       37.506     2562.302     2023.938     1406.696        0.697        0.300       89.099       25.786        0.084      333.931        3.570      864.571
12/01/2014  07:36:00      134.144      113.189       33.443       41.010       30.636       30.216     1681.809      938.554      913.014        1.773        0.177      175.517       19.675        0.013      333.959        3.616      864.499
12/01/2014  07:37:00      130.292      118.947       83.848       76.837       48.093       44.719     5903.984     2312.936     1999.781        2.418        0.511      176.421       35.996        0.042      333.942        3.586      864.477
12/01/2014  07:38:00       71.509       70.797       80.122       70.602       44.478       37.082     4984.602     1978.325     1375.075        1.244        0.417      100.627       41.981        0.174      333.927        3.563      864.528
12/01/2014  07:39:00       56.212      -57.814       16.054       38.546       98.189       46.462     1485.793     9641.082     2158.729        1.002        0.664       80.636       61.512        0.582      334.054        3.774      864.598
12/01/2014  07:40:00       86.953     -128.848      -19.594       34.010       33.243       19.644     1156.697     1105.084      385.876        1.360        0.132      155.443       10.681        0.005      334.032        3.736      864.648
12/01/2014  07:41:00       98.036     -120.113      -18.940       36.367       26.923       19.403     1322.540      724.847      376.484        1.341        0.121      155.043       14.543        0.009      333.946        3.594      864.649
12/01/2014  07:42:00       25.999        3.528       36.886       38.405       54.182       33.530     1474.971     2935.728     1124.246        0.379        0.277       26.237       31.963        1.484      334.155        3.941      864.622
12/01/2014  07:43:00        7.666       48.776       67.229       28.887       34.113       21.378      834.450     1163.667      457.005        0.471        0.123       49.375       19.788        0.161      334.125        3.891      864.565
12/01/2014  07:44:00      117.282       65.438        7.243       47.857       32.306       29.398     2290.323     1043.666      864.221        1.114        0.210      134.303       12.946        0.009      334.018        3.714      864.505
12/01/2014  07:45:00      124.902       74.553        4.558       48.937       28.884       31.372     2394.801      834.271      984.219        1.270        0.211      145.461       31.808        0.048      333.979        3.650      864.502
12/01/2014  07:46:00       14.280      -19.671        6.528       38.982       66.572       18.424     1519.560     4431.807      339.445        0.346        0.315       24.308        6.794        0.078      334.082        3.819      864.562
12/01/2014  07:47:00        9.159      -40.984        1.988       21.738       31.963       14.034      472.561     1021.647      196.950        0.173        0.085       41.995       16.139        0.148      334.016        3.711      864.628
12/01/2014  07:48:00       -2.708       33.574       -9.889       16.567       19.271       11.514      274.477      371.370      132.580        0.101        0.039       33.683        2.323        0.005      333.964        3.625      864.640
12/01/2014  07:49:00       21.093       43.533       13.671       20.963       21.743       22.420      439.461      472.762      502.673        0.197        0.071       48.374       17.998        0.138      334.009        3.700      864.591
12/01/2014  07:50:00       33.696       79.881       -7.578       24.192       34.534       29.267      585.233     1192.581      856.559        0.510        0.132       86.697       22.369        0.067      334.004        3.692      864.534
12/01/2014  07:51:00       77.597       60.130        0.032       39.131       24.395       25.040     1531.243      595.101      626.987        0.619        0.138       98.168       15.863        0.026      334.007        3.697      864.526
12/01/2014  07:52:00       21.770       10.527        9.902       33.575       56.186       24.747     1127.292     3156.867      612.395        0.279        0.245       24.181       25.915        1.149      334.092        3.836      864.605
12/01/2014  07:53:00       35.153      -48.779        5.369       44.544       38.478       24.633     1984.183     1480.557      606.807        0.386        0.204       60.126       27.521        0.210      334.155        3.942      864.698
12/01/2014  07:54:00        1.725       30.917       43.171       33.165       41.689       26.026     1099.944     1737.996      677.367        0.317        0.176       30.965       29.174        0.888      334.147        3.927      864.735
12/01/2014  07:55:00        1.798       13.849       46.898       20.129       37.840       25.886      405.180     1431.854      670.064        0.245        0.125       13.966       23.172        2.753      334.288        4.161      864.726
12/01/2014  07:56:00       53.116       51.967       52.493       38.407       34.738       30.318     1475.082     1206.744      919.185        0.594        0.180       74.310       29.570        0.158      334.171        3.967      864.700
12/01/2014  07:57:00       63.517       16.375       12.243       26.080       20.248       22.156      680.180      409.984      490.873        0.302        0.079       65.594       16.355        0.062      334.173        3.970      864.669
12/01/2014  07:58:00       15.924       25.150        8.914       24.460       31.240       22.125      598.295      975.908      489.515        0.151        0.103       29.768       16.768        0.317      334.243        4.088      864.678
12/01/2014  07:59:00       10.740       20.773       24.842       16.339       15.574       12.904      266.950      242.535      166.517        0.092        0.034       23.385       11.884        0.258      334.303        4.187      864.726
12/01/2014  08:00:00        1.676        2.518       19.418        8.193       11.816        6.748       67.118      139.613       45.531        0.032        0.013        3.025        5.820        3.703      334.351        4.266      864.775
12/01/2014  08:01:00       -0.637       -1.286       12.663       10.215       20.873       15.953      104.341      435.686      254.498        0.048        0.040        1.435       13.437       87.717      334.457        4.444      864.797
12/01/2014  08:02:00       31.803       31.699       42.807       25.314       25.159       14.729      640.809      632.975      216.947        0.267        0.075       44.903        9.527        0.045      334.364        4.288      864.769
12/01/2014  08:03:00       41.734       39.413       12.164       27.716       26.393       25.130      768.149      696.568      631.536        0.277        0.105       57.403       18.645        0.106      334.292        4.170      864.743
12/01/2014  08:04:00       19.980       16.138        2.740       26.786       24.322       15.355      717.478      591.569      235.773        0.111        0.077       25.683       10.411        0.164      334.371        4.302      864.758
12/01/2014  08:05:00       27.229       38.227        1.061       20.330       26.687       16.508      413.324      712.171      272.518        0.180        0.070       46.933       11.839        0.064      334.327        4.227      864.814
12/01/2014  08:06:00        3.881       39.310       -6.691       11.856       16.329       10.941      140.562      266.641      119.715        0.107        0.026       39.502        7.145        0.033      334.260        4.115      864.893
12/01/2014  08:07:00      -31.990        2.728       -3.464       29.543       30.676       12.773      872.805      940.995      163.139        0.151        0.099       32.106       11.569        0.130      334.371        4.300      864.953
12/01/2014  08:08:00     -100.668      -63.713       -4.789       37.561       30.744       21.565     1410.804      945.175      465.043        0.852        0.141      119.136       11.500        0.009      334.435        4.406      865.010
12/01/2014  08:09:00     -109.100      -61.750      -11.103       24.967       22.377       12.130      623.371      500.718      147.128        0.855        0.064      125.363        8.984        0.005      334.381        4.317      865.032
12/01/2014  08:10:00      -36.370       -8.459       -2.701       25.797       29.557       17.220      665.487      873.592      296.542        0.162        0.092       37.341       16.498        0.195      334.524        4.554      865.005
12/01/2014  08:11:00       17.619       22.520       18.845       27.032       21.686       21.052      730.750      470.284      443.182        0.141        0.082       28.593        4.913        0.030      334.578        4.644      864.959
12/01/2014  08:12:00       79.553       50.999       -2.080       39.794       34.565       26.752     1583.591     1194.771      715.690        0.621        0.175       94.496       16.034        0.029      334.451        4.434      864.893
12/01/2014  08:13:00      145.019       83.125        2.475       53.650       24.957       29.399     2878.272      622.840      864.282        1.615        0.218      167.153        3.164        0.000      334.360        4.280      864.866
12/01/2014  08:14:00      119.683       75.058        7.039       39.185       27.529       32.172     1535.470      757.868     1035.028        1.167        0.166      141.272       21.217        0.023      334.341        4.250      864.887
12/01/2014  08:15:00       76.322       50.778       25.190       30.348       35.373       26.265      921.017     1251.246      689.851        0.595        0.143       91.670       13.886        0.023      334.389        4.331      864.935
12/01/2014  08:16:00       31.448       34.532       14.749       21.297       17.047       21.253      453.580      290.583      451.686        0.180        0.060       46.706       10.119        0.047      334.391        4.335      864.989
12/01/2014  08:17:00        0.431        8.322       11.825       11.718       20.550       21.081      137.320      422.319      444.393        0.061        0.050        8.334       14.504        3.029      334.489        4.495      865.015
12/01/2014  08:18:00        9.938       10.132       21.235       32.557       25.124       14.350     1059.956      631.201      205.927        0.127        0.095       14.193       11.573        0.665      334.471        4.467      865.007
12/01/2014  08:19:00       77.399       53.659       14.829       17.728       11.580       12.044      314.283      134.103      145.064        0.484        0.030       94.180        8.381        0.008      334.306        4.194      864.982
12/01/2014  08:20:00       64.530       41.618        4.308       33.616       33.477       24.961     1130.051     1120.692      623.075        0.439        0.144       76.787       12.874        0.028      334.381        4.316      864.932
12/01/2014  08:21:00       64.483       54.394        6.987       38.383       29.500       28.482     1473.250      870.229      811.233        0.516        0.158       84.361       16.595        0.039      334.463        4.452      864.907
12/01/2014  08:22:00       60.126       55.361        1.126       33.576       21.215       20.536     1127.375      450.079      421.710        0.434        0.100       81.731       12.627        0.024      334.418        4.378      864.928
12/01/2014  08:23:00       -2.556       33.277       -1.263       15.328       20.700       13.817      234.939      428.484      190.919        0.098        0.043       33.375       10.663        0.102      334.460        4.449      864.972
12/01/2014  08:24:00       -3.045       28.573       -9.345       12.452       15.173        9.598      155.062      230.206       92.128        0.070        0.024       28.735        7.490        0.068      334.438        4.411      865.017
12/01/2014  08:25:00        9.981       21.862       -3.561       14.795       14.694       14.055      218.896      215.924      197.546        0.061        0.032       24.032        7.641        0.101      334.487        4.491      865.042
12/01/2014  08:26:00       27.780       29.998       20.613       28.836       13.594       16.513      831.533      184.805      272.679        0.169        0.064       40.885       11.341        0.077      334.486        4.490      865.059
12/01/2014  08:27:00       22.578       41.624       44.308       22.824       25.561       19.463      520.920      653.363      378.816        0.288        0.078       47.353        9.044        0.036      334.571        4.631      865.044
12/01/2014  08:28:00       27.041       66.489       63.211       31.007       34.563       23.070      961.411     1194.628      532.220        0.592        0.134       71.777       17.330        0.058      334.481        4.482      865.015
12/01/2014  08:29:00       38.458       71.305       58.113       42.056       33.947       36.261     1768.744     1152.390     1314.896        0.709        0.212       81.015       32.664        0.163      334.494        4.503      865.022
12/01/2014  08:30:00       36.525       54.089       61.399       53.213       34.193       49.703     2831.578     1169.185     2470.399        0.725        0.324       65.266       43.434        0.443      334.536        4.572      865.039
12/01/2014  08:31:00       50.423       97.887       92.347       53.626       44.272       35.864     2875.706     1960.006     1286.204        1.339        0.306      110.111       34.876        0.100      334.489        4.493      865.076
12/01/2014  08:32:00        2.753       93.000      119.018       39.848       50.478       33.107     1587.867     2548.041     1096.089        1.403        0.262       93.040       35.259        0.144      334.556        4.606      865.104
12/01/2014  08:33:00       42.142       34.233       73.067       52.689       56.018       42.503     2776.175     3138.019     1806.480        0.800        0.386       54.294       41.546        0.586      334.562        4.615      865.097
12/01/2014  08:34:00       45.600       16.408       27.814       29.186       38.234       26.549      851.850     1461.811      704.841        0.307        0.151       48.462       14.990        0.096      334.537        4.573      865.078
12/01/2014  08:35:00       57.731       24.990       10.530       42.812       32.715       25.778     1832.857     1070.295      664.495        0.382        0.178       62.907       14.394        0.052      334.426        4.392      865.034
12/01/2014  08:36:00       50.181       28.595       47.907       24.792       23.862       22.290      614.655      569.405      496.852        0.366        0.084       57.757       15.160        0.069      334.369        4.297      865.024
12/01/2014  08:37:00       28.574       60.555       66.512       27.101       42.299       31.117      734.452     1789.176      968.295        0.620        0.175       66.958       33.045        0.244      334.417        4.377      865.049
12/01/2014  08:38:00       55.247      103.918       87.811       46.047       35.401       25.626     2120.316     1253.212      656.699        1.280        0.202      117.691       24.642        0.044      334.432        4.401      865.081
12/01/2014  08:39:00       13.420       68.606       95.845       40.057       57.483       34.828     1604.533     3304.285     1213.002        1.010        0.306       69.906       37.026        0.281      334.534        4.569      865.075
12/01/2014  08:40:00       55.613       76.483       92.977       60.381       67.988       50.976     3645.806     4622.399     2598.592        1.422        0.543       94.565       54.260        0.329      334.475        4.470      865.073
12/01/2014  08:41:00       65.747       75.258       67.862       49.300       33.091       33.326     2430.527     1095.009     1110.654        0.961        0.232       99.933       30.113        0.091      334.475        4.472      865.075
12/01/2014  08:42:00       99.548       56.194       20.522       42.704       28.891       29.234     1823.599      834.700      854.639        0.850        0.176      114.313       21.130        0.034      334.471        4.466      865.077
12/01/2014  08:43:00       75.265       63.894       49.391       34.908       34.831       28.008     1218.552     1213.206      784.422        0.770        0.161       98.728       23.539        0.057      334.477        4.477      865.093
12/01/2014  08:44:00       59.858       54.676       42.166       30.158       21.472       21.074      909.518      461.045      444.127        0.508        0.091       81.071       15.519        0.037      334.502        4.518      865.124
12/01/2014  08:45:00       85.488       64.207       37.311       32.302       37.295       35.122     1043.393     1390.927     1233.525        0.824        0.183      106.915       27.814        0.068      334.438        4.410      865.152
12/01/2014  08:46:00       43.238       41.842       39.807       45.353       60.500       25.513     2056.902     3660.306      650.920        0.579        0.318       60.169       14.654        0.059      334.582        4.650      865.154
12/01/2014  08:47:00       95.234       73.397       54.522       59.224       54.274       40.398     3507.525     2945.661     1632.014        1.276        0.404      120.235       37.846        0.099      334.556        4.606      865.130
12/01/2014  08:48:00      144.998       89.338       50.236       40.264       40.089       34.915     1621.214     1607.110     1219.085        1.799        0.222      170.311       24.498        0.021      334.444        4.421      865.089
12/01/2014  08:49:00       45.784       35.944       48.503       47.390       27.803       28.218     2245.840      772.983      796.265        0.478        0.191       58.208       24.292        0.174      334.442        4.417      865.084
12/01/2014  08:50:00       81.406       43.495       12.582       34.462       28.245       26.614     1187.632      797.766      708.321        0.568        0.135       92.297       14.818        0.026      334.467        4.459      865.137
12/01/2014  08:51:00       14.152      -13.873       14.057       18.030       39.234       24.799      325.085     1539.274      614.974        0.153        0.124       19.818       17.785        0.805      334.660        4.779      865.201
12/01/2014  08:52:00       63.042      -74.508       -5.722       36.637       44.513       32.436     1342.295     1981.433     1052.104        0.697        0.219       97.600       26.902        0.076      334.668        4.792      865.252
12/01/2014  08:53:00       72.217      -75.497      -16.037       26.271       28.910       22.273      690.175      835.806      496.092        0.660        0.101      104.475       17.456        0.028      334.564        4.619      865.272
12/01/2014  08:54:00       51.573       25.330       29.585       42.876       37.400       27.761     1838.332     1398.787      770.694        0.409        0.200       57.457       28.134        0.240      334.642        4.750      865.262
12/01/2014  08:55:00       64.145       39.352       -4.886       28.637       24.969       26.664      820.074      623.455      710.975        0.392        0.108       75.254        7.300        0.009      334.570        4.630      865.250
12/01/2014  08:56:00       58.734       38.354       16.921       28.100       29.530       23.068      789.626      872.049      532.133        0.370        0.110       70.148       11.980        0.029      334.641        4.748      865.231
12/01/2014  08:57:00       64.857       45.700        8.584       30.709       28.977       21.111      943.040      839.642      445.682        0.430        0.111       79.340       19.154        0.058      334.654        4.770      865.204
12/01/2014  08:58:00       74.785       56.202        4.944       46.834       38.413       30.512     2193.388     1475.572      930.980        0.669        0.230       93.550       28.459        0.093      334.639        4.744      865.177
12/01/2014  08:59:00       91.734       61.332       10.601       33.630       28.904       23.873     1130.969      835.435      569.928        0.741        0.127      110.348        8.311        0.006      334.596        4.671      865.186
12/01/2014  09:00:00       86.602       45.092       16.755       34.135       28.212       28.479     1165.173      795.941      811.065        0.629        0.139       97.638       23.212        0.057      334.677        4.806      865.230
12/01/2014  09:01:00       44.886       42.448       46.676       26.221       23.732       21.097      687.535      563.190      445.102        0.385        0.085       61.778       10.161        0.027      334.722        4.882      865.279
12/01/2014  09:02:00       40.548       44.362       24.791       14.771       12.612       19.755      218.169      159.065      390.260        0.250        0.038       60.101       10.291        0.029      334.629        4.728      865.292
12/01/2014  09:03:00       19.362       32.197       26.030       14.894       12.485       11.270      221.829      155.873      127.019        0.130        0.025       37.570        7.703        0.042      334.731        4.897      865.268
12/01/2014  09:04:00       28.449       29.059        0.661       16.891       17.072       15.513      285.301      291.444      240.650        0.124        0.041       40.667        8.299        0.042      334.802        5.014      865.229
12/01/2014  09:05:00       92.642       62.537       12.338       34.122       30.355       26.960     1164.317      921.423      726.839        0.773        0.141      111.774       19.586        0.031      334.753        4.931      865.195
12/01/2014  09:06:00       81.321       32.985        8.968       44.042       36.483       25.018     1939.689     1331.018      625.903        0.584        0.195       87.756       17.330        0.039      334.806        5.020      865.195
12/01/2014  09:07:00       81.307       42.448       -4.472       32.726       26.959       22.899     1070.985      726.765      524.352        0.538        0.116       91.721       17.735        0.037      334.734        4.901      865.230
12/01/2014  09:08:00       71.920       44.893       -7.917       33.453       27.621       17.203     1119.125      762.941      295.954        0.471        0.109       84.781       15.277        0.032      334.792        4.998      865.261
12/01/2014  09:09:00       41.352       37.331        8.507       29.722       22.085       21.064      883.398      487.725      443.708        0.250        0.091       55.710       12.438        0.050      334.931        5.229      865.269
12/01/2014  09:10:00       34.026       37.674        2.092       24.833       24.608       18.360      616.673      605.552      337.073        0.207        0.078       50.765       13.917        0.075      334.930        5.229      865.291
12/01/2014  09:11:00       49.240       33.146      -10.507       19.337       24.592       15.745      373.907      604.780      247.918        0.243        0.061       59.356        9.233        0.024      334.885        5.152      865.318
12/01/2014  09:12:00       40.320       40.258       -3.044       24.248       18.502       18.700      587.982      342.322      349.687        0.227        0.064       56.977       10.852        0.036      334.975        5.304      865.349
12/01/2014  09:13:00       52.026       37.266       35.081       42.922       20.053       20.148     1842.309      402.120      405.947        0.399        0.133       63.996       16.221        0.064      334.982        5.315      865.372
12/01/2014  09:14:00       79.224       52.986       30.576       26.603       19.192       28.361      707.734      368.328      804.352        0.595        0.094       95.310       17.653        0.034      334.859        5.110      865.382
12/01/2014  09:15:00       69.973       45.149       26.926       48.346       23.848       28.785     2337.372      568.744      828.602        0.570        0.187       83.274       19.701        0.056      334.928        5.222      865.374
12/01/2014  09:16:00       42.638       64.970       60.168       54.410       31.180       28.220     2960.422      972.199      796.370        0.719        0.236       77.712       25.724        0.110      334.985        5.318      865.346
12/01/2014  09:17:00      155.866       73.541       26.793       44.596       34.259       30.461     1988.777     1173.707      927.860        1.725        0.205      172.344       24.190        0.020      334.784        4.984      865.320
12/01/2014  09:18:00      118.009       62.923       27.370       46.619       34.038       37.860     2173.290     1158.592     1433.371        1.170        0.238      133.737       30.386        0.052      334.775        4.969      865.327
12/01/2014  09:19:00      107.278       72.770       32.988       47.604       37.692       33.181     2266.136     1420.706     1100.987        1.134        0.239      129.631       25.181        0.038      334.820        5.044      865.377
12/01/2014  09:20:00       26.156       25.729       36.964       44.895       33.192       27.056     2015.529     1101.706      732.052        0.328        0.192       36.689       27.014        0.542      335.015        5.369      865.432
12/01/2014  09:21:00       39.010      -86.569       -8.301       52.538       40.681       28.502     2760.247     1654.971      812.345        0.716        0.261       94.953       28.081        0.087      335.155        5.601      865.489
12/01/2014  09:22:00       69.939      -34.938        7.758       47.486       69.965       35.858     2254.893     4895.045     1285.781        0.730        0.422       78.180       51.920        0.441      334.947        5.255      865.519
12/01/2014  09:23:00       24.083       20.447       43.167       29.834       25.572       23.113      890.059      653.916      534.232        0.247        0.104       31.592       20.459        0.419      335.032        5.396      865.529
12/01/2014  09:24:00       87.828       60.377       27.474       38.287       25.656       27.308     1465.914      658.249      745.703        0.749        0.143      106.580       21.889        0.042      335.014        5.368      865.507
12/01/2014  09:25:00      102.445       67.769       29.203       20.339       14.955       25.853      413.684      223.666      668.382        0.862        0.065      122.831       12.498        0.010      334.936        5.237      865.487
12/01/2014  09:26:00       83.971       20.108       33.948       19.251       36.895       30.639      370.611     1361.257      938.741        0.564        0.134       86.345       20.841        0.058      334.891        5.163      865.486
12/01/2014  09:27:00       16.204      -31.047        7.766       23.454       39.222       15.168      550.100     1538.403      230.078        0.180        0.116       35.021       16.945        0.234      334.899        5.177      865.489
12/01/2014  09:28:00       20.808       -2.124       25.091       31.722       38.261       12.245     1006.279     1463.941      149.931        0.184        0.131       20.916        9.804        0.220      335.085        5.485      865.514
12/01/2014  09:29:00       22.399       15.423       11.430       24.083       20.791       15.734      580.004      432.247      247.564        0.106        0.063       27.195       11.524        0.180      335.035        5.402      865.528
12/01/2014  09:30:00       18.085       44.111       -7.736       16.737       19.123       10.596      280.122      365.675      112.278        0.155        0.038       47.675        5.771        0.015      335.015        5.369      865.528
12/01/2014  09:31:00       16.357       61.103       -9.030       21.581       31.534       15.189      465.723      994.387      230.709        0.289        0.085       63.254       12.269        0.038      335.140        5.576      865.529
12/01/2014  09:32:00       25.474       38.074       -2.910       28.578       38.587       22.172      816.709     1488.968      491.612        0.245        0.140       45.810       15.074        0.108      335.142        5.581      865.522
12/01/2014  09:33:00       20.299      103.318       -9.386       15.341       24.990       16.641      235.337      624.491      276.926        0.616        0.057      105.294       15.199        0.021      334.928        5.224      865.523
12/01/2014  09:34:00      -16.390       65.320      -19.204       17.618       25.073       15.173      310.393      628.633      230.225        0.304        0.058       67.345       12.122        0.032      334.903        5.182      865.506
12/01/2014  09:35:00       14.371       59.564      -13.255       19.332       20.391       17.241      373.732      415.797      297.252        0.251        0.054       61.274        7.058        0.013      335.050        5.427      865.480
12/01/2014  09:36:00       76.681       72.434        2.293       47.469       36.365       29.244     2253.327     1322.415      855.228        0.778        0.222      105.483       21.919        0.043      335.016        5.371      865.488
12/01/2014  09:37:00       52.811       48.151        4.324       30.548       25.044       33.304      933.198      627.219     1109.146        0.390        0.133       71.467       17.008        0.057      335.018        5.375      865.506
12/01/2014  09:38:00       42.589       53.798        2.122       32.912       23.154       22.166     1083.176      536.102      491.325        0.341        0.106       68.615       17.718        0.067      335.050        5.426      865.538
12/01/2014  09:39:00       55.011       50.941       -1.550       28.042       21.755       17.145      786.348      473.270      293.941        0.359        0.078       74.975        7.716        0.011      334.992        5.330      865.555
12/01/2014  09:40:00       67.446       68.986        2.645       35.277       25.386       27.727     1244.432      644.463      768.790        0.599        0.133       96.478       19.814        0.042      335.044        5.418      865.545
12/01/2014  09:41:00       48.955       68.196        7.493       35.541       37.648       27.009     1263.169     1417.342      729.489        0.526        0.171       83.948       22.462        0.072      335.156        5.601      865.535
12/01/2014  09:42:00       31.685       99.885       -3.930       26.563       34.559       27.938      705.615     1194.310      780.531        0.684        0.134      104.790       21.152        0.041      335.120        5.543      865.543
12/01/2014  09:43:00       52.833       25.468        6.438       29.179       32.125       20.738      851.396     1032.001      430.085        0.290        0.116       58.651       19.114        0.106      335.067        5.455      865.586
12/01/2014  09:44:00       59.168       45.259        1.615       31.519       21.289       21.063      993.446      453.211      443.651        0.372        0.095       74.493       12.517        0.028      335.118        5.540      865.614
12/01/2014  09:45:00       79.148       64.235       -5.557       22.968       23.407       13.337      527.527      547.897      177.879        0.584        0.063      101.933        7.596        0.006      334.981        5.312      865.628
12/01/2014  09:46:00       62.206       33.543       -1.883       21.490       15.099       13.870      461.802      227.983      192.382        0.294        0.044       70.674       10.932        0.024      335.017        5.372      865.615
12/01/2014  09:47:00       71.084       42.349        4.632       42.649       23.146       19.198     1818.913      535.733      368.548        0.479        0.136       82.743       18.694        0.051      335.118        5.539      865.586
12/01/2014  09:48:00       18.974       56.724       44.693       37.183       38.843       35.594     1382.597     1508.760     1266.931        0.487        0.208       59.813       25.880        0.187      335.319        5.873      865.548
12/01/2014  09:49:00       54.793       39.190       46.585       35.606       26.461       28.918     1267.768      700.160      836.279        0.476        0.140       67.366       24.405        0.131      335.215        5.701      865.551
12/01/2014  09:50:00       34.768       28.373       27.755       30.486       33.640       30.380      929.386     1131.647      922.972        0.288        0.149       44.876       20.266        0.204      335.170        5.626      865.572
12/01/2014  09:51:00       15.206      -18.243       11.104       17.881       38.378       21.722      319.716     1472.848      471.851        0.148        0.113       23.750       22.976        0.936      335.294        5.832      865.594
12/01/2014  09:52:00       51.145       61.651       -9.057       21.386       22.380       18.179      457.346      500.851      330.491        0.389        0.064       80.104       14.482        0.033      335.081        5.479      865.600
12/01/2014  09:53:00       23.848       57.413       -8.297       11.721       20.987       18.806      137.385      440.444      353.666        0.243        0.047       62.169       16.363        0.069      335.076        5.471      865.573
12/01/2014  09:54:00        3.073       52.364      -13.892       19.173       26.749       15.417      367.592      715.528      237.689        0.213        0.066       52.454        6.386        0.015      335.093        5.500      865.547
12/01/2014  09:55:00       -6.744       64.045      -10.188       11.408       36.209       12.525      130.140     1311.105      156.867        0.292        0.080       64.399       13.847        0.046      335.110        5.528      865.529
12/01/2014  09:56:00      -57.983      -10.240        2.411       39.985       22.220       16.466     1598.827      493.708      271.144        0.292        0.118       58.880       13.514        0.053      335.228        5.721      865.538
12/01/2014  09:57:00      -95.090        4.495       -3.000       26.839       30.086       17.754      720.349      905.167      315.222        0.551        0.097       95.196       10.683        0.013      335.458        6.105      865.546
12/01/2014  09:58:00      -41.761      -14.049       -4.809       24.581       16.613       16.422      604.240      275.983      269.673        0.156        0.057       44.061        8.899        0.041      335.192        5.663      865.546
12/01/2014  09:59:00        0.125      -15.983      -16.667       24.732       33.022       15.670      611.690     1090.434      245.535        0.124        0.097       15.984       12.376        0.600      335.213        5.697      865.529
12/01/2014  10:00:00       13.920       18.177      -12.112       12.871       23.278       14.060      165.672      541.882      197.685        0.079        0.045       22.895        8.576        0.140      335.195        5.668      865.528
12/01/2014  10:01:00       15.284       11.545       -9.294       11.038       16.514        7.007      121.840      272.709       49.103        0.045        0.022       19.154        3.694        0.037      335.192        5.662      865.521
12/01/2014  10:02:00        1.143       79.129      -15.663       17.636       65.350       15.897      311.032     4270.615      252.720        0.567        0.242       79.137       23.619        0.089      335.186        5.651      865.515
12/01/2014  10:03:00       -1.441      107.455      -22.264       15.515       19.910        8.660      240.705      396.391       74.988        0.638        0.036      107.465        5.420        0.003      335.122        5.547      865.518
12/01/2014  10:04:00       -0.522       35.709        5.435       46.357       29.412       18.539     2148.925      865.045      343.702        0.233        0.168       35.712       14.849        0.173      335.466        6.119      865.537
12/01/2014  10:05:00      -59.622       20.305      -25.685       29.071       42.057       17.814      845.137     1768.787      317.321        0.378        0.147       62.984       19.008        0.091      335.195        5.666      865.563
12/01/2014  10:06:00        1.708      -37.022        6.908       43.262       23.179       20.911     1871.623      537.254      437.288        0.213        0.142       37.062       16.710        0.203      335.292        5.829      865.605
12/01/2014  10:07:00      -87.835      -35.570       -9.000       39.587       26.520       15.812     1567.107      703.311      250.011        0.579        0.126       94.764       13.177        0.019      335.255        5.766      865.638
12/01/2014  10:08:00     -121.203      -30.939      -13.665       26.211       23.740       19.056      687.019      563.571      363.150        0.872        0.081      125.089       12.418        0.010      335.199        5.673      865.656
12/01/2014  10:09:00     -135.492      -16.391       -3.882       52.933       38.645       30.886     2801.927     1493.414      953.970        1.194        0.262      136.480       30.746        0.051      335.372        5.962      865.648
12/01/2014  10:10:00     -142.576      -59.872       -6.450       41.843       24.249       19.330     1750.866      587.998      373.638        1.333        0.136      154.637       24.709        0.026      335.208        5.686      865.633
12/01/2014  10:11:00      -63.589       -3.281       -0.999       59.224       33.317       27.964     3507.531     1110.017      781.973        0.473        0.270       63.673       30.562        0.230      335.701        6.511      865.624
12/01/2014  10:12:00      -80.085        9.390       -9.609       38.212       35.978       23.185     1460.158     1294.407      537.553        0.494        0.165       80.633       23.206        0.083      335.685        6.481      865.617
12/01/2014  10:13:00      -77.028       74.964      -17.378       21.698       27.252       18.827      470.792      742.682      354.438        0.671        0.078      107.484       14.514        0.018      335.329        5.890      865.607
12/01/2014  10:14:00      -26.685       23.063      -14.336       28.430       20.933       16.908      808.264      438.200      285.879        0.149        0.077       35.271        8.654        0.060      335.350        5.924      865.583
12/01/2014  10:15:00      -44.762        5.082       -4.807       40.298       17.291       15.577     1623.930      298.970      242.645        0.211        0.108       45.050       17.058        0.143      335.481        6.142      865.572
12/01/2014  10:16:00      -97.549      -18.498       -2.056       50.132       50.600       18.830     2513.256     2560.326      354.574        0.764        0.271       99.287       22.075        0.049      335.496        6.169      865.556
12/01/2014  10:17:00     -158.530      -24.996      -15.559       33.424       28.176       18.262     1117.139      793.876      333.510        1.412        0.112      160.489       12.771        0.006      335.308        5.855      865.580
12/01/2014  10:18:00     -119.519      -38.482       -8.792       31.526       23.446       18.003      993.890      549.706      324.099        0.885        0.093      125.561       16.650        0.018      335.378        5.973      865.593
12/01/2014  10:19:00      -81.558      -35.481        0.816       24.615       24.584       20.511      605.879      604.383      420.710        0.477        0.082       88.942       16.647        0.035      335.484        6.147      865.592
12/01/2014  10:20:00      -38.475       31.557        1.960       27.986       48.933       20.806      783.196     2394.451      432.892        0.304        0.181       49.761       16.320        0.108      335.618        6.373      865.569
12/01/2014  10:21:00      -45.142       75.057       -8.275       22.536       27.539       21.917      507.852      758.403      480.376        0.474        0.087       87.586       17.134        0.038      335.463        6.114      865.552
12/01/2014  10:22:00      -62.856       56.539      -26.642       15.080       20.362       11.780      227.419      414.617      138.772        0.432        0.039       84.543       10.180        0.014      335.388        5.989      865.544
12/01/2014  10:23:00      -68.859       32.716      -19.588       22.777       59.118       18.582      518.777     3494.925      345.273        0.528        0.218       76.236       14.083        0.034      335.569        6.289      865.547
12/01/2014  10:24:00      -87.380      101.260      -22.388       23.817       29.144       19.903      567.246      849.357      396.128        1.010        0.091      133.749       13.985        0.011      335.505        6.182      865.552
12/01/2014  10:25:00      -56.465       27.666       -5.581       48.574       36.970       21.167     2359.439     1366.814      448.027        0.408        0.209       62.878       27.071        0.185      335.763        6.613      865.558
12/01/2014  10:26:00      -65.475      -10.405       -8.929       27.285       16.203       16.468      744.482      262.544      271.183        0.288        0.064       66.297       14.769        0.050      335.503        6.180      865.561
12/01/2014  10:27:00      -29.064      -49.551        2.049       28.514       17.646       13.202      813.052      311.384      174.292        0.230        0.065       57.446       17.295        0.091      335.416        6.034      865.569
12/01/2014  10:28:00       15.496       15.486       18.647       18.574       26.754       18.644      345.012      715.792      347.613        0.112        0.070       21.908       12.769        0.340      335.634        6.398      865.547
12/01/2014  10:29:00       17.707       21.005       15.720       20.239       25.143       29.126      409.598      632.185      848.319        0.145        0.095       27.473       14.091        0.263      335.588        6.321      865.554
12/01/2014  10:30:00      -12.392       11.066       23.699       15.322       25.186       19.954      234.764      634.310      398.179        0.105        0.063       16.614       15.744        0.898      335.752        6.595      865.564
12/01/2014  10:31:00      -20.691      -66.940       -4.243       18.304       31.908       18.257      335.019     1018.095      333.327        0.331        0.084       70.064        9.318        0.018      335.577        6.304      865.581
12/01/2014  10:32:00      -15.775      -31.397        0.247       34.448       35.044       27.822     1186.679     1228.071      774.086        0.221        0.159       35.137       26.627        0.574      335.707        6.522      865.626
12/01/2014  10:33:00      -54.806      -39.657        9.143       39.118       27.951       17.633     1530.212      781.267      310.924        0.364        0.131       67.648       19.238        0.081      335.617        6.371      865.659
12/01/2014  10:34:00      -24.581     -121.792       -4.686       20.284       31.677       12.891      411.433     1003.410      166.189        0.852        0.079      124.247        5.225        0.002      335.424        6.045      865.688
12/01/2014  10:35:00       -8.465      -37.209        1.807       16.254       35.309       14.887      264.177     1246.697      221.613        0.160        0.087       38.159       17.821        0.218      335.512        6.196      865.663
12/01/2014  10:36:00       41.130       39.679       14.720       43.736       33.424       18.385     1912.879     1117.179      338.012        0.342        0.168       57.150       11.506        0.041      335.662        6.446      865.595
12/01/2014  10:37:00       95.357       59.731        8.937       38.233       34.817       29.552     1461.758     1212.235      873.305        0.814        0.177      112.520       19.140        0.029      335.528        6.222      865.527
12/01/2014  10:38:00       95.526       64.865       21.278       49.337       34.686       33.459     2434.155     1203.085     1119.512        0.927        0.238      115.467       27.247        0.056      335.582        6.311      865.453
12/01/2014  10:39:00       66.393       64.135       28.347       47.918       27.196       36.702     2296.100      739.602     1347.045        0.685        0.219       92.311       36.460        0.156      335.678        6.472      865.423
12/01/2014  10:40:00        4.539       -2.756       45.536       27.650       56.041       35.206      764.547     3140.550     1239.446        0.362        0.257        5.310       29.915       31.734      335.813        6.697      865.443
12/01/2014  10:41:00       -2.232       40.841       54.875       18.997       28.324       15.714      360.904      802.272      246.942        0.305        0.071       40.902       15.446        0.143      335.714        6.533      865.484
12/01/2014  10:42:00        6.430       12.126       12.071       17.417       20.252       19.376      303.364      410.154      375.412        0.071        0.054       13.726       12.886        0.881      335.743        6.581      865.519
12/01/2014  10:43:00      -61.448       -7.048       11.437       32.513       24.722       19.363     1057.065      611.184      374.929        0.300        0.102       61.851       16.526        0.071      335.767        6.621      865.508
12/01/2014  10:44:00      -40.651       13.422        7.698       42.782       30.961       26.293     1830.301      958.570      691.325        0.269        0.174       42.810       27.619        0.416      335.975        6.966      865.464
12/01/2014  10:45:00      -25.080       91.914       -8.245       27.336       59.993       24.045      747.280     3599.155      578.185        0.703        0.246       95.275       19.967        0.044      335.837        6.736      865.398
12/01/2014  10:46:00       36.671      127.409      -14.127       34.932       39.077       30.666     1220.260     1527.040      940.385        1.073        0.184      132.581       26.188        0.039      335.667        6.452      865.319
12/01/2014  10:47:00       59.066       42.579        7.723       41.334       33.426       28.812     1708.502     1117.277      830.156        0.451        0.183       72.813       24.119        0.110      335.735        6.568      865.273
12/01/2014  10:48:00       53.113       54.512        3.404       34.401       23.752       25.805     1183.441      564.175      665.922        0.411        0.121       76.108       19.325        0.064      335.756        6.602      865.250
12/01/2014  10:49:00       91.548       72.730       20.528       42.058       31.984       29.680     1768.874     1022.992      880.883        0.888        0.184      116.922        9.349        0.006      335.680        6.476      865.242
12/01/2014  10:50:00       36.398       49.433        0.659       28.107       25.088       22.367      790.005      629.405      500.290        0.284        0.096       61.388       18.449        0.090      335.665        6.451      865.250
12/01/2014  10:51:00        9.661       25.424       -1.251       18.447       18.448       15.295      340.274      340.311      233.922        0.083        0.046       27.197       11.656        0.184      335.732        6.561      865.268
12/01/2014  10:52:00       29.992       25.054       -2.052       10.977       10.365       14.422      120.486      107.431      207.990        0.098        0.022       39.080        6.003        0.024      335.651        6.429      865.279
12/01/2014  10:53:00       44.788       41.201       16.151       18.954       11.198       22.460      359.248      125.388      504.469        0.248        0.049       60.856       11.040        0.033      335.649        6.424      865.244
12/01/2014  10:54:00       54.372       80.572       59.956       38.207       35.198       32.106     1459.770     1238.878     1030.769        0.839        0.186       97.202       21.875        0.051      335.782        6.645      865.199
12/01/2014  10:55:00      104.070       76.581       43.722       28.716       27.731       22.391      824.608      769.002      501.346        1.035        0.105      129.210       15.340        0.014      335.678        6.473      865.162
12/01/2014  10:56:00       37.837       42.653       16.987       26.556       24.434       18.818      705.204      596.998      354.121        0.260        0.083       57.017       11.763        0.043      335.763        6.612      865.148
12/01/2014  10:57:00        5.747       31.493       29.591       13.293       21.173       13.962      176.692      448.298      194.949        0.136        0.041       32.013        4.920        0.024      335.979        6.974      865.156
12/01/2014  10:58:00       -9.647       25.892       -1.608       13.358       12.214       10.168      178.445      149.179      103.381        0.060        0.022       27.631        4.096        0.022      335.857        6.770      865.175
12/01/2014  10:59:00      -34.120       15.988        5.723       23.480       20.123       16.863      551.315      404.929      284.365        0.135        0.062       37.680        9.729        0.067      336.125        7.218      865.169
12/01/2014  11:00:00      -37.151       -3.804        5.532       23.665       25.343       15.998      560.039      642.272      255.931        0.144        0.073       37.345       11.027        0.087      336.173        7.298      865.139
12/01/2014  11:01:00      -45.528        4.475        8.505       21.442       35.980       19.354      459.747     1294.593      374.573        0.215        0.106       45.747       21.379        0.218      335.973        6.962      865.095
12/01/2014  11:02:00        5.554       28.867       10.357       26.608       27.670       22.854      708.009      765.642      522.305        0.148        0.100       29.396       21.947        0.557      336.095        7.166      865.063
12/01/2014  11:03:00       43.605       39.460       -4.199       32.268       28.309       19.099     1041.254      801.400      364.786        0.284        0.110       58.809       11.228        0.036      336.053        7.097      865.029
12/01/2014  11:04:00      132.356       62.426        4.002       34.956       24.506       26.079     1221.932      600.536      680.127        1.197        0.125      146.339       11.432        0.006      335.950        6.924      865.018
12/01/2014  11:05:00       61.191       19.034       17.647       57.085       36.641       32.682     3258.671     1342.571     1068.096        0.504        0.283       64.083       29.186        0.207      335.981        6.976      865.030
12/01/2014  11:06:00       21.015       13.492       13.259       39.908       27.802       20.419     1592.610      772.930      416.944        0.179        0.139       24.973       17.167        0.473      336.114        7.199      865.070
12/01/2014  11:07:00       30.244      -24.693       -0.582       31.463       50.112       20.400      989.894     2511.223      416.151        0.272        0.196       39.044       22.749        0.339      336.004        7.015      865.096
12/01/2014  11:08:00       24.938        5.448       33.508       27.897       50.346       30.579      778.255     2534.755      935.050        0.301        0.212       25.526       33.975        1.771      336.179        7.307      865.097
12/01/2014  11:09:00       60.944       54.736       46.974       24.232       37.331       26.905      587.192     1393.601      723.867        0.581        0.135       81.916        7.878        0.009      336.060        7.107      865.095
12/01/2014  11:10:00       30.608       33.744       31.188       37.048       33.466       33.507     1372.579     1119.947     1122.686        0.333        0.181       45.558       25.810        0.321      336.191        7.326      865.067
12/01/2014  11:11:00       67.333       38.336       37.619       29.302       23.683       28.139      858.621      560.887      791.818        0.481        0.111       77.481       17.552        0.051      336.084        7.147      865.002
12/01/2014  11:12:00       80.977       48.728       10.190       18.905       16.214       20.201      357.391      262.884      408.068        0.503        0.051       94.508        8.319        0.008      335.947        6.920      864.951
12/01/2014  11:13:00       70.523       40.582       26.165       22.327       21.575       22.538      498.514      465.468      507.963        0.439        0.074       81.366       12.349        0.023      335.994        6.997      864.921
12/01/2014  11:14:00       60.944       51.045       10.297       25.178       21.072       30.294      633.921      444.027      917.715        0.421        0.100       79.497       15.998        0.040      336.063        7.112      864.887
12/01/2014  11:15:00       37.150       48.952        0.513       26.941       33.251       25.559      725.843     1105.606      653.253        0.313        0.124       61.453       20.531        0.112      336.086        7.151      864.845
12/01/2014  11:16:00      107.761       64.518        4.427       29.750       25.870       29.180      885.046      669.249      851.448        0.910        0.120      125.599       10.963        0.008      336.036        7.066      864.829
12/01/2014  11:17:00      119.591       72.342        9.059       35.405       33.893       25.195     1253.507     1148.744      634.809        1.133        0.152      139.769       11.429        0.007      336.024        7.048      864.807
12/01/2014  11:18:00      143.230       57.161       14.810       63.118       44.925       33.860     3983.905     2018.280     1146.481        1.557        0.357      154.215       28.085        0.033      336.014        7.030      864.788
12/01/2014  11:19:00      122.750       50.524       19.481       38.332       40.259       32.129     1469.378     1620.806     1032.299        1.106        0.206      132.742       22.533        0.029      336.035        7.066      864.783
12/01/2014  11:20:00       59.758       40.306       10.004       37.553       25.221       22.584     1410.233      636.098      510.055        0.393        0.128       72.080        9.291        0.017      336.055        7.100      864.801
12/01/2014  11:21:00       11.616       50.402       -6.611       23.911       25.922       12.101      571.713      671.969      146.439        0.205        0.070       51.723       13.353        0.067      336.059        7.106      864.822
12/01/2014  11:22:00       -5.925       25.900       10.280       20.406       25.196       14.030      416.423      634.825      196.831        0.103        0.062       26.569       15.104        0.323      336.291        7.494      864.827
12/01/2014  11:23:00       30.886       36.167        7.377       19.203       18.667       23.117      368.741      348.453      534.411        0.178        0.063       47.561       12.315        0.067      336.215        7.367      864.828
12/01/2014  11:24:00       26.264       17.829       -0.417       12.741       12.772       14.284      162.323      163.113      204.022        0.077        0.026       31.744        8.235        0.067      336.124        7.214      864.819
12/01/2014  11:25:00       80.478       26.700       -4.930       26.630       16.099       20.340      709.162      259.175      413.710        0.430        0.069       84.791       12.105        0.020      336.078        7.138      864.799
12/01/2014  11:26:00       32.637       55.606       -5.181       28.822       37.948       26.063      830.680     1440.084      679.302        0.357        0.148       64.477       16.279        0.064      336.193        7.330      864.762
12/01/2014  11:27:00        8.142      136.115      -15.188       26.765       45.227       23.674      716.374     2045.495      560.465        1.107        0.166      136.358       20.446        0.022      336.061        7.110      864.713
12/01/2014  11:28:00       13.916      182.546      -31.852       17.317       22.885       13.089      299.872      523.730      171.327        1.776        0.050      183.076        7.127        0.002      335.993        6.996      864.681
12/01/2014  11:29:00       19.908      133.469      -14.563       28.146       49.544       26.482      792.198     2454.611      701.286        1.118        0.197      134.945       27.423        0.041      336.070        7.125      864.659
12/01/2014  11:30:00       -7.168      142.362      -17.161       16.126       25.277       15.097      260.058      638.920      227.920        1.087        0.056      142.542       13.693        0.009      336.041        7.076      864.629
12/01/2014  11:31:00      -10.277      125.434      -16.469       30.252       26.738       13.908      915.210      714.940      193.423        0.897        0.091      125.854        7.808        0.004      336.110        7.189      864.597
12/01/2014  11:32:00      -26.071       77.073       -2.443       21.635       32.239       21.089      468.086     1039.328      444.763        0.429        0.098       81.363       18.791        0.053      336.235        7.401      864.583
12/01/2014  11:33:00      -17.927       52.977       -9.384       18.595       25.169       16.825      345.757      633.500      283.072        0.224        0.063       55.928       14.389        0.066      336.231        7.394      864.579
12/01/2014  11:34:00        5.576       40.321        3.123       27.576       26.204       19.248      760.425      686.654      370.486        0.174        0.091       40.704       14.547        0.128      336.314        7.533      864.567
12/01/2014  11:35:00        4.106       29.041        5.489       15.015       30.620       14.245      225.460      937.613      202.922        0.113        0.068       29.330       16.407        0.313      336.327        7.554      864.552
12/01/2014  11:36:00        0.925        9.902       11.206       10.526       16.655       10.020      110.805      277.402      100.404        0.036        0.024        9.945       11.223        1.273      336.572        7.964      864.543
12/01/2014  11:37:00       -5.751       46.320       -3.647       13.455       24.296       12.556      181.039      590.311      157.655        0.156        0.046       46.675       12.486        0.072      336.310        7.525      864.540
12/01/2014  11:38:00       -7.731       90.491       -8.901        9.613       19.885       13.750       92.403      395.410      189.068        0.450        0.034       90.820        5.175        0.003      336.218        7.372      864.521
12/01/2014  11:39:00      -12.498       30.410        7.766       22.882       26.444       14.263      523.579      699.311      203.427        0.128        0.071       32.878        5.844        0.032      336.452        7.763      864.480
12/01/2014  11:40:00      -31.587       25.806       -1.021       27.657       28.787       16.224      764.912      828.695      263.216        0.176        0.093       40.788       15.425        0.143      336.411        7.694      864.442
12/01/2014  11:41:00      -19.183       25.243       -3.672       17.525       25.405       13.991      307.115      645.430      195.744        0.108        0.057       31.705       10.342        0.106      336.455        7.768      864.421
12/01/2014  11:42:00      -49.145       47.771      -15.301       23.603       27.070       13.539      557.079      732.761      183.294        0.320        0.074       68.537       14.942        0.048      336.355        7.600      864.404
12/01/2014  11:43:00      -79.344       57.414      -22.015       13.124       15.264        8.781      172.252      233.001       77.112        0.528        0.024       97.937        6.544        0.004      336.277        7.471      864.405
12/01/2014  11:44:00      -73.890       49.418      -20.608       10.659       13.803        8.794      113.621      190.509       77.331        0.435        0.019       88.893        4.178        0.002      336.335        7.569      864.420
12/01/2014  11:45:00      -66.095       35.223      -17.010       10.266       19.708       10.940      105.382      388.418      119.676        0.326        0.031       74.895       12.258        0.027      336.372        7.630      864.449
12/01/2014  11:46:00      -19.959      -17.195       -2.138       19.696       17.746       12.426      387.924      314.903      154.410        0.078        0.043       26.344       10.621        0.163      336.460        7.776      864.473
12/01/2014  11:47:00      -50.954        9.254        1.813       41.958       18.348       17.181     1760.439      336.652      295.199        0.254        0.120       51.788       19.271        0.138      336.538        7.907      864.482
12/01/2014  11:48:00      -59.832       -1.940      -10.680       15.156        7.734        9.418      229.706       59.818       88.697        0.204        0.019       59.863        9.008        0.023      336.462        7.780      864.465
12/01/2014  11:49:00      -21.469       -7.142        3.377       17.211       11.703       10.452      296.223      136.956      109.251        0.053        0.027       22.626       10.538        0.217      336.621        8.047      864.436
12/01/2014  11:50:00       15.880       28.880        8.402       24.946       25.477       13.443      622.319      649.066      180.718        0.130        0.073       32.958       14.597        0.196      336.852        8.432      864.401
12/01/2014  11:51:00       57.075       48.241       -2.284       12.667       27.612       15.230      160.448      762.411      231.947        0.337        0.058       74.731        6.320        0.007      336.577        7.973      864.370
12/01/2014  11:52:00       20.308       11.089        7.779       16.639       14.090        9.275      276.864      198.515       86.025        0.058        0.028       23.138        6.227        0.072      336.695        8.170      864.338
12/01/2014  11:53:00        5.316       12.349        3.134        9.574        9.793       11.586       91.655       95.894      134.232        0.026        0.016       13.444        6.841        0.259      336.866        8.456      864.325
12/01/2014  11:54:00      -11.735       17.633      -20.399       19.564       15.038       10.077      382.768      226.141      101.536        0.079        0.036       21.181        9.337        0.194      336.795        8.336      864.302
12/01/2014  11:55:00        4.220       16.657       -5.486       21.693       11.713       12.174      470.590      137.206      148.211        0.054        0.038       17.184        8.433        0.241      336.883        8.485      864.273
12/01/2014  11:56:00       36.308       14.820       -3.023       18.570       15.886       13.435      344.861      252.350      180.508        0.116        0.039       39.216       10.576        0.073      336.774        8.303      864.253
12/01/2014  11:57:00       51.657       34.630       -0.150       14.216       21.661       17.203      202.087      469.183      295.949        0.242        0.048       62.190        8.394        0.018      336.793        8.333      864.238
12/01/2014  11:58:00       32.438       52.374       -2.212       18.710       23.090       18.652      350.072      533.159      347.894        0.252        0.062       61.606       11.028        0.032      336.937        8.573      864.213
12/01/2014  11:59:00        0.260       50.794      -14.155       14.535       17.237       12.133      211.270      297.120      147.220        0.172        0.033       50.795        7.901        0.024      336.862        8.449      864.209
12/01/2014  12:00:00       -3.472       41.829       -8.975       19.257       18.098       20.492      370.848      327.527      419.941        0.148        0.056       41.973       15.848        0.143      336.935        8.569      864.214
12/01/2014  12:01:00       35.615       18.237       -1.567       23.632       13.957       19.535      558.468      194.803      381.598        0.137        0.057       40.013        8.742        0.048      337.030        8.729      864.216
12/01/2014  12:02:00       24.856       70.324       -6.227       24.356       36.751       21.426      593.235     1350.673      459.070        0.400        0.120       74.587       22.677        0.092      336.997        8.674      864.223
12/01/2014  12:03:00       -0.790       71.747       -9.429       15.542       20.237       18.451      241.566      409.521      340.446        0.311        0.050       71.751       15.346        0.046      337.037        8.742      864.219
12/01/2014  12:04:00      -27.863       70.803       -8.710       18.227       21.761       16.273      332.209      473.550      264.820        0.347        0.054       76.088       14.212        0.035      337.008        8.693      864.239
12/01/2014  12:05:00       -5.434       14.610        8.773       13.768       25.926       14.767      189.563      672.170      218.079        0.070        0.054       15.588       16.864        1.170      337.550        9.599      864.243
12/01/2014  12:06:00        2.819        0.946        7.386       21.344       16.599       10.191      455.578      275.539      103.853        0.045        0.042        2.973        7.891        7.043      337.484        9.491      864.236
12/01/2014  12:07:00       20.396       13.983       14.669       27.626       47.984       25.221      763.170     2302.476      636.103        0.226        0.185       24.729       23.143        0.876      337.274        9.137      864.209
12/01/2014  12:08:00       70.669       49.097       42.610       37.189       44.508       35.837     1383.019     1980.943     1284.309        0.693        0.232       86.050       30.766        0.128      337.259        9.113      864.186
12/01/2014  12:09:00       68.558       79.004       62.467       51.419       45.996       39.698     2643.901     2115.593     1575.941        1.059        0.317      104.603       31.685        0.092      337.282        9.151      864.158
12/01/2014  12:10:00       63.302       83.420       97.926       66.377       50.537       46.264     4405.950     2553.984     2140.401        1.483        0.455      104.719       45.110        0.186      337.241        9.081      864.147
12/01/2014  12:11:00       62.313       89.954       86.717       35.461       37.485       27.216     1257.489     1405.112      740.729        1.145        0.170      109.429       20.232        0.034      337.226        9.056      864.121
12/01/2014  12:12:00       35.103       45.001       26.003       21.733       23.360       25.838      472.304      545.704      667.589        0.281        0.084       57.073       19.747        0.120      337.208        9.028      864.090
12/01/2014  12:13:00       34.288       -5.034        1.057       12.205       27.401       14.588      148.953      750.803      212.821        0.116        0.056       34.656       15.269        0.194      337.245        9.090      864.076
12/01/2014  12:14:00       14.760      -26.351       -7.696       21.688       29.099       16.683      470.373      846.740      278.322        0.128        0.080       30.203       18.168        0.362      337.542        9.587      864.059
12/01/2014  12:15:00      -20.004      -33.490       -8.964       29.099       27.040       19.645      846.749      731.164      385.923        0.178        0.098       39.010       18.637        0.228      337.814       10.042      864.059
12/01/2014  12:16:00       21.262      -47.456       -5.738       29.920       29.941       23.656      895.200      896.468      559.596        0.254        0.118       52.001       20.090        0.149      337.798       10.014      864.066
12/01/2014  12:17:00        8.365       18.181       28.372       26.661       34.219       29.892      710.805     1170.931      893.540        0.199        0.139       20.013       28.332        2.004      338.016       10.381      864.066
12/01/2014  12:18:00       20.593       -5.553       36.082       29.075       48.295       30.360      845.350     2332.369      921.734        0.293        0.205       21.329       34.797        2.662      337.873       10.142      864.077
12/01/2014  12:19:00       50.810       77.664       77.197       66.121       48.662       35.687     4371.955     2367.949     1273.550        1.129        0.401       92.808       28.537        0.095      337.787        9.997      864.079
12/01/2014  12:20:00       87.230       48.362       37.197       34.898       38.747       26.406     1217.857     1501.320      697.255        0.737        0.171       99.739       22.097        0.049      337.355        9.272      864.079
12/01/2014  12:21:00       79.845       64.521       47.139       53.479       40.017       33.707     2860.053     1601.380     1136.181        0.918        0.280      102.656       23.994        0.055      337.536        9.577      864.066
12/01/2014  12:22:00       64.938       49.244       21.411       27.130       20.089       20.206      736.017      403.576      408.279        0.432        0.077       81.498       11.772        0.021      337.446        9.425      864.048
12/01/2014  12:23:00       25.903       30.001        5.483       23.541       23.530       22.773      554.165      553.676      518.632        0.161        0.081       39.636       17.615        0.197      337.732        9.906      864.051
12/01/2014  12:24:00       43.370       29.808       21.656       46.667       28.735       26.642     2177.850      825.682      709.784        0.348        0.186       52.626       30.298        0.331      337.914       10.210      864.057
12/01/2014  12:25:00      -38.615        6.692       15.891       22.217       23.455       27.634      493.592      550.123      763.660        0.180        0.090       39.191       17.716        0.204      337.992       10.341      864.057
12/01/2014  12:26:00      -31.629        2.726       18.179       30.739       26.227       18.942      944.869      687.837      358.789        0.166        0.100       31.747       19.636        0.383      338.242       10.759      864.034
12/01/2014  12:27:00       24.407      -11.233       43.066       43.387       49.608       39.803     1882.422     2460.940     1584.278        0.425        0.296       26.868       28.633        1.136      338.301       10.860      864.005
12/01/2014  12:28:00       77.454      -59.217       -2.993       37.207       49.559       27.318     1384.342     2456.063      746.298        0.705        0.229       97.497       24.138        0.061      337.637        9.746      863.968
12/01/2014  12:29:00      -13.523       -5.862       28.334       27.173       51.245       26.705      738.360     2626.039      713.146        0.255        0.204       14.739       24.180        2.691      338.183       10.662      863.916
12/01/2014  12:30:00      -20.016      -48.166        6.420       42.510       59.525       35.643     1807.073     3543.285     1270.421        0.469        0.331       52.159       33.907        0.423      338.225       10.733      863.862
12/01/2014  12:31:00       51.377       64.862       59.509       81.883       51.822       43.533     6704.879     2685.543     1895.101        1.083        0.564       82.745       33.498        0.164      338.104       10.530      863.819
12/01/2014  12:32:00       62.617       31.630       29.299       50.105       33.626       23.559     2510.466     1130.675      555.021        0.499        0.210       70.152       24.563        0.123      337.889       10.168      863.796
12/01/2014  12:33:00        7.109       36.994       26.567       29.097       23.313       27.121      846.645      543.504      735.553        0.212        0.106       37.671       19.315        0.263      338.066       10.465      863.783
12/01/2014  12:34:00        2.769       -1.408       13.159       29.030       14.090       13.971      842.738      198.522      195.203        0.071        0.062        3.106        9.929       10.218      338.326       10.903      863.789
12/01/2014  12:35:00       -3.138      -37.021       -1.754       30.173       30.932       18.794      910.403      956.806      353.199        0.180        0.111       37.154       16.555        0.199      338.329       10.906      863.794
12/01/2014  12:36:00       13.719       17.344       14.379       17.039       16.725       15.309      290.342      279.738      234.374        0.075        0.040       22.114       10.294        0.217      338.326       10.902      863.782
12/01/2014  12:37:00      -21.011       24.294       11.344       40.303       20.346       23.241     1624.356      413.966      540.167        0.187        0.129       32.119       20.713        0.416      338.269       10.806      863.754
12/01/2014  12:38:00      -32.588      -12.777        8.455       50.816       36.495       21.946     2582.314     1331.883      481.609        0.285        0.220       35.003       25.307        0.523      338.353       10.947      863.733
12/01/2014  12:39:00      -15.017       12.792        9.833       54.696       24.426       20.575     2991.651      596.640      423.312        0.225        0.201       19.727       22.176        1.264      338.574       11.318      863.710
12/01/2014  12:40:00      -36.196      -52.176       -0.820       42.238       62.113       22.387     1784.065     3858.034      501.159        0.509        0.307       63.501        9.901        0.024      338.282       10.828      863.704
12/01/2014  12:41:00      -70.124      -35.109        0.864       23.590       39.240       17.834      556.502     1539.746      318.050        0.428        0.121       78.422        6.567        0.007      337.985       10.329      863.704
12/01/2014  12:42:00       -7.738      -27.154       -1.715       30.074       25.852       24.148      904.438      668.329      583.126        0.148        0.108       28.234       14.955        0.281      338.343       10.929      863.710
12/01/2014  12:43:00       13.248        5.594       22.234       18.729       16.278       12.927      350.765      264.981      167.109        0.074        0.039       14.381        9.223        0.411      338.712       11.550      863.704
12/01/2014  12:44:00       28.268       50.469       46.801       33.209       23.070       17.661     1102.851      532.247      311.925        0.374        0.097       57.846       16.202        0.078      338.234       10.747      863.692
12/01/2014  12:45:00       57.086       24.298       40.107       35.495       23.180       18.748     1259.865      537.290      351.498        0.380        0.107       62.042        8.809        0.020      338.110       10.540      863.687
12/01/2014  12:46:00       67.269       27.859       56.381       44.732       33.952       28.741     2000.937     1152.759      826.060        0.623        0.199       72.810       24.068        0.109      338.137       10.584      863.688
12/01/2014  12:47:00       34.738      -34.112       -2.136       24.395       27.034       18.903      595.115      730.848      357.320        0.203        0.084       48.687       17.187        0.125      338.190       10.674      863.687
12/01/2014  12:48:00       17.658      -23.449       22.232       21.283       45.325       26.306      452.973     2054.312      692.019        0.228        0.160       29.354       27.095        0.852      338.653       11.452      863.680
12/01/2014  12:49:00       20.656      -54.890       -6.174       31.617       52.822       27.475      999.649     2790.114      754.856        0.401        0.227       58.647       23.338        0.158      338.219       10.722      863.661
12/01/2014  12:50:00       39.732       27.335       17.641       30.719       26.352       31.968      943.641      694.446     1021.942        0.265        0.133       48.227       20.256        0.176      338.273       10.812      863.623
12/01/2014  12:51:00       60.511       35.356       34.271       51.326       52.441       32.211     2634.401     2750.046     1037.549        0.625        0.321       70.083       32.358        0.213      338.333       10.914      863.582
12/01/2014  12:52:00       64.879       17.278       -2.939       23.827       34.044       15.870      567.718     1158.963      251.849        0.325        0.099       67.140       13.903        0.043      338.025       10.396      863.549
12/01/2014  12:53:00       48.044       10.911       28.733       57.922       55.759       38.033     3354.939     3109.117     1446.475        0.558        0.396       49.267       22.609        0.211      338.463       11.131      863.517
12/01/2014  12:54:00       69.570       20.784       16.461       65.687       48.646       35.555     4314.762     2366.435     1264.135        0.674        0.397       72.608       27.755        0.146      338.375       10.983      863.505
12/01/2014  12:55:00       57.811       53.305       37.210       51.636       46.424       40.886     2666.325     2155.210     1671.650        0.703        0.325       78.635       27.799        0.125      338.496       11.187      863.494
12/01/2014  12:56:00      102.100      125.209      106.596       58.231       47.719       39.840     3390.879     2277.061     1587.231        2.236        0.363      161.560       38.477        0.057      338.154       10.611      863.490
12/01/2014  12:57:00       83.873       62.857       51.009       65.857       42.441       45.122     4337.145     1801.219     2036.013        1.088        0.409      104.813       40.430        0.149      338.345       10.934      863.509
12/01/2014  12:58:00       56.092       82.431       85.054       43.908       52.559       51.330     1927.888     2762.486     2634.770        1.225        0.366       99.705       41.229        0.171      338.363       10.965      863.527
12/01/2014  12:59:00      123.711       80.243       33.314       51.639       42.210       46.888     2666.575     1781.687     2198.513        1.475        0.332      147.456       35.683        0.059      338.112       10.543      863.536
12/01/2014  13:00:00       53.852       35.254        1.902       19.525       24.046       17.701      381.221      578.195      313.340        0.271        0.064       64.365       11.835        0.034      338.209       10.705      863.522
12/01/2014  13:01:00       62.411       50.498       21.345       51.719       25.615       26.230     2674.904      656.118      688.018        0.546        0.201       80.282       19.132        0.057      338.359       10.956      863.492
12/01/2014  13:02:00      121.317       69.223       14.971       35.702       44.944       25.840     1274.640     2019.922      667.728        1.185        0.198      139.677       12.899        0.009      338.272       10.810      863.475
12/01/2014  13:03:00       25.207       72.347       -6.150       36.030       35.762       27.266     1298.190     1278.895      743.448        0.461        0.166       76.612       21.156        0.076      338.423       11.064      863.462
12/01/2014  13:04:00       19.220       44.319       -4.914       24.550       19.579       22.045      602.725      383.335      485.975        0.191        0.074       48.307       17.685        0.134      338.414       11.049      863.461
12/01/2014  13:05:00      -15.398       62.078      -13.964       15.405       20.009       10.880      237.323      400.365      118.376        0.252        0.038       63.960        6.277        0.010      338.372       10.978      863.462
12/01/2014  13:06:00      -20.325       34.669       -6.420       16.754       16.279       21.771      280.690      265.016      473.977        0.134        0.051       40.187       14.071        0.123      338.631       11.413      863.457
12/01/2014  13:07:00        9.093       26.775       41.351       21.106       18.930       16.693      445.473      358.342      278.649        0.180        0.054       28.277       10.352        0.134      338.866       11.808      863.451
12/01/2014  13:08:00       21.884       23.136       41.155       32.702       35.025       31.573     1069.423     1226.731      996.829        0.300        0.165       31.846       29.938        0.884      338.738       11.594      863.443
12/01/2014  13:09:00       15.179       31.765       48.118       36.458       62.324       48.698     1329.195     3884.290     2371.506        0.557        0.379       35.205       42.106        1.430      338.897       11.861      863.420
12/01/2014  13:10:00      121.795       99.876       70.538       82.483       40.773       47.665     6803.444     1662.463     2271.918        2.026        0.537      157.510       51.212        0.106      338.536       11.254      863.390
12/01/2014  13:11:00      114.409       84.607       25.258       80.873       57.035       52.660     6540.401     3253.028     2773.043        1.672        0.628      142.295       48.112        0.114      338.637       11.422      863.362
12/01/2014  13:12:00       39.968       80.873       93.847       61.724       97.026       64.797     3809.904     9414.131     4198.682        1.718        0.871       90.210       71.633        0.631      338.579       11.325      863.346
12/01/2014  13:13:00       54.750      -52.099       29.768       49.548       48.759       29.480     2455.050     2377.415      869.045        0.615        0.285       75.577       14.779        0.038      338.642       11.433      863.352
12/01/2014  13:14:00       31.239       34.919       -0.941       49.309       32.767       27.126     2431.361     1073.645      735.835        0.322        0.212       46.853       16.780        0.128      338.882       11.835      863.367
12/01/2014  13:15:00      -11.264      138.037      -21.019       25.897       41.996       14.934      670.667     1763.681      223.026        1.114        0.133      138.496       13.483        0.009      338.522       11.230      863.369
12/01/2014  13:16:00      -32.498      148.304      -14.534       28.784       28.478       17.656      828.544      810.983      311.746        1.261        0.098      151.823        8.869        0.003      338.508       11.206      863.353
12/01/2014  13:17:00      -34.791      123.484      -13.273       25.286       27.813       19.136      639.382      773.575      366.183        0.921        0.089      128.292       15.512        0.015      338.588       11.342      863.328
12/01/2014  13:18:00       17.852       21.579       22.086       29.195       26.906       24.809      852.368      723.936      615.495        0.173        0.110       28.006       21.259        0.576      338.939       11.933      863.303
12/01/2014  13:19:00       18.390       61.660       -7.484       33.121       51.736       19.789     1096.974     2676.567      391.620        0.418        0.208       64.344       22.201        0.119      338.873       11.821      863.294
12/01/2014  13:20:00       84.374       47.670        9.719       56.003       35.187       37.643     3136.305     1238.120     1416.999        0.764        0.290       96.909       25.207        0.068      338.824       11.739      863.270
12/01/2014  13:21:00       44.644      105.618      -21.535       37.617       42.540       27.022     1415.039     1809.663      730.180        0.878        0.198      114.666       15.645        0.019      338.572       11.314      863.262
12/01/2014  13:22:00       -4.414       51.994       -4.358       38.199       42.835       27.267     1459.145     1834.829      743.502        0.339        0.202       52.181       19.846        0.145      338.643       11.434      863.256
12/01/2014  13:23:00       19.418       88.869      -11.711       47.877       36.339       28.759     2292.242     1320.505      827.090        0.642        0.222       90.965       28.738        0.100      338.672       11.482      863.247
12/01/2014  13:24:00       18.556       31.827       14.046       77.065       40.819       27.095     5938.961     1666.173      734.166        0.495        0.417       36.841       30.485        0.685      338.935       11.925      863.232
12/01/2014  13:25:00      -59.438       36.430      -14.692       22.303       23.076       21.919      497.417      532.500      480.428        0.329        0.076       69.714       10.626        0.023      338.792       11.682      863.219
12/01/2014  13:26:00      -24.724      166.443      -19.808       30.468       29.198       21.854      928.277      852.547      477.610        1.548        0.113      168.269       16.858        0.010      338.766       11.640      863.194
12/01/2014  13:27:00        7.976       86.411       -8.131       55.980       56.945       25.679     3133.713     3242.747      659.418        0.731        0.352       86.778       29.687        0.117      338.764       11.637      863.184
12/01/2014  13:28:00       86.877       70.009       -1.770       63.515       41.281       41.122     4034.151     1704.088     1691.057        0.994        0.371      111.575       30.400        0.074      338.781       11.665      863.173
12/01/2014  13:29:00       60.262       70.106        1.028       43.934       42.502       34.156     1930.207     1806.405     1166.640        0.672        0.245       92.447       26.778        0.084      338.770       11.649      863.191
12/01/2014  13:30:00        2.520       22.855       -4.291       30.867       27.215       22.566      952.773      740.680      509.210        0.137        0.110       22.994        7.569        0.108      339.003       12.037      863.208
12/01/2014  13:31:00        9.948       11.323        2.275       16.700        9.641       16.504      278.889       92.951      272.381        0.044        0.032       15.073        8.899        0.349      339.069       12.150      863.208
12/01/2014  13:32:00        5.138       -5.273        7.032       10.147        7.774       13.000      102.952       60.436      169.007        0.022        0.017        7.362        6.481        0.775      339.546       12.953      863.226
12/01/2014  13:33:00       18.461       49.070       55.452       40.291       48.873       38.926     1623.390     2388.539     1515.217        0.567        0.276       52.428       34.295        0.428      339.318       12.571      863.221
12/01/2014  13:34:00       80.783      120.216      102.476       64.295       52.125       48.896     4133.836     2717.003     2390.860        2.036        0.462      144.837       41.075        0.080      338.888       11.845      863.221
12/01/2014  13:35:00       67.273       55.999       64.392       51.781       43.145       44.579     2681.234     1861.523     1987.268        0.917        0.327       87.530       34.448        0.155      338.997       12.029      863.211
12/01/2014  13:36:00       90.828       39.256       30.630       45.699       34.926       42.984     2088.372     1219.855     1847.630        0.794        0.258       98.948       31.243        0.100      338.846       11.774      863.196
12/01/2014  13:37:00       27.965       91.012        4.047       48.046       45.207       42.165     2308.375     2043.632     1777.916        0.760        0.306       95.212       24.709        0.067      338.967       11.979      863.184
12/01/2014  13:38:00      -20.095       26.008      -23.585       31.847       50.833       17.808     1014.250     2584.012      317.138        0.278        0.196       32.867       14.364        0.191      338.836       11.758      863.172
12/01/2014  13:39:00       34.257       11.109       11.822       22.540       18.493       20.237      508.051      342.001      409.556        0.135        0.063       36.013       16.528        0.211      339.040       12.101      863.162
12/01/2014  13:40:00       35.552       19.985       43.823       37.922       46.243       32.200     1438.043     2138.370     1036.855        0.410        0.231       40.784       33.774        0.686      339.154       12.295      863.161
12/01/2014  13:41:00       62.529        4.167       42.159       43.229       42.825       33.573     1868.746     1833.983     1127.127        0.527        0.241       62.667       34.022        0.295      338.967       11.979      863.170
12/01/2014  13:42:00      101.532        5.626       49.654       52.438       53.080       40.975     2749.724     2817.529     1678.962        1.002        0.362      101.688       39.045        0.147      338.995       12.026      863.172
12/01/2014  13:43:00      107.363       57.202       19.238       57.608       39.550       26.941     3318.656     1564.172      725.803        1.039        0.280      121.650       19.999        0.027      338.756       11.622      863.166
12/01/2014  13:44:00       39.538      -16.424        1.540       29.293       48.407       21.235      858.073     2343.218      450.926        0.274        0.183       42.814       26.501        0.383      338.989       12.016      863.167
12/01/2014  13:45:00       92.095     -143.448      -23.606       58.236       57.293       25.773     3391.452     3282.544      664.254        1.848        0.367      170.466       12.029        0.005      338.852       11.783      863.150
12/01/2014  13:46:00       33.898        4.430       26.370       32.256       91.286       46.596     1040.426     8333.112     2171.210        0.670        0.577       34.187       57.687        2.847      339.032       12.089      863.132
12/01/2014  13:47:00      134.241      101.994       21.106       85.910       58.962       52.288     7380.598     3476.465     2734.063        2.123        0.680      168.592       46.928        0.077      338.986       12.009      863.128
12/01/2014  13:48:00      159.736       64.459       11.328       67.424       46.433       39.278     4546.045     2156.027     1542.792        1.902        0.412      172.252       28.149        0.027      338.929       11.914      863.111
12/01/2014  13:49:00      129.262       72.493       13.413       38.316       36.744       40.390     1468.119     1350.158     1631.389        1.330        0.222      148.202        6.955        0.002      339.018       12.065      863.097
12/01/2014  13:50:00      120.174       95.281       50.342       59.163       43.937       45.287     3500.251     1930.446     2050.936        1.677        0.374      153.363       31.301        0.042      339.113       12.224      863.081
12/01/2014  13:51:00      132.928      107.109       28.045       57.592       46.790       34.077     3316.818     2189.351     1161.231        1.830        0.333      170.711       26.357        0.024      339.014       12.057      863.081
12/01/2014  13:52:00       91.681       47.534       30.197       40.798       39.416       38.313     1664.485     1553.583     1467.918        0.813        0.234      103.271       11.251        0.012      338.987       12.014      863.098
12/01/2014  13:53:00       69.006       45.113       15.645       45.481       36.978       27.693     2068.477     1367.404      766.905        0.562        0.210       82.444       25.781        0.098      339.148       12.282      863.093
12/01/2014  13:54:00       87.148       59.373       30.626       54.019       53.811       37.633     2917.998     2895.666     1416.277        0.964        0.361      105.451       38.878        0.136      339.080       12.170      863.092
12/01/2014  13:55:00       33.843       42.140       23.783       44.537       24.614       27.965     1983.531      605.857      782.058        0.343        0.169       54.047       30.044        0.309      339.234       12.428      863.092
12/01/2014  13:56:00      117.213       14.989       22.228       35.760       40.780       25.864     1278.748     1663.005      668.943        0.903        0.181      118.168       17.166        0.021      338.975       11.993      863.101
12/01/2014  13:57:00       24.192      -33.503        4.989       29.628       31.910       20.152      877.848     1018.229      406.116        0.202        0.115       41.325       19.754        0.229      339.185       12.344      863.101
12/01/2014  13:58:00       74.556       47.387       31.510       45.077       34.676       23.385     2031.940     1202.435      546.848        0.629        0.189       88.341       16.694        0.036      339.166       12.313      863.104
12/01/2014  13:59:00       38.566       48.261       10.596       73.571       40.163       32.212     5412.714     1613.101     1037.616        0.599        0.403       61.777       17.982        0.085      339.215       12.395      863.103
12/01/2014  14:00:00      140.461      105.056       10.746       50.242       36.837       28.602     2524.276     1356.967      818.047        1.779        0.235      175.402       20.880        0.014      338.956       11.958      863.100
12/01/2014  14:01:00      103.737       76.757       18.348       65.703       34.658       38.742     4316.825     1201.165     1500.965        1.200        0.351      129.047       22.288        0.030      338.996       12.028      863.082
12/01/2014  14:02:00       66.147       76.650       60.988       61.220       42.627       39.997     3747.878     1817.049     1599.761        1.057        0.358      101.245       39.677        0.154      339.253       12.460      863.073
12/01/2014  14:03:00       98.528       68.609       -5.960       52.894       61.113       35.719     2797.726     3734.785     1275.866        1.113        0.390      120.063       26.685        0.049      339.037       12.096      863.065
12/01/2014  14:04:00       65.942       71.404       -4.222       52.099       41.125       39.451     2714.317     1691.261     1556.363        0.771        0.298       97.195       29.731        0.094      339.132       12.256      863.052
12/01/2014  14:05:00       41.542       46.650      -10.453       23.753       26.693       24.172      564.186      712.528      584.269        0.294        0.093       62.466       17.430        0.078      339.093       12.190      863.072
12/01/2014  14:06:00       17.378        0.301       -8.334       12.372       18.282       12.463      153.069      334.216      155.331        0.051        0.032       17.380        6.917        0.158      339.129       12.250      863.088
12/01/2014  14:07:00      -37.290        6.534      -12.390       33.431       18.063       20.285     1117.645      326.286      411.475        0.172        0.093       37.858       20.234        0.286      339.170       12.321      863.075
12/01/2014  14:08:00      -16.468       40.266      -12.171       52.860       47.332       22.368     2794.217     2240.317      500.330        0.379        0.277       43.503       21.220        0.238      339.240       12.438      863.053
12/01/2014  14:09:00      118.770      118.874        2.024       63.771       46.696       36.868     4066.780     2180.487     1359.259        1.792        0.380      168.040       27.836        0.027      339.087       12.180      863.070
12/01/2014  14:10:00      112.981       85.187       18.129       65.841       45.063       45.707     4335.043     2030.669     2089.086        1.440        0.423      141.498       26.155        0.034      339.123       12.239      863.081
12/01/2014  14:11:00      105.701       62.347       28.472       64.781       57.053       48.063     4196.551     3255.039     2310.079        1.281        0.488      122.719       35.995        0.086      339.145       12.276      863.099
12/01/2014  14:12:00       50.968       41.301       15.697       30.906       17.437       23.142      955.207      304.060      535.554        0.317        0.090       65.601       13.651        0.043      339.176       12.329      863.119
12/01/2014  14:13:00        0.058       69.304       -7.100       46.885       48.191       22.438     2198.231     2322.329      503.450        0.494        0.251       69.304       29.225        0.178      339.116       12.229      863.143
12/01/2014  14:14:00      -54.334       63.893      -13.947       43.332       60.107       23.840     1877.665     3612.840      568.324        0.664        0.303       83.872       21.628        0.066      339.400       12.706      863.167
12/01/2014  14:15:00      -61.789      116.289      -21.314       28.590       39.554       28.787      817.383     1564.512      828.710        1.050        0.161      131.686       17.290        0.017      339.285       12.514      863.165
12/01/2014  14:16:00      -69.354       47.487      -14.230       27.415       33.306       20.906      751.563     1109.280      437.042        0.478        0.115       84.054       18.082        0.046      339.246       12.448      863.157
12/01/2014  14:17:00       18.529       15.675        7.573       32.652       14.360       18.298     1066.147      206.224      334.806        0.113        0.080       24.270       15.925        0.431      339.235       12.430      863.156
12/01/2014  14:18:00       10.698       14.731        6.981       10.709       17.235       12.622      114.689      297.032      159.322        0.048        0.029       18.206       12.636        0.482      339.411       12.726      863.152
12/01/2014  14:19:00      -31.232       22.383       -9.827       37.095       22.620       14.522     1376.061      511.654      210.877        0.184        0.105       38.425       15.637        0.166      339.433       12.764      863.135
12/01/2014  14:20:00        8.502       48.934        9.595       51.510       22.140       29.359     2653.274      490.196      861.935        0.328        0.200       49.667       29.627        0.356      339.360       12.639      863.140
12/01/2014  14:21:00       13.457       47.064       48.959       38.320       25.998       31.747     1468.436      675.884     1007.877        0.397        0.158       48.950       31.934        0.426      339.377       12.669      863.141
12/01/2014  14:22:00       53.896       74.181        9.828       62.134       59.936       50.278     3860.667     3592.357     2527.878        0.924        0.499       91.693       41.820        0.208      339.255       12.462      863.130
12/01/2014  14:23:00      123.918       84.645       17.354       49.750       38.728       33.827     2475.015     1499.878     1144.258        1.397        0.256      150.068       19.052        0.016      339.093       12.190      863.121
12/01/2014  14:24:00      158.348       96.770       19.992       83.209       44.820       43.775     6923.672     2008.845     1916.291        2.284        0.542      185.576       25.582        0.019      339.093       12.187      863.127
12/01/2014  14:25:00      155.025      103.419       -1.193       50.605       45.881       44.272     2560.906     2105.049     1960.029        2.068        0.331      186.355       30.159        0.026      339.038       12.097      863.131
12/01/2014  14:26:00       90.700       63.574        8.563       52.741       32.738       24.243     2781.620     1071.798      587.745        0.839        0.222      110.762       20.357        0.034      339.104       12.209      863.134
12/01/2014  14:27:00       72.551       65.060       -7.581       31.455       28.240       18.292      989.407      797.477      334.581        0.584        0.106       97.449       13.268        0.019      339.065       12.143      863.131
12/01/2014  14:28:00       56.580       49.492        1.561       22.145       17.942       13.746      490.396      321.923      188.944        0.333        0.050       75.172        5.514        0.005      339.073       12.158      863.129
12/01/2014  14:29:00       90.563       68.309       13.052       10.685       11.270       13.453      114.171      127.018      180.974        0.673        0.021      113.436        6.526        0.003      339.057       12.130      863.119
12/01/2014  14:30:00       47.958       47.948        2.740       44.209       22.438       21.973     1954.478      503.462      482.803        0.377        0.147       67.816       16.077        0.056      339.138       12.265      863.122
12/01/2014  14:31:00       39.237       45.452       14.179       50.095       34.094       23.553     2509.487     1162.396      554.736        0.402        0.211       60.045       18.116        0.091      339.261       12.474      863.124
12/01/2014  14:32:00       59.772       16.265       -6.149       36.653       25.763       30.416     1343.413      663.715      925.142        0.340        0.147       61.946       13.975        0.051      339.203       12.375      863.118
12/01/2014  14:33:00       -1.312       24.491      -17.974       16.572       15.175       13.866      274.642      230.280      192.253        0.081        0.035       24.526       11.981        0.239      339.242       12.441      863.102
12/01/2014  14:34:00       83.090       28.670        6.459       49.179       25.973       22.383     2418.561      674.592      500.991        0.568        0.180       87.897       14.051        0.026      339.238       12.434      863.074
12/01/2014  14:35:00       59.719       27.011        5.394       30.243       22.144       20.658      914.656      490.339      426.759        0.308        0.092       65.543        7.494        0.013      339.208       12.384      863.067
12/01/2014  14:36:00       30.350       41.771       -2.105       18.922       24.378       12.359      358.046      594.286      152.742        0.189        0.055       51.633       10.699        0.043      339.224       12.410      863.062
12/01/2014  14:37:00       23.651       57.893       -7.305       29.821       24.054       19.612      889.263      578.613      384.642        0.291        0.093       62.538       19.146        0.094      339.376       12.666      863.047
12/01/2014  14:38:00       54.892       43.338       18.244       28.017       25.745       20.623      784.969      662.787      425.326        0.355        0.094       69.938       15.157        0.047      339.373       12.662      863.018
12/01/2014  14:39:00       13.609       54.678       -9.050       55.954       32.328       31.283     3130.893     1045.068      978.603        0.420        0.258       56.347       23.756        0.178      339.525       12.919      862.987
12/01/2014  14:40:00       66.783       88.877        5.815       58.334       61.316       28.569     3402.806     3759.701      816.201        1.018        0.399      111.171       25.255        0.052      339.402       12.709      862.974
12/01/2014  14:41:00       60.059       57.978        3.278       72.102       36.276       22.686     5198.701     1315.966      514.647        0.700        0.351       83.477       12.543        0.023      339.378       12.670      862.966
12/01/2014  14:42:00       37.886       64.455       -5.964       33.674       47.981       31.716     1133.948     2302.198     1005.883        0.503        0.222       74.765       29.223        0.153      339.337       12.602      862.961
12/01/2014  14:43:00       60.806       92.912       -1.910       53.544       44.030       29.570     2866.947     1938.620      874.371        0.901        0.284      111.040       23.515        0.045      339.286       12.516      862.945
12/01/2014  14:44:00      125.369       85.780       11.868       35.791       23.793       24.897     1280.962      566.122      619.881        1.284        0.123      151.907       18.034        0.014      339.148       12.281      862.945
12/01/2014  14:45:00       46.833       48.818        1.643       39.991       31.356       25.411     1599.297      983.216      645.702        0.390        0.161       67.650       15.085        0.050      339.219       12.403      862.954
12/01/2014  14:46:00        9.844       41.581       -0.384       25.505       44.155       25.313      650.505     1949.627      640.768        0.253        0.162       42.731       26.000        0.370      339.354       12.630      862.961
12/01/2014  14:47:00       37.300       51.573       -2.735       38.722       40.716       28.731     1499.400     1657.801      825.472        0.402        0.199       63.647       26.763        0.177      339.300       12.537      862.961
12/01/2014  14:48:00       94.527       65.997        2.091       34.008       26.003       21.996     1156.559      676.179      483.814        0.781        0.116      115.286       10.607        0.008      339.173       12.326      862.968
12/01/2014  14:49:00       48.393       71.114        3.384       35.402       27.920       29.792     1253.319      779.516      887.568        0.516        0.146       86.017       22.407        0.068      339.222       12.408      862.963
12/01/2014  14:50:00       43.850       42.384        7.154       26.367       25.267       24.298      695.214      638.428      590.380        0.285        0.096       60.985       22.613        0.137      339.283       12.511      862.962
12/01/2014  14:51:00       77.562       70.496       -4.279       39.423       28.379       23.295     1554.163      805.370      542.634        0.695        0.145      104.812       18.351        0.031      339.239       12.435      862.965
12/01/2014  14:52:00       23.771       89.182      -16.001       22.891       24.162       15.193      523.988      583.780      230.815        0.506        0.067       92.295       15.411        0.028      339.228       12.419      862.941
12/01/2014  14:53:00       12.486      109.923      -18.361       30.314       19.960       15.935      918.958      398.390      253.939        0.707        0.079      110.630        9.981        0.008      339.243       12.442      862.933
12/01/2014  14:54:00      -13.706       89.764      -17.058       14.387       25.413       14.093      206.993      645.834      198.599        0.479        0.053       90.805       12.785        0.020      339.241       12.440      862.940
12/01/2014  14:55:00        1.718       81.481       -6.963       18.759       37.664       16.475      351.883     1418.583      271.438        0.437        0.102       81.499       14.046        0.030      339.363       12.645      862.943
12/01/2014  14:56:00       29.472       81.742       -9.326       43.111       53.060       26.318     1858.561     2815.370      692.615        0.650        0.268       86.893       26.487        0.093      339.303       12.544      862.950
12/01/2014  14:57:00       24.199       30.612        6.210       37.412       44.894       28.980     1399.682     2015.449      839.843        0.291        0.213       39.022       26.804        0.472      339.363       12.645      862.961
12/01/2014  14:58:00       53.359       51.308        1.074       33.049       29.239       27.907     1092.266      854.942      778.778        0.410        0.136       74.025       21.784        0.087      339.312       12.558      862.962
12/01/2014  14:59:00       42.885        4.089       20.847       30.421       35.243       20.234      925.453     1242.068      409.424        0.243        0.129       43.080       18.404        0.182      339.412       12.727      862.963
12/01/2014  15:00:00       51.441       25.541        8.149       40.931       23.418       19.757     1675.373      548.410      390.321        0.299        0.131       57.433       19.105        0.111      339.426       12.752      862.943
12/01/2014  15:01:00      109.008       58.886       14.158       31.970       32.202       27.572     1022.103     1036.988      760.235        0.918        0.141      123.896       19.585        0.025      339.309       12.554      862.913
12/01/2014  15:02:00       45.001       40.932        0.858       39.731       13.558       24.263     1578.546      183.830      588.709        0.303        0.118       60.832       27.195        0.200      339.336       12.597      862.885
12/01/2014  15:03:00      -20.587       45.810      -23.034       26.670       19.405        8.983      711.307      376.552       80.689        0.211        0.058       50.223        7.431        0.022      339.397       12.701      862.859
12/01/2014  15:04:00        3.228       35.094        4.929       19.176       23.144       18.588      367.705      535.635      345.509        0.126        0.062       35.242       18.747        0.283      339.512       12.897      862.843
12/01/2014  15:05:00       -4.964       82.872      -10.812       12.635       24.373       12.665      159.654      594.056      160.407        0.396        0.046       83.020       10.577        0.016      339.453       12.797      862.826
12/01/2014  15:06:00      -49.363       23.113      -10.579       27.409       18.878       16.963      751.264      356.370      287.741        0.224        0.070       54.506       13.384        0.060      339.639       13.111      862.811
12/01/2014  15:07:00      -58.515       35.106      -13.378       16.797       23.205       15.023      282.143      538.463      225.683        0.294        0.052       68.238       11.309        0.027      339.676       13.173      862.795
12/01/2014  15:08:00      -41.556       50.923       -0.735       36.722       27.174       25.026     1348.524      738.452      626.279        0.352        0.136       65.727       23.718        0.130      339.739       13.279      862.781
12/01/2014  15:09:00       34.188       30.284       12.336       38.704       35.566       21.258     1498.028     1264.975      451.890        0.273        0.161       45.673       14.141        0.096      339.563       12.982      862.777
12/01/2014  15:10:00       23.102       39.303        9.663       30.947       33.850       23.700      957.696     1145.813      561.693        0.242        0.133       45.589       15.720        0.119      339.549       12.959      862.763
12/01/2014  15:11:00       30.446       82.739       -7.880       53.449       31.887       28.201     2856.771     1016.793      795.319        0.625        0.233       88.163       15.534        0.031      339.434       12.763      862.765
12/01/2014  15:12:00       -6.987       41.674        7.409       38.374       25.417       21.308     1472.537      646.010      454.025        0.221        0.129       42.256       16.260        0.148      339.650       13.129      862.752
12/01/2014  15:13:00       12.036       44.833       -3.266       23.900       28.117       17.770      571.210      790.581      315.766        0.192        0.084       46.421       14.939        0.104      339.599       13.042      862.731
12/01/2014  15:14:00       60.558       22.404        6.339       29.779       25.161       20.028      886.801      633.099      401.122        0.306        0.096       64.570       14.059        0.047      339.540       12.942      862.702
12/01/2014  15:15:00       29.629       75.330       -0.750       30.038       48.202       27.151      902.256     2323.454      737.188        0.526        0.198       80.947       28.638        0.125      339.515       12.902      862.675
12/01/2014  15:16:00       39.319       49.093       -2.278       21.083       27.556       18.289      444.495      759.320      334.490        0.275        0.077       62.898       14.352        0.052      339.474       12.831      862.649
12/01/2014  15:17:00       51.252       35.293       -1.193       20.500       25.315       19.206      420.253      640.865      368.854        0.265        0.071       62.229        9.833        0.025      339.387       12.686      862.637
12/01/2014  15:18:00       51.723       27.392        6.662       37.648       25.899       19.864     1417.390      670.751      394.563        0.298        0.124       58.528        7.588        0.017      339.508       12.890      862.624
12/01/2014  15:19:00       38.731       37.328       -7.300       15.392       24.330       17.733      236.916      591.949      314.462        0.204        0.057       53.791        7.698        0.020      339.466       12.818      862.620
12/01/2014  15:20:00        4.361       68.116       -7.470       29.080       50.407       20.856      845.663     2540.898      434.969        0.427        0.191       68.255       26.528        0.151      339.507       12.888      862.613
12/01/2014  15:21:00       63.259       80.387      -10.411       27.227       50.805       24.584      741.299     2581.127      604.367        0.725        0.196      102.292       30.254        0.087      339.497       12.869      862.612
12/01/2014  15:22:00       41.093       38.802        8.425       36.643       26.318       20.335     1342.745      692.624      413.514        0.286        0.122       56.517       15.987        0.080      339.556       12.970      862.604
12/01/2014  15:23:00       59.365       32.327        3.285       53.593       45.406       24.320     2872.165     2061.681      591.482        0.505        0.276       67.596       25.607        0.144      339.471       12.827      862.596
12/01/2014  15:24:00       86.621       36.788       19.121       44.582       31.306       29.504     1987.572      980.075      870.459        0.653        0.192       94.109       14.199        0.023      339.404       12.715      862.588
12/01/2014  15:25:00       44.769       31.539        5.029       23.080       19.588       18.204      532.674      383.704      331.371        0.214        0.062       54.763        5.593        0.010      339.430       12.759      862.577
12/01/2014  15:26:00        9.780       99.679       -9.125       19.836       64.874       24.586      393.467     4208.642      604.472        0.766        0.260      100.158       37.873        0.143      339.454       12.799      862.565
12/01/2014  15:27:00      -12.725      128.265      -21.810       16.197       24.923       10.656      262.335      621.157      113.558        0.904        0.050      128.895        5.277        0.002      339.442       12.779      862.555
12/01/2014  15:28:00      -12.033      113.530      -21.926       16.528       20.664       10.908      273.168      427.008      118.978        0.717        0.041      114.165        5.771        0.003      339.435       12.768      862.547
12/01/2014  15:29:00        1.980       78.194       -6.473       10.072       27.678       11.940      101.438      766.079      142.553        0.358        0.051       78.219        8.159        0.011      339.486       12.852      862.526
12/01/2014  15:30:00      -20.116       56.888        1.459       23.876       36.010       18.206      570.064     1296.698      331.470        0.292        0.110       60.340       15.154        0.063      339.593       13.032      862.515
12/01/2014  15:31:00      -60.931       36.240      -17.520       28.460       30.088       14.439      809.996      905.296      208.471        0.363        0.096       70.894       12.817        0.033      339.491       12.861      862.508
12/01/2014  15:32:00      -51.618       48.215      -18.604       25.758       24.021       13.315      663.495      577.025      177.295        0.338        0.071       70.634       11.133        0.025      339.693       13.201      862.489
12/01/2014  15:33:00      -74.618       59.394      -21.629       19.045       37.362       15.444      362.696     1395.897      238.509        0.578        0.100       95.370       16.243        0.029      339.577       13.006      862.469
12/01/2014  15:34:00      -65.881       48.440       -8.622       26.524       28.561       18.788      703.523      815.718      352.983        0.432        0.094       81.773       16.294        0.040      339.619       13.077      862.444
12/01/2014  15:35:00      -62.748       85.949      -19.918       32.775       31.361       17.898     1074.170      983.520      320.327        0.705        0.119      106.417       14.397        0.018      339.611       13.063      862.418
12/01/2014  15:36:00      -25.322       68.956       -1.365       18.789       29.332       15.746      353.022      860.344      247.939        0.343        0.073       73.458       13.673        0.035      339.705       13.222      862.402
12/01/2014  15:37:00      -30.211      100.008      -18.641       20.375       25.463       15.266      415.148      648.340      233.055        0.628        0.065      104.472        9.405        0.008      339.557       12.972      862.395
12/01/2014  15:38:00      -44.574       47.643       -4.115       24.493       37.742       21.385      599.894     1424.478      457.298        0.338        0.124       65.243       23.818        0.133      339.693       13.202      862.388
12/01/2014  15:39:00      -28.869       72.570       -6.393       23.510       34.993       19.375      552.722     1224.529      375.392        0.415        0.108       78.102       14.308        0.034      339.695       13.206      862.384
12/01/2014  15:40:00      -35.322       62.867       -7.816       22.777       28.401       19.255      518.801      806.639      370.770        0.348        0.085       72.110       19.299        0.072      339.630       13.096      862.376
12/01/2014  15:41:00      -33.326       52.158      -11.670       16.003       19.109       13.982      256.087      365.135      195.485        0.239        0.041       61.896        9.042        0.021      339.715       13.239      862.357
12/01/2014  15:42:00      -22.430       61.164      -10.089       20.374       37.247       19.708      415.083     1387.307      388.421        0.327        0.110       65.147       23.379        0.129      339.604       13.052      862.343
12/01/2014  15:43:00        3.402       82.519      -12.601       17.511       55.516       16.573      306.635     3081.987      274.658        0.532        0.183       82.589       27.401        0.110      339.604       13.050      862.337
12/01/2014  15:44:00       -9.933      156.761      -26.512       22.662       23.369       11.287      513.555      546.101      127.406        1.328        0.059      157.075        8.526        0.003      339.472       12.827      862.334
12/01/2014  15:45:00      -56.264       80.623      -11.029       31.834       37.243       22.709     1013.414     1387.053      515.681        0.635        0.146       98.314       16.503        0.028      339.623       13.083      862.333
12/01/2014  15:46:00      -61.622       18.606      -11.785       26.811       40.163       19.828      718.846     1613.087      393.144        0.350        0.136       64.370       15.187        0.056      339.622       13.081      862.329
12/01/2014  15:47:00      -73.300       29.524       -6.931       28.635       24.052       17.476      819.961      578.522      305.417        0.400        0.085       79.022       11.778        0.022      339.640       13.112      862.325
12/01/2014  15:48:00      -61.860       49.534      -20.900       20.696       19.514       14.105      428.336      380.806      198.963        0.386        0.050       79.248        8.155        0.011      339.630       13.096      862.319
12/01/2014  15:49:00      -43.328       19.279       -5.582       20.006       19.596       17.348      400.227      384.019      300.941        0.168        0.054       47.424       13.135        0.077      339.659       13.144      862.325
12/01/2014  15:50:00      -30.430       33.896       -8.251       17.014       26.424       12.599      289.459      698.243      158.729        0.164        0.057       45.551        9.984        0.048      339.602       13.048      862.320
12/01/2014  15:51:00      -21.996       75.006      -10.251       27.689       27.886       15.836      766.692      777.631      250.782        0.400        0.090       78.165       16.155        0.043      339.580       13.009      862.316
12/01/2014  15:52:00      -20.311       71.281      -10.687       25.947       21.885       14.389      673.273      478.960      207.056        0.348        0.068       74.118        7.129        0.009      339.566       12.987      862.327
12/01/2014  15:53:00      -20.184       30.278        1.261       28.264       31.191       21.524      798.854      972.863      463.291        0.178        0.112       36.389       25.826        0.504      339.643       13.117      862.329
12/01/2014  15:54:00      -37.110       77.035      -14.225       20.833       20.291       12.001      433.995      411.735      144.017        0.425        0.049       85.507       11.528        0.018      339.580       13.010      862.338
12/01/2014  15:55:00      -28.240       64.824      -10.981       22.840       31.552       17.196      521.654      995.504      295.711        0.347        0.091       70.708       13.624        0.037      339.625       13.087      862.344
12/01/2014  15:56:00      -14.491       77.786      -10.735       23.943       18.824       11.417      573.271      354.330      130.341        0.372        0.053       79.124        7.569        0.009      339.647       13.123      862.342
12/01/2014  15:57:00       18.510       53.711       -3.928       23.233       36.930       17.501      539.750     1363.852      306.272        0.273        0.110       56.811       19.128        0.113      339.500       12.875      862.336
12/01/2014  15:58:00       32.332       33.931       -1.289       26.507       23.393       14.446      702.647      547.212      208.678        0.183        0.073       46.869       12.679        0.073      339.449       12.790      862.336
12/01/2014  15:59:00       37.529       24.500        4.556       28.090       29.158       24.014      789.075      850.168      576.674        0.212        0.111       44.818       16.840        0.141      339.388       12.687      862.346
12/01/2014  16:00:00       85.256       60.585       14.560       44.066       41.742       25.715     1941.781     1742.358      661.278        0.775        0.217      104.591       18.095        0.030      339.309       12.553      862.361
12/01/2014  16:01:00      108.224       72.036        6.204       37.699       31.972       21.725     1421.198     1022.188      471.979        0.993        0.146      130.006       14.785        0.013      339.355       12.631      862.366
12/01/2014  16:02:00       66.994       28.872        8.584       27.536       24.840       18.640      758.214      617.004      347.459        0.356        0.086       72.951       15.043        0.043      339.350       12.624      862.382
12/01/2014  16:03:00       54.854       32.316       16.903       25.514       21.125       16.642      650.967      446.269      276.945        0.286        0.069       63.666       10.908        0.029      339.369       12.655      862.398
12/01/2014  16:04:00       47.486       20.584       15.701       28.057       17.415       18.715      787.206      303.276      350.260        0.218        0.072       51.756       15.403        0.089      339.398       12.702      862.423
12/01/2014  16:05:00       21.502        5.982        8.200       22.571       17.567       11.693      509.433      308.583      136.722        0.076        0.048       22.319       11.087        0.247      339.408       12.721      862.444
12/01/2014  16:06:00       19.126       -3.751        8.504       18.772       13.302       10.657      352.390      176.939      113.580        0.055        0.032       19.490        9.103        0.218      339.397       12.701      862.454
12/01/2014  16:07:00       -2.941       23.311       -3.933       11.791       21.417       11.234      139.021      458.680      126.194        0.065        0.036       23.496       13.942        0.352      339.395       12.699      862.465
12/01/2014  16:08:00       10.517       52.977      -11.311       17.662       23.893       12.841      311.960      570.866      164.900        0.205        0.052       54.010       14.640        0.073      339.459       12.807      862.477
12/01/2014  16:09:00        7.081       33.477       -8.818       12.677       31.788       12.850      160.705     1010.478      165.134        0.129        0.067       34.217       15.166        0.196      339.464       12.815      862.475
12/01/2014  16:10:00        5.043       24.224       -7.573       10.072       17.398        8.168      101.447      302.704       66.713        0.057        0.024       24.743        6.991        0.080      339.410       12.725      862.475
12/01/2014  16:11:00        8.413       57.353      -11.228       16.269       25.148       11.351      264.683      632.412      128.843        0.226        0.051       57.967       10.162        0.031      339.398       12.704      862.477
12/01/2014  16:12:00        8.271       74.429       -8.746       15.078       26.856        9.873      227.359      721.260       97.483        0.337        0.052       74.887       10.872        0.021      339.392       12.696      862.479
12/01/2014  16:13:00       42.492      130.814      -22.701       28.135       30.978       18.761      791.602      959.658      351.961        1.077        0.105      137.542       18.037        0.017      339.317       12.569      862.485
12/01/2014  16:14:00       19.090       85.540       -6.621       26.370       27.349       23.544      695.372      747.994      554.335        0.486        0.100       87.645       15.741        0.032      339.256       12.463      862.487
12/01/2014  16:15:00       27.699       54.998       -8.436       25.923       43.196       18.782      671.987     1865.866      352.752        0.338        0.145       61.579       21.841        0.126      339.252       12.456      862.493
12/01/2014  16:16:00       45.368       70.544      -11.016       38.165       39.801       24.196     1456.547     1584.098      585.434        0.539        0.181       83.873       20.992        0.063      339.208       12.385      862.509
12/01/2014  16:17:00       63.469       62.635        4.643       36.050       35.747       36.647     1299.569     1277.883     1342.970        0.595        0.196       89.171       29.244        0.108      339.197       12.364      862.531
12/01/2014  16:18:00       41.511       73.794       -5.711       32.854       43.104       27.017     1079.408     1857.974      729.925        0.543        0.183       84.669       24.013        0.080      339.178       12.332      862.562
12/01/2014  16:19:00       67.863       50.304        0.074       46.665       24.462       21.910     2177.612      598.412      480.038        0.520        0.163       84.475       20.319        0.058      339.199       12.367      862.594
12/01/2014  16:20:00       17.032       29.670        5.221       27.507       21.549       17.258      756.632      464.342      297.831        0.136        0.076       34.211       14.346        0.176      339.111       12.219      862.616
12/01/2014  16:21:00       34.770       67.738       -2.144       39.703       32.598       28.005     1576.347     1062.622      784.282        0.461        0.171       76.140       19.504        0.066      339.198       12.367      862.643
12/01/2014  16:22:00        7.634       82.440       -8.675       28.169       37.358       25.851      793.503     1395.620      668.253        0.489        0.143       82.793       27.104        0.107      339.216       12.397      862.664
12/01/2014  16:23:00       26.105       50.497       -6.163       20.875       28.444       17.657      435.764      809.078      311.787        0.241        0.078       56.846       16.989        0.089      339.126       12.246      862.699
12/01/2014  16:24:00        2.876       73.862      -13.972       25.391       41.114       19.113      644.699     1690.389      365.290        0.418        0.135       73.918       20.190        0.075      339.160       12.302      862.731
12/01/2014  16:25:00       10.215       96.794      -13.815       32.645       37.906       14.103     1065.728     1436.852      198.907        0.618        0.135       97.332       17.238        0.031      339.154       12.292      862.754
12/01/2014  16:26:00       21.927      111.065      -18.119       16.996       24.885       11.588      288.863      619.266      134.275        0.709        0.052      113.209       11.245        0.010      339.170       12.321      862.782
12/01/2014  16:27:00       20.526       84.251      -13.037       20.241       20.202       13.029      409.678      408.139      169.742        0.434        0.049       86.715        9.013        0.011      339.147       12.280      862.812
12/01/2014  16:28:00       23.925       60.665       -7.309       27.072       32.946       19.401      732.909     1085.465      376.418        0.325        0.110       65.212       20.519        0.099      339.050       12.117      862.816
12/01/2014  16:29:00       34.203       38.132       -5.033       18.985       27.140       14.547      360.445      736.570      211.621        0.198        0.065       51.224       14.670        0.082      339.073       12.156      862.809
12/01/2014  16:30:00       34.719       25.517        4.613       26.695       15.973       14.343      712.623      255.132      205.724        0.153        0.059       43.087        4.691        0.012      339.008       12.046      862.790
12/01/2014  16:31:00       36.742       24.306       -0.540       13.955       13.018       10.389      194.740      169.461      107.923        0.121        0.024       44.054        6.314        0.021      338.975       11.992      862.762
12/01/2014  16:32:00       28.504       33.064       -3.532       11.562       11.483       10.552      133.685      131.866      111.355        0.115        0.019       43.654        7.554        0.030      338.952       11.954      862.742
12/01/2014  16:33:00       29.169       24.660       -0.496       22.841       12.166       11.951      521.710      148.012      142.828        0.114        0.041       38.196        8.777        0.053      338.979       11.996      862.720
12/01/2014  16:34:00       26.413       50.709       -7.676       12.227       15.495        8.806      149.505      240.080       77.545        0.190        0.023       57.176        5.773        0.010      339.069       12.148      862.701
12/01/2014  16:35:00       28.266       47.264      -11.760       15.766       13.823       12.761      248.557      191.076      162.839        0.189        0.030       55.072        7.088        0.017      339.054       12.125      862.683
12/01/2014  16:36:00       16.881       43.731       -9.978       13.133       25.182        8.960      172.472      634.139       80.276        0.159        0.044       46.876       12.050        0.066      339.004       12.040      862.681
12/01/2014  16:37:00       19.356       58.563      -11.765       13.547       20.650       10.288      183.531      426.404      105.845        0.233        0.036       61.679       10.087        0.027      339.058       12.130      862.669
12/01/2014  16:38:00       24.207       63.643      -11.894       15.580       22.643        9.256      242.723      512.706       85.670        0.281        0.042       68.092        6.438        0.009      339.031       12.084      862.669
12/01/2014  16:39:00        8.068       75.546      -15.157       19.285       27.656        9.630      371.928      764.843       92.745        0.362        0.061       75.976        9.761        0.017      339.053       12.122      862.670
12/01/2014  16:40:00       -3.558      107.388      -17.718       16.387       17.760        8.434      268.533      315.423       71.125        0.626        0.033      107.447        7.723        0.005      339.091       12.184      862.677
12/01/2014  16:41:00       -5.689      108.069      -17.708       13.883       17.174        9.876      192.740      294.950       97.527        0.630        0.029      108.219        8.105        0.006      339.109       12.217      862.692
12/01/2014  16:42:00       -2.626       86.794      -10.970       15.788       12.362        8.206      249.255      152.831       67.331        0.406        0.023       86.834        7.160        0.007      339.151       12.286      862.690
12/01/2014  16:43:00      -11.672       69.629      -12.905       18.544       22.027       10.401      343.869      485.207      108.186        0.304        0.047       70.600        9.688        0.019      339.213       12.393      862.693
12/01/2014  16:44:00      -22.613      100.016      -19.238       20.888       24.201       11.540      436.308      585.672      133.166        0.602        0.058      102.540       11.077        0.012      339.127       12.245      862.677
12/01/2014  16:45:00       -8.904       87.143      -14.595       13.246       14.047        9.410      175.469      197.326       88.545        0.417        0.023       87.597        5.842        0.004      339.118       12.232      862.689
12/01/2014  16:46:00       -9.135       73.877      -15.727        9.511       11.534        6.452       90.462      133.032       41.630        0.303        0.013       74.439        4.918        0.004      339.034       12.089      862.701
12/01/2014  16:47:00       -4.673       91.055      -16.684        8.670       14.713        6.311       75.163      216.479       39.824        0.446        0.017       91.175        4.975        0.003      339.032       12.085      862.718
12/01/2014  16:48:00       -3.325       71.506      -13.379       15.546       21.930        8.998      241.693      480.913       80.960        0.305        0.040       71.584       10.839        0.023      338.942       11.937      862.741
12/01/2014  16:49:00      -42.384       33.201       -8.440       22.341       15.434        8.717      499.104      238.207       75.986        0.189        0.041       53.840        5.121        0.009      338.965       11.974      862.757
12/01/2014  16:50:00      -54.567       20.152       -3.460       17.530       11.676       15.122      307.304      136.339      228.662        0.203        0.034       58.170       14.508        0.062      338.964       11.974      862.771
12/01/2014  16:51:00      -59.295       20.401      -10.780       10.863       20.630       12.433      118.014      425.585      154.586        0.237        0.035       62.706       12.203        0.038      338.915       11.890      862.795
12/01/2014  16:52:00      -59.546       30.042       -7.657       20.242       19.469       15.330      409.742      379.038      235.014        0.277        0.051       66.695       11.695        0.031      338.847       11.776      862.827
12/01/2014  16:53:00      -67.357       30.269       -6.400       14.717       16.083       11.915      216.593      258.659      141.967        0.306        0.031       73.846        8.311        0.013      338.813       11.720      862.857
12/01/2014  16:54:00      -75.204       -9.973      -14.221       14.495       16.888       12.353      210.092      285.190      152.590        0.330        0.032       75.863       10.707        0.020      338.467       11.139      862.886
12/01/2014  16:55:00      -63.201      -16.020       -4.763       26.899       27.481       21.108      723.532      755.218      445.554        0.310        0.096       65.200       12.235        0.035      338.252       10.777      862.898
12/01/2014  16:56:00     -188.698       28.827      -26.769       63.447       28.691       23.860     4025.539      823.161      569.296        2.129        0.271      190.887       18.362        0.009      338.191       10.671      862.917
12/01/2014  16:57:00     -248.477       56.573      -22.682       42.864       27.260       21.972     1837.361      743.116      482.754        3.426        0.153      254.836       18.189        0.005      338.056       10.443      862.927
12/01/2014  16:58:00     -189.157        6.609      -27.301       45.119       37.552       26.347     2035.685     1410.177      694.190        2.035        0.207      189.273       22.752        0.014      337.983       10.325      862.924
12/01/2014  16:59:00     -190.982       -8.772      -23.355       45.287       45.915       26.329     2050.916     2108.184      693.195        2.097        0.243      191.183       24.057        0.016      337.928       10.233      862.924
12/01/2014  17:00:00     -159.105        8.277      -15.871       32.269       31.427       25.794     1041.287      987.649      665.309        1.416        0.135      159.320       19.156        0.014      337.952       10.274      862.920
12/01/2014  17:01:00     -140.331       -0.704      -13.992       42.182       30.718       20.676     1779.303      943.599      427.478        1.152        0.158      140.333       19.830        0.020      337.911       10.205      862.927
12/01/2014  17:02:00     -178.745        8.410      -21.948       36.353       37.304       20.018     1321.544     1391.571      400.717        1.781        0.156      178.942       15.633        0.008      337.868       10.133      862.931
12/01/2014  17:03:00     -168.239       19.247      -18.492       32.193       31.072       19.767     1036.418      965.473      390.717        1.570        0.120      169.336       17.675        0.011      337.991       10.339      862.946
12/01/2014  17:04:00     -182.489       19.502      -12.680       20.164       17.926       13.659      406.576      321.349      186.555        1.738        0.046      183.528       10.245        0.003      337.889       10.169      862.951
12/01/2014  17:05:00     -193.227       29.314      -15.736       18.474       16.408       10.761      341.294      269.215      115.798        1.958        0.036      195.438        9.398        0.002      337.950       10.269      862.952
12/01/2014  17:06:00     -188.215       34.359      -11.558       23.548       16.480       14.661      554.497      271.585      214.950        1.889        0.052      191.326       12.339        0.004      338.037       10.416      862.934
12/01/2014  17:07:00     -212.399       41.315      -16.406       15.814       16.029        9.768      250.094      256.939       95.423        2.385        0.030      216.380        7.407        0.001      338.178       10.651      862.920
12/01/2014  17:08:00     -195.615       50.573      -10.456       29.910       23.003       17.963      894.581      529.154      322.677        2.134        0.087      202.047       12.217        0.004      338.053       10.442      862.914
12/01/2014  17:09:00     -159.737       38.898       -8.421       33.889       25.267       18.877     1148.432      638.443      356.351        1.462        0.107      164.404       13.632        0.007      338.088       10.501      862.915
12/01/2014  17:10:00     -128.260       36.352       -7.526       31.425       26.682       17.218      987.537      711.949      296.454        0.991        0.100      133.312       12.109        0.008      338.123       10.561      862.935
12/01/2014  17:11:00       -6.158        4.174        2.906       26.927       12.760       16.841      725.045      162.828      283.621        0.062        0.059        7.440       11.228        2.278      337.935       10.245      862.957
12/01/2014  17:12:00        8.747       18.577        5.762       22.611       22.883       20.254      511.253      523.646      410.212        0.095        0.072       20.533       13.463        0.430      337.935       10.244      862.973
12/01/2014  17:13:00       41.220       25.705       16.522       18.027       15.331       15.480      324.985      235.031      239.620        0.172        0.040       48.578        4.933        0.010      337.837       10.080      862.986
12/01/2014  17:14:00       -5.359       20.466        3.021       21.268       12.972        6.044      452.320      168.266       36.535        0.056        0.033       21.156        7.200        0.116      337.919       10.217      862.992
12/01/2014  17:15:00      -86.835        3.960      -12.719       21.689       20.381        9.639      470.399      415.372       92.908        0.435        0.049       86.925        9.458        0.012      337.874       10.142      862.985
12/01/2014  17:16:00     -141.957      -35.678      -11.918       28.404       24.007       14.124      806.768      576.348      199.500        1.157        0.079      146.372       14.465        0.010      337.819       10.052      862.981
12/01/2014  17:17:00     -119.257      -36.117       -0.435       40.594       30.346       17.747     1647.850      920.894      314.947        0.920        0.144      124.606       16.766        0.018      337.886       10.162      862.993
12/01/2014  17:18:00     -162.506      -36.245       -3.157       35.260       32.004       19.100     1243.270     1024.248      364.812        1.518        0.132      166.499       18.694        0.013      338.012       10.374      863.004
12/01/2014  17:19:00     -167.985      -37.272       -3.546       40.516       32.368       22.629     1641.555     1047.659      512.062        1.641        0.160      172.071       22.176        0.017      338.242       10.760      863.016
12/01/2014  17:20:00     -127.180      -14.633       -5.996       37.285       49.439       22.881     1390.173     2444.192      523.553        1.039        0.218      128.019       21.163        0.027      338.179       10.655      863.023
12/01/2014  17:21:00     -103.628       -7.717      -11.242       36.552       34.564       22.803     1336.033     1194.688      519.969        0.699        0.153      103.915       20.925        0.041      338.156       10.615      863.042
12/01/2014  17:22:00     -108.951       18.874      -15.688       36.540       22.323       19.255     1335.203      498.299      370.771        0.734        0.110      110.573       18.320        0.027      338.177       10.650      863.049
12/01/2014  17:23:00     -155.368       26.867      -12.759       25.242       27.711       16.758      637.172      767.891      280.833        1.335        0.084      157.674       14.077        0.008      338.125       10.565      863.054
12/01/2014  17:24:00     -135.867       30.824      -10.860       27.184       30.676       13.851      738.994      940.993      191.842        1.070        0.094      139.319        7.062        0.003      338.184       10.662      863.054
12/01/2014  17:25:00     -104.444       27.611      -13.297       21.289       16.973       11.148      453.207      288.082      124.271        0.636        0.043      108.032        5.519        0.003      338.264       10.797      863.048
12/01/2014  17:26:00      -53.274       32.565      -10.323       13.894       24.500       12.549      193.046      600.237      157.468        0.248        0.048       62.438        9.763        0.024      338.473       11.147      863.035
12/01/2014  17:27:00      -48.871       74.080      -13.787       23.641       24.323       12.913      558.910      591.619      166.757        0.469        0.066       88.749       13.957        0.025      338.733       11.585      863.023
12/01/2014  17:28:00        6.025       55.047       -5.814       26.487       23.503       11.860      701.550      552.372      140.670        0.225        0.070       55.376        9.756        0.031      338.676       11.490      863.043
12/01/2014  17:29:00       -7.736       14.835       -7.801       17.882       14.228        9.790      319.772      202.441       95.847        0.048        0.031       16.730        6.288        0.141      338.183       10.662      863.049
12/01/2014  17:30:00      -17.352      -17.043       -8.565       12.881       11.132       11.291      165.925      123.913      127.496        0.054        0.021       24.322        7.462        0.094      337.959       10.284      863.065
12/01/2014  17:31:00      -30.753       -7.360       -3.186       14.441       14.857        9.652      208.552      220.739       93.169        0.077        0.026       31.622        7.410        0.055      337.878       10.149      863.067
12/01/2014  17:32:00      -18.478       -6.171       -3.877        6.317        7.137        4.822       39.908       50.933       23.248        0.025        0.006       19.481        4.062        0.043      337.926       10.229      863.080
12/01/2014  17:33:00        1.808        4.294       -5.974        6.548        5.666        4.474       42.880       32.106       20.019        0.008        0.005        4.659        1.727        0.137      337.994       10.343      863.101
12/01/2014  17:34:00       29.675       17.737        4.732        9.753        7.704        4.486       95.118       59.352       20.128        0.070        0.009       34.572        3.575        0.011      338.041       10.422      863.116
12/01/2014  17:35:00       49.465       23.684       -1.491       17.693       11.688        8.513      313.035      136.614       72.463        0.177        0.026       54.843        6.158        0.013      337.815       10.045      863.142
12/01/2014  17:36:00       28.442       34.643       -4.953       10.217       14.321        7.722      104.393      205.104       59.630        0.120        0.018       44.823        8.388        0.035      337.650        9.767      863.164
12/01/2014  17:37:00       38.270       44.492       -4.529       17.672       20.018       12.590      312.313      400.700      158.511        0.217        0.044       58.687        8.586        0.021      337.926       10.229      863.187
12/01/2014  17:38:00       28.786       79.084       -9.068       23.865       36.683       17.813      569.516     1345.664      317.298        0.470        0.112       84.160       17.105        0.041      338.128       10.568      863.203
12/01/2014  17:39:00       43.185       60.465        4.085       38.347       25.852       26.247     1470.457      668.341      688.887        0.418        0.141       74.303       19.660        0.070      338.085       10.499      863.204
12/01/2014  17:40:00      100.176       58.752        6.130       29.555       19.149       19.061      873.515      366.703      363.341        0.756        0.080      116.134       10.509        0.008      338.015       10.377      863.206
12/01/2014  17:41:00       51.233       20.665        6.529       29.602       22.641       17.052      876.304      512.602      290.783        0.239        0.084       55.244       15.500        0.079      337.827       10.065      863.185
12/01/2014  17:42:00       87.115       53.531       19.099       23.473       20.882       19.163      550.969      436.078      367.209        0.609        0.068      102.248        4.742        0.002      337.786        9.995      863.183
12/01/2014  17:43:00       43.394       55.881        0.132       35.549       35.526       24.067     1263.731     1262.080      579.209        0.405        0.155       70.752       19.921        0.079      337.813       10.042      863.165
12/01/2014  17:44:00       47.581       84.442       -2.872       40.048       44.561       31.178     1603.839     1985.683      972.067        0.698        0.228       96.925       31.941        0.109      337.913       10.208      863.143
12/01/2014  17:45:00       28.876       91.594      -13.377       31.950       46.206       29.261     1020.827     2135.024      856.217        0.671        0.201       96.039       28.519        0.088      337.913       10.208      863.128
12/01/2014  17:46:00      -15.625      179.016      -25.775       26.624       45.101       17.495      708.847     2034.082      306.088        1.800        0.152      179.697       18.777        0.011      338.081       10.490      863.089
12/01/2014  17:47:00      -16.052      162.578      -21.971       33.080       35.100       15.216     1094.284     1232.016      231.516        1.486        0.128      163.369       11.938        0.005      338.007       10.366      863.065
12/01/2014  17:48:00       36.785      112.868      -12.777       43.298       56.277       39.763     1874.715     3167.105     1581.083        1.044        0.331      118.711       40.013        0.114      337.908       10.199      863.028
12/01/2014  17:49:00       22.773      156.888      -23.292       32.237       45.111       28.805     1039.223     2035.013      829.707        1.479        0.195      158.532       27.484        0.030      337.889       10.168      863.014
12/01/2014  17:50:00       21.336      102.702       -8.256       31.221       57.330       26.907      974.769     3286.782      724.012        0.803        0.249      104.895       29.550        0.079      337.828       10.066      863.010
12/01/2014  17:51:00       28.652      118.821      -16.727       19.349       39.658       20.915      374.378     1572.733      437.456        0.880        0.119      122.227       20.379        0.028      337.809       10.034      863.013
12/01/2014  17:52:00       40.039       68.523       -8.287       22.825       40.024       22.003      520.967     1601.940      484.121        0.449        0.130       79.363       21.187        0.071      337.776        9.978      863.038
12/01/2014  17:53:00       84.337       46.776       12.952       28.556       26.964       26.021      815.471      727.055      677.110        0.584        0.111       96.440       15.330        0.025      337.697        9.847      863.047
12/01/2014  17:54:00       69.808       52.474       39.218       28.751       26.933       23.218      826.632      725.409      539.078        0.563        0.105       87.331       14.924        0.029      337.583        9.656      863.065
12/01/2014  17:55:00       67.329       70.743       48.483       30.737       31.501       34.048      944.759      992.320     1159.238        0.749        0.155       97.661       26.775        0.075      337.578        9.646      863.088
12/01/2014  17:56:00       78.208       51.732       44.164       42.629       36.745       33.030     1817.265     1350.206     1090.977        0.750        0.213       93.769       24.914        0.071      337.551        9.602      863.120
12/01/2014  17:57:00       61.708       29.318       33.398       37.446       30.704       26.637     1402.207      942.763      709.550        0.442        0.153       68.318       17.365        0.065      337.470        9.465      863.157
12/01/2014  17:58:00       75.564       39.010       29.769       36.316       39.647       26.029     1318.832     1571.870      677.514        0.584        0.178       85.040       21.759        0.065      337.481        9.484      863.185
12/01/2014  17:59:00       71.673        7.427       11.269       45.996       28.008       26.816     2115.646      784.425      719.113        0.447        0.181       72.056       24.911        0.120      337.462        9.452      863.220
12/01/2014  18:00:00       61.730        2.871       14.804       48.528       35.653       27.688     2355.010     1271.118      766.639        0.421        0.220       61.797       18.865        0.093      337.501        9.516      863.229
12/01/2014  18:01:00       70.661       -0.682        7.810       44.159       20.718       16.503     1950.005      429.244      272.359        0.385        0.133       70.665       11.080        0.025      337.546        9.594      863.249
12/01/2014  18:02:00       90.179       16.423       24.975       51.801       42.710       39.228     2683.350     1824.112     1538.838        0.753        0.302       91.662       30.661        0.112      337.583        9.656      863.261
12/01/2014  18:03:00      104.015       42.502       18.530       48.736       38.582       27.563     2375.204     1488.558      759.707        0.880        0.231      112.363       18.367        0.027      337.623        9.721      863.258
12/01/2014  18:04:00       80.096        7.840       16.704       53.774       31.869       29.067     2891.664     1015.655      844.911        0.575        0.238       80.478       22.332        0.077      337.564        9.623      863.242
12/01/2014  18:05:00       73.232       15.641       14.610       32.575       29.507       27.268     1061.128      870.666      743.560        0.425        0.134       74.884       18.500        0.061      337.544        9.589      863.204
12/01/2014  18:06:00       74.002       43.261       18.002       33.429       31.199       27.309     1117.483      973.402      745.781        0.525        0.142       85.719       20.382        0.057      337.463        9.454      863.180
12/01/2014  18:07:00       91.175       42.027       14.298       32.810       30.911       21.601     1076.465      955.484      466.612        0.639        0.125      100.395       17.296        0.030      337.447        9.427      863.166
12/01/2014  18:08:00       38.884       32.610        6.331       29.472       18.205       15.495      868.586      331.406      240.109        0.203        0.072       50.748       10.063        0.039      337.351        9.266      863.158
12/01/2014  18:09:00       28.121       38.447       -7.184       25.898       30.460       17.697      670.715      927.793      313.186        0.212        0.096       47.634       19.368        0.165      337.343        9.253      863.154
12/01/2014  18:10:00       46.300       56.835       -4.347       28.192       28.759       22.007      794.788      827.078      484.323        0.375        0.105       73.307       13.053        0.032      337.471        9.466      863.130
12/01/2014  18:11:00       67.121       55.988        7.043       36.644       23.423       25.875     1342.765      548.649      669.520        0.512        0.128       87.407       19.021        0.047      337.545        9.591      863.124
12/01/2014  18:12:00       31.899       51.593       -2.990       22.156       39.815       21.823      490.871     1585.259      476.225        0.312        0.128       60.658       22.774        0.141      337.419        9.381      863.109
12/01/2014  18:13:00       57.150       62.730      -11.584       32.216       31.797       21.904     1037.887     1011.027      479.804        0.493        0.126       84.860       17.138        0.041      337.469        9.463      863.108
12/01/2014  18:14:00      103.665       66.988       16.847       61.978       33.965       28.114     3841.330     1153.592      790.423        1.065        0.289      123.426       24.784        0.040      337.454        9.438      863.115
12/01/2014  18:15:00      121.314       68.210       18.926       34.315       37.147       23.114     1177.526     1379.907      534.244        1.141        0.155      139.174       18.441        0.018      337.410        9.366      863.118
12/01/2014  18:16:00       90.792       57.846       29.856       34.513       20.581       28.015     1191.117      423.579      784.821        0.744        0.120      107.654       19.546        0.033      337.314        9.205      863.141
12/01/2014  18:17:00       34.084       47.383       53.875       36.440       29.022       23.972     1327.892      842.248      574.661        0.453        0.137       58.369       19.722        0.114      337.288        9.162      863.167
12/01/2014  18:18:00       59.166       46.945       47.073       43.620       34.427       28.167     1902.743     1185.222      793.362        0.590        0.194       75.528       20.451        0.073      337.330        9.231      863.173
12/01/2014  18:19:00       43.555       19.003       35.820       41.756       24.908       27.589     1743.598      620.422      761.177        0.333        0.156       47.520       26.944        0.321      337.342        9.251      863.177
12/01/2014  18:20:00        7.745       31.653       51.648       25.598       29.578       27.644      655.262      874.862      764.215        0.301        0.115       32.587       19.264        0.349      337.249        9.095      863.174
12/01/2014  18:21:00       58.525       55.158       55.830       41.205       34.042       28.117     1697.843     1158.836      790.541        0.662        0.182       80.422       28.621        0.127      337.307        9.193      863.164
12/01/2014  18:22:00       59.700       14.724       39.317       46.448       33.785       31.736     2157.434     1141.410     1007.152        0.482        0.215       61.489       27.595        0.201      337.319        9.213      863.178
12/01/2014  18:23:00       38.872       39.855       51.617       34.705       33.175       32.421     1204.467     1100.606     1051.119        0.456        0.168       55.672       21.556        0.150      337.350        9.264      863.184
12/01/2014  18:24:00       12.351       40.934       55.526       29.872       28.790       23.455      892.348      828.846      550.151        0.359        0.114       42.757       22.039        0.266      337.374        9.305      863.210
12/01/2014  18:25:00       25.740       37.679       40.982       26.920       40.489       32.562      724.706     1639.328     1060.279        0.359        0.171       45.631       28.368        0.386      337.343        9.252      863.226
12/01/2014  18:26:00       19.116       23.292       39.097       27.933       22.744       19.250      780.236      517.306      370.579        0.205        0.083       30.132       17.263        0.328      337.382        9.318      863.231
12/01/2014  18:27:00        0.066       10.290       17.990        8.869       12.288        9.083       78.656      151.000       82.501        0.037        0.016       10.291        7.851        0.582      337.322        9.218      863.241
12/01/2014  18:28:00       69.947       42.697       10.726       23.738       21.971       14.040      563.474      482.742      197.131        0.404        0.062       81.949        8.578        0.011      337.491        9.502      863.234
12/01/2014  18:29:00       28.544       24.731        8.396       31.262       16.092       12.110      977.328      258.966      146.649        0.144        0.069       37.767       10.961        0.084      337.460        9.449      863.227
12/01/2014  18:30:00       19.024       48.463        0.660       13.917       24.992       13.462      193.688      624.616      181.236        0.186        0.050       52.063       10.473        0.040      337.502        9.519      863.231
12/01/2014  18:31:00       -4.255       76.734      -15.032       19.979       15.201        7.552      399.154      231.068       57.033        0.341        0.034       76.852        9.222        0.014      337.695        9.843      863.227
12/01/2014  18:32:00      -22.430       14.476      -14.656       17.508       34.735       10.148      306.535     1206.522      102.973        0.127        0.081       26.695       11.248        0.178      337.600        9.683      863.223
12/01/2014  18:33:00      -21.821       13.074      -11.076       15.850       20.176       10.041      251.212      407.089      100.824        0.076        0.038       25.438        4.943        0.038      337.524        9.555      863.220
12/01/2014  18:34:00      -16.474        9.970       -7.079       12.070       14.253        9.411      145.677      203.161       88.558        0.043        0.022       19.256        6.940        0.130      337.566        9.628      863.215
12/01/2014  18:35:00      -12.567       35.780      -10.360       14.934       14.220       10.806      223.030      202.207      116.768        0.104        0.027       37.923        5.769        0.023      337.703        9.856      863.217
12/01/2014  18:36:00      -21.710       -8.839       -0.008       21.767       20.563        8.214      473.781      422.826       67.467        0.076        0.048       23.441        9.303        0.157      337.525        9.558      863.216
12/01/2014  18:37:00      -28.992       -6.084       -3.984       28.834       34.823       13.492      831.401     1212.643      182.031        0.156        0.111       29.624       12.910        0.190      337.162        8.950      863.205
12/01/2014  18:38:00      -42.014      -35.987       -4.782       22.996       16.971       12.469      528.797      288.017      155.480        0.203        0.049       55.319       11.903        0.046      337.186        8.989      863.221
12/01/2014  18:39:00      -74.589      -27.344      -13.249       13.896       16.508       10.796      193.086      272.530      116.550        0.353        0.029       79.443        9.128        0.013      337.081        8.815      863.242
12/01/2014  18:40:00      -82.321      -19.081      -14.892       18.572       16.192       11.361      344.915      262.168      129.069        0.405        0.037       84.503        4.102        0.002      336.916        8.538      863.266
12/01/2014  18:41:00      -69.399      -18.246      -10.075       27.862       19.682       14.364      776.298      387.366      206.320        0.331        0.068       71.758       13.538        0.036      336.822        8.383      863.281
12/01/2014  18:42:00      -39.117      -31.095        9.589       31.026       32.515       20.751      962.604     1057.235      430.610        0.252        0.123       49.970       17.447        0.122      336.696        8.170      863.294
12/01/2014  18:43:00      -44.434      -18.427        7.848       44.869       26.635       17.067     2013.255      709.437      291.274        0.269        0.151       48.103       11.231        0.055      336.861        8.445      863.301
12/01/2014  18:44:00      -16.204       -6.288       13.039       27.639       21.470       16.465      763.923      460.968      271.099        0.098        0.075       17.382       17.554        1.020      336.716        8.207      863.299
12/01/2014  18:45:00      -77.732      -44.378        0.796       39.474       24.002       14.003     1558.216      576.107      196.088        0.517        0.117       89.508       15.336        0.029      336.679        8.145      863.297
12/01/2014  18:46:00      -96.626      -42.740       -6.717       24.995       18.996       12.831      624.775      360.855      164.634        0.618        0.058      105.656       11.694        0.012      336.614        8.035      863.306
12/01/2014  18:47:00      -83.190      -29.466       -2.164       35.323       27.238       17.321     1247.722      741.927      300.010        0.504        0.114       88.255       18.816        0.045      336.529        7.892      863.318
12/01/2014  18:48:00     -112.707      -16.440       -7.916       18.415       18.435       15.454      339.098      339.855      238.833        0.698        0.046      113.900        9.530        0.007      336.559        7.942      863.319
12/01/2014  18:49:00      -84.543      -31.463       -3.162       26.391       18.997       15.536      696.464      360.879      241.382        0.472        0.065       90.208       13.040        0.021      336.658        8.108      863.326
12/01/2014  18:50:00      -71.377      -13.456       -4.400       25.258       15.621       15.667      637.962      244.014      245.467        0.321        0.056       72.634       16.055        0.049      336.581        7.979      863.341
12/01/2014  18:51:00     -103.800        8.202      -15.765       13.408       14.465       11.655      179.761      209.245      135.838        0.581        0.026      104.123        6.705        0.004      336.636        8.072      863.355
12/01/2014  18:52:00     -116.494       27.316      -18.768       14.056       13.678        9.812      197.580      187.074       96.271        0.757        0.024      119.653        6.497        0.003      336.689        8.162      863.352
12/01/2014  18:53:00     -105.906        8.222      -15.870       29.752       20.684       14.991      885.193      427.832      224.719        0.654        0.077      106.225       12.221        0.013      336.751        8.264      863.350
12/01/2014  18:54:00     -128.062       -2.455      -20.303       26.851       15.173       12.233      721.002      230.227      149.646        0.896        0.055      128.086       12.252        0.009      336.816        8.372      863.334
12/01/2014  18:55:00     -125.978      -18.094      -11.923       29.719       20.766       20.424      883.211      431.226      417.137        0.904        0.087      127.271       14.090        0.012      336.672        8.132      863.298
12/01/2014  18:56:00      -67.537       -0.461       -5.225       34.669       38.458       25.664     1201.917     1479.017      658.655        0.396        0.167       67.538       21.702        0.103      336.659        8.111      863.254
12/01/2014  18:57:00      -89.466       30.376      -12.377       49.957       36.627       22.836     2495.734     1341.508      521.483        0.672        0.218       94.482       10.210        0.012      336.848        8.425      863.213
12/01/2014  18:58:00      -40.972       15.279       -4.469       31.692       31.545       20.083     1004.387      995.095      403.319        0.217        0.120       43.728       12.789        0.086      336.691        8.164      863.178
12/01/2014  18:59:00     -122.254       22.817      -10.854       44.288       28.967       24.019     1961.422      839.060      576.927        0.948        0.169      124.365       22.375        0.032      336.768        8.290      863.170
12/01/2014  19:00:00     -148.107       14.452      -13.442       53.674       29.526       22.502     2880.950      871.803      506.331        1.329        0.213      148.810       28.103        0.036      336.743        8.249      863.198
12/01/2014  19:01:00     -188.576       44.067      -23.754       35.493       38.127       19.267     1259.758     1453.675      371.203        2.058        0.154      193.657       12.630        0.004      336.556        7.937      863.213
12/01/2014  19:02:00     -170.621       11.375      -23.431       37.559       40.912       21.373     1410.692     1673.774      456.796        1.666        0.177      171.000       11.692        0.005      336.461        7.778      863.229
12/01/2014  19:03:00     -147.757      -17.130      -18.408       35.719       35.595       20.267     1275.860     1267.015      410.752        1.271        0.148      148.746       17.000        0.013      336.368        7.622      863.267
12/01/2014  19:04:00     -156.452        8.446      -10.902       34.344       30.098       19.521     1179.525      905.878      381.055        1.357        0.123      156.680       19.003        0.015      336.279        7.474      863.278
12/01/2014  19:05:00     -176.878       38.061      -11.690       50.080       30.977       23.305     2507.974      959.553      543.127        1.844        0.201      180.927       21.253        0.014      336.399        7.675      863.278
12/01/2014  19:06:00     -197.437       25.767      -18.525       42.735       31.912       20.318     1826.307     1018.345      412.832        2.162        0.163      199.112       21.355        0.012      336.466        7.784      863.285
12/01/2014  19:07:00     -168.016       48.572      -10.513       32.577       27.611       17.310     1061.235      762.369      299.638        1.641        0.106      174.896       12.114        0.005      336.456        7.770      863.278
12/01/2014  19:08:00     -171.831       53.743       -7.756       31.075       22.377       12.124      965.652      500.743      146.989        1.704        0.081      180.039        9.430        0.003      336.595        8.004      863.276
12/01/2014  19:09:00     -108.874       44.374       -4.190       36.862       21.586       22.016     1358.839      465.936      484.708        0.807        0.115      117.570       10.436        0.008      336.510        7.861      863.277
12/01/2014  19:10:00      -94.953       19.757      -15.211       29.520       31.673       17.543      871.422     1003.209      307.771        0.591        0.109       96.986       11.538        0.014      336.501        7.845      863.269
12/01/2014  19:11:00     -132.940       38.764      -11.258       37.070       20.738       17.732     1374.149      430.075      314.408        1.071        0.106      138.476        6.649        0.002      336.519        7.877      863.283
12/01/2014  19:12:00      -94.302       -8.611       -6.008       45.283       36.078       25.018     2050.553     1301.658      625.897        0.649        0.199       94.695       27.077        0.082      336.375        7.635      863.276
12/01/2014  19:13:00     -158.722       12.618       -9.626       42.522       46.295       21.277     1808.149     2143.229      452.724        1.492        0.220      159.222       24.131        0.023      336.457        7.770      863.267
12/01/2014  19:14:00     -123.999       -6.661      -18.019       32.415       36.287       23.446     1050.720     1316.779      549.735        0.933        0.146      124.178       13.495        0.012      336.393        7.665      863.249
12/01/2014  19:15:00     -132.171       -1.831      -10.824       32.827       40.066       21.885     1077.639     1605.250      478.944        1.038        0.158      132.183       17.703        0.018      336.353        7.598      863.243
12/01/2014  19:16:00     -154.847        7.317      -17.882       29.291       36.530       23.858      857.939     1334.450      569.211        1.356        0.138      155.019       19.959        0.017      336.430        7.726      863.254
12/01/2014  19:17:00     -108.130       13.893      -16.480       37.304       26.902       20.780     1391.594      723.693      431.821        0.735        0.127      109.018       16.618        0.023      336.429        7.724      863.252
12/01/2014  19:18:00      -97.814        0.826       -8.541       31.407       27.738       16.535      986.408      769.398      273.392        0.583        0.101       97.817       18.302        0.035      336.486        7.820      863.248
12/01/2014  19:19:00     -106.130        3.508       -9.990       25.367       22.798       15.418      643.481      519.728      237.713        0.639        0.070      106.188       11.271        0.011      336.395        7.669      863.256
12/01/2014  19:20:00      -77.779      -13.218       -3.919       35.012       25.233       18.743     1225.827      636.703      351.295        0.423        0.111       78.894       18.562        0.055      336.316        7.535      863.251
12/01/2014  19:21:00      -85.977      -22.608       -0.890       33.462       27.748       17.643     1119.721      769.968      311.263        0.505        0.110       88.900       15.452        0.030      336.288        7.490      863.245
12/01/2014  19:22:00      -89.902      -15.641       -4.830       28.174       25.584       15.314      793.758      654.521      234.510        0.502        0.084       91.252       11.247        0.015      336.248        7.422      863.247
12/01/2014  19:23:00      -94.528      -11.068      -10.034       22.888       26.363       16.310      523.872      695.011      266.022        0.532        0.074       95.174       13.898        0.021      336.162        7.278      863.242
12/01/2014  19:24:00      -90.872       -5.548       -8.997       26.506       33.139       18.353      702.553     1098.176      336.834        0.525        0.107       91.041       13.842        0.023      336.093        7.162      863.236
12/01/2014  19:25:00     -127.752        0.331      -16.691       39.096       32.635       21.390     1528.529     1065.057      457.512        0.982        0.153      127.752       17.262        0.018      336.027        7.052      863.238
12/01/2014  19:26:00     -113.842       23.952      -15.992       38.474       26.286       17.929     1480.271      690.962      321.456        0.814        0.125      116.335       14.014        0.015      336.213        7.364      863.226
12/01/2014  19:27:00     -129.500       27.403      -12.406       32.073       23.795       14.518     1028.708      566.181      210.764        0.974        0.090      132.367       10.354        0.006      336.359        7.608      863.211
12/01/2014  19:28:00     -104.637       14.498       -7.397       30.867       26.659       16.903      952.796      710.683      285.705        0.658        0.097      105.637       10.955        0.011      336.442        7.745      863.219
12/01/2014  19:29:00      -75.328        1.438       -5.990       35.115       27.346       18.740     1233.090      747.816      351.186        0.402        0.117       75.341       15.065        0.040      336.349        7.592      863.220
12/01/2014  19:30:00      -44.333        1.224       -7.100       34.340       18.791       19.541     1179.264      353.086      381.867        0.197        0.096       44.349       17.992        0.165      336.178        7.305      863.225
12/01/2014  19:31:00      -56.436      -14.700      -15.087       21.575       13.083       11.142      465.475      171.164      124.148        0.219        0.038       58.319        9.372        0.026      336.129        7.223      863.235
12/01/2014  19:32:00      -81.134      -12.633      -14.325       17.057       15.906       10.063      290.940      252.993      101.269        0.380        0.032       82.112        9.781        0.014      336.065        7.116      863.252
12/01/2014  19:33:00      -80.649      -13.496      -15.601       21.487       13.557        8.981      461.673      183.803       80.660        0.383        0.036       81.770        2.764        0.001      336.051        7.092      863.249
12/01/2014  19:34:00      -69.746      -19.321      -12.330       14.288       14.205        7.169      204.141      201.769       51.399        0.292        0.023       72.373        6.376        0.008      336.109        7.190      863.250
12/01/2014  19:35:00      -64.449      -16.941      -11.930        9.803       12.373        7.596       96.104      153.086       57.698        0.244        0.015       66.638        5.456        0.007      336.124        7.214      863.255
12/01/2014  19:36:00      -65.772      -14.184       -8.223       15.785       15.971       12.157      249.162      255.089      147.783        0.262        0.033       67.284        9.802        0.021      336.123        7.212      863.280
12/01/2014  19:37:00      -57.202      -10.489      -12.832       15.871       14.110        9.812      251.875      199.096       96.274        0.205        0.027       58.155        7.287        0.016      336.129        7.224      863.301
12/01/2014  19:38:00      -31.415      -33.345      -17.099       30.971       15.184       11.808      959.197      230.568      139.421        0.186        0.066       45.813        6.596        0.021      336.582        7.981      863.326
12/01/2014  19:39:00      -50.547      -27.964      -13.211       20.025       12.637        8.577      401.005      159.693       73.567        0.207        0.032       57.767        2.283        0.002      336.365        7.617      863.358
12/01/2014  19:40:00      -79.877      -22.406      -13.891       16.400       17.340       11.789      268.947      300.680      138.971        0.389        0.035       82.960        8.988        0.012      336.092        7.160      863.368
12/01/2014  19:41:00     -106.327       -2.400      -13.415       18.810       13.692       13.055      353.833      187.467      170.426        0.610        0.036      106.354        8.852        0.007      335.967        6.953      863.379
12/01/2014  19:42:00      -74.216        0.673      -17.873       13.818        6.533        8.065      190.948       42.675       65.048        0.306        0.015       74.219        5.954        0.006      335.971        6.960      863.386
12/01/2014  19:43:00      -46.694      -10.664       -6.765       11.611       13.709       10.047      134.813      187.947      100.941        0.138        0.021       47.896        5.581        0.014      336.278        7.473      863.399
12/01/2014  19:44:00      -46.141      -11.551       -7.264       11.719       13.677       10.784      137.340      187.062      116.304        0.138        0.022       47.565        8.548        0.032      336.302        7.512      863.421
12/01/2014  19:45:00      -40.547      -25.927       -7.381       14.307       21.441       12.170      204.686      459.699      148.106        0.159        0.041       48.128        6.725        0.020      336.366        7.620      863.431
12/01/2014  19:46:00      -57.928      -31.271      -16.328       12.136       13.705        8.412      147.293      187.832       70.754        0.250        0.020       65.830        5.537        0.007      336.170        7.291      863.428
12/01/2014  19:47:00      -75.502      -25.130      -15.473        8.826       12.306        7.969       77.891      151.426       63.497        0.343        0.015       79.574        4.775        0.004      336.025        7.049      863.429
12/01/2014  19:48:00      -71.609      -18.492      -14.928       10.046       10.495        9.132      100.914      110.135       83.389        0.299        0.015       73.958        3.804        0.003      336.066        7.119      863.440
12/01/2014  19:49:00      -57.675      -22.552      -10.883       15.310       14.258        8.320      234.410      203.280       69.228        0.223        0.025       61.928        7.149        0.013      335.968        6.953      863.437
12/01/2014  19:50:00      -60.904      -21.833      -12.241       12.928        9.809       10.222      167.123       96.220      104.481        0.235        0.018       64.699        4.747        0.005      335.985        6.983      863.430
12/01/2014  19:51:00      -69.510      -22.955      -14.215       14.505       11.152        7.765      210.394      124.375       60.299        0.298        0.020       73.202        3.809        0.003      335.860        6.777      863.426
12/01/2014  19:52:00      -90.953      -16.862      -22.653       10.890       12.016       10.999      118.601      144.381      120.972        0.473        0.019       92.503        8.876        0.009      335.891        6.827      863.424
12/01/2014  19:53:00      -84.414      -25.854      -15.380       16.148       19.415       15.446      260.772      376.932      238.583        0.445        0.044       88.284       13.339        0.023      335.864        6.781      863.421
12/01/2014  19:54:00     -103.959       -4.634      -18.708       20.711       19.187       13.630      428.957      368.143      185.789        0.608        0.049      104.063       10.603        0.010      335.877        6.803      863.407
12/01/2014  19:55:00      -95.994       -1.065      -20.432       16.646       16.911       11.112      277.077      285.977      123.479        0.516        0.034       96.000        6.148        0.004      335.842        6.746      863.402
12/01/2014  19:56:00      -67.457      -10.237      -12.254       21.214       17.818       10.358      450.041      317.493      107.291        0.284        0.044       68.229       10.885        0.025      335.847        6.753      863.400
12/01/2014  19:57:00      -68.231      -21.072       -7.573       23.495       18.608       12.632      551.992      346.252      159.567        0.311        0.053       71.410       11.010        0.024      335.754        6.598      863.409
12/01/2014  19:58:00      -23.317      -18.035       -3.680       24.319       14.782       13.917      591.393      218.522      193.689        0.094        0.050       29.478        5.364        0.033      335.841        6.744      863.413
12/01/2014  19:59:00      -19.656      -20.077        0.950       25.866       14.421       12.072      669.064      207.970      145.737        0.091        0.051       28.097       12.409        0.195      335.838        6.736      863.413
12/01/2014  20:00:00      -60.684      -19.230      -10.452        9.203       17.059       10.158       84.699      290.996      103.194        0.232        0.024       63.658        8.252        0.017      335.892        6.829      863.410
12/01/2014  20:01:00      -59.255      -32.136      -14.447       13.061       18.001        9.205      170.584      324.051       84.731        0.267        0.029       67.408        8.855        0.017      335.891        6.827      863.415
12/01/2014  20:02:00      -51.875      -30.282       -7.685       16.409       13.843       15.839      269.267      191.635      250.884        0.219        0.036       60.067        8.323        0.019      335.849        6.757      863.430
12/01/2014  20:03:00      -51.526      -38.540       -5.662       21.984       13.474       10.945      483.292      181.550      119.792        0.248        0.039       64.345        7.749        0.015      335.806        6.684      863.434
12/01/2014  20:04:00      -90.602      -43.517       -5.578       23.719       15.707       14.717      562.581      246.722      216.584        0.558        0.051      100.511       13.714        0.019      335.800        6.677      863.431
12/01/2014  20:05:00     -135.921      -37.256      -17.670       10.649       11.302        8.755      113.401      127.738       76.658        1.025        0.016      140.934        6.511        0.002      335.758        6.604      863.435
12/01/2014  20:06:00     -119.091      -39.605      -16.399       18.413       12.398       10.824      339.032      153.720      117.149        0.831        0.030      125.503        7.692        0.004      335.790        6.658      863.446
12/01/2014  20:07:00      -91.881      -44.876       -9.545       20.498       24.044       17.102      420.160      578.122      292.463        0.592        0.065      102.254       11.626        0.013      335.830        6.726      863.450
12/01/2014  20:08:00      -77.162      -42.400       -5.287       24.322       13.764       11.469      591.569      189.441      131.538        0.435        0.046       88.044       13.430        0.023      335.810        6.691      863.449
12/01/2014  20:09:00      -98.282      -36.792       -8.718       18.108       14.990       11.800      327.908      224.714      139.245        0.589        0.035      104.943        9.323        0.008      335.777        6.638      863.464
12/01/2014  20:10:00      -77.974      -38.143      -16.477       21.572       13.082       11.583      465.369      171.148      134.165        0.429        0.039       86.803        6.160        0.005      336.026        7.052      863.468
12/01/2014  20:11:00      -75.955      -48.606       -9.209       13.440       15.696       14.555      180.639      246.353      211.848        0.443        0.032       90.176       12.477        0.019      335.977        6.970      863.468
12/01/2014  20:12:00      -88.821      -48.315      -13.649       22.616       13.555       11.963      511.479      183.737      143.115        0.562        0.042      101.112        6.370        0.004      336.051        7.092      863.459
12/01/2014  20:13:00     -103.540      -30.265      -15.870       14.131       18.026       11.204      199.674      324.932      125.541        0.627        0.033      107.873        8.259        0.006      336.031        7.060      863.439
12/01/2014  20:14:00     -112.380      -28.464      -12.867       12.528       14.669       12.659      156.948      215.178      160.249        0.707        0.027      115.929        6.852        0.003      336.032        7.060      863.422
12/01/2014  20:15:00      -89.221      -17.859       -8.461       26.639       26.313       15.507      709.643      692.394      240.459        0.500        0.082       90.990       15.561        0.029      336.052        7.095      863.414
12/01/2014  20:16:00     -100.009       -2.607      -13.478       31.415       18.488       18.151      986.907      341.800      329.474        0.592        0.083      100.043       14.004        0.020      336.120        7.208      863.421
12/01/2014  20:17:00     -101.841        2.266      -15.106       23.504       29.745       17.708      552.448      884.776      313.566        0.618        0.088      101.866        8.222        0.007      336.135        7.234      863.430
12/01/2014  20:18:00      -92.238      -12.682       -7.822       33.144       31.318       18.706     1098.553      980.838      349.899        0.558        0.121       93.106       16.336        0.031      335.926        6.885      863.445
12/01/2014  20:19:00      -72.229       -8.900       -3.443       37.722       25.579       21.389     1422.974      654.271      457.496        0.392        0.127       72.776       22.197        0.093      335.940        6.909      863.448
12/01/2014  20:20:00     -103.935      -16.543      -18.766       14.499       18.866       11.999      210.225      355.907      143.983        0.607        0.036      105.243        8.658        0.007      335.698        6.505      863.446
12/01/2014  20:21:00      -68.052       -5.588       -9.882       24.408       14.544       13.359      595.763      211.520      178.461        0.287        0.049       68.281       11.847        0.030      335.621        6.377      863.440
12/01/2014  20:22:00      -47.606      -11.134       -6.989       19.113       14.429       12.714      365.322      208.192      161.636        0.159        0.037       48.891        8.856        0.033      335.591        6.327      863.440
12/01/2014  20:23:00      -57.624      -22.899       -3.434       24.155       23.557       15.138      583.482      554.947      229.150        0.261        0.068       62.007       15.852        0.065      335.567        6.287      863.442
12/01/2014  20:24:00      -47.313      -29.033       -0.618       33.736       19.408       16.889     1138.149      376.689      285.242        0.244        0.090       55.510       20.752        0.140      335.464        6.115      863.450
12/01/2014  20:25:00      -91.400      -27.458      -15.944       17.018       18.479       12.523      289.606      341.471      156.813        0.507        0.039       95.435        6.615        0.005      335.502        6.178      863.445
12/01/2014  20:26:00     -106.323      -39.086      -18.636       24.905       16.276       11.812      620.261      264.913      139.523        0.710        0.051      113.280        1.482        0.000      335.473        6.129      863.430
12/01/2014  20:27:00     -116.102      -34.781      -17.483       10.768       12.667        9.706      115.958      160.456       94.210        0.768        0.019      121.200        6.056        0.002      335.455        6.100      863.420
12/01/2014  20:28:00      -88.983      -26.272       -9.620       24.906       19.503       14.341      620.332      380.380      205.665        0.495        0.060       92.780       14.270        0.024      335.493        6.163      863.431
12/01/2014  20:29:00     -120.420      -15.519      -19.978       13.307       11.491       10.223      177.089      132.047      104.503        0.778        0.021      121.416        6.799        0.003      335.429        6.056      863.437
12/01/2014  20:30:00     -126.676      -12.342      -22.625        9.884       10.474        9.317       97.689      109.700       86.806        0.850        0.015      127.276        5.016        0.002      335.432        6.061      863.434
12/01/2014  20:31:00     -114.261      -36.539      -18.088       14.155       14.823        7.965      200.374      219.711       63.442        0.760        0.024      119.961        6.821        0.003      335.446        6.083      863.424
12/01/2014  20:32:00     -104.079      -42.537       -7.245       19.146       12.265       15.614      366.578      150.441      243.793        0.673        0.038      112.436       14.238        0.016      335.429        6.055      863.423
12/01/2014  20:33:00      -80.432      -29.787       -3.988       25.874       13.104       11.024      669.453      171.712      121.533        0.417        0.048       85.771       12.396        0.021      335.485        6.149      863.420
12/01/2014  20:34:00      -65.760      -15.998       -3.792       20.328       17.403       10.206      413.217      302.865      104.170        0.271        0.041       67.678        6.067        0.008      335.563        6.280      863.418
12/01/2014  20:35:00      -88.705      -19.834       -1.546       31.108       17.838       10.973      967.707      318.185      120.403        0.484        0.070       90.895       13.547        0.022      335.519        6.206      863.404
12/01/2014  20:36:00      -99.228      -34.480       -1.703       19.532       14.530       12.794      381.486      211.124      163.696        0.590        0.038      105.048        9.706        0.009      335.476        6.135      863.383
12/01/2014  20:37:00     -104.959      -36.520       -5.075       22.197       17.879       12.825      492.711      319.669      164.473        0.668        0.049      111.131       12.194        0.012      335.432        6.061      863.364
12/01/2014  20:38:00      -94.158      -29.092       -3.780       25.200       17.534       15.777      635.025      307.436      248.927        0.546        0.060       98.549       15.670        0.025      335.418        6.038      863.364
12/01/2014  20:39:00      -72.763      -29.147        0.282       30.985       18.542       14.566      960.085      343.803      212.158        0.383        0.076       78.384       12.365        0.025      335.340        5.908      863.367
12/01/2014  20:40:00      -91.490      -42.796      -10.149       13.508       11.900        7.297      182.471      141.611       53.249        0.534        0.019      101.004        5.449        0.003      335.419        6.039      863.367
12/01/2014  20:41:00      -68.408      -26.847       -0.179       19.067       16.232       10.217      363.554      263.478      104.381        0.307        0.037       73.488        7.120        0.009      335.403        6.012      863.383
12/01/2014  20:42:00      -53.392      -15.818       -3.756       18.501       19.345        9.859      342.279      374.213       97.198        0.196        0.041       55.686        9.611        0.030      335.336        5.901      863.405
12/01/2014  20:43:00      -49.976      -16.150       -0.433       15.720       19.672        8.002      247.117      386.992       64.025        0.173        0.035       52.520        3.272        0.004      335.363        5.946      863.436
12/01/2014  20:44:00      -37.352      -19.851       -1.167       11.591       12.594        7.790      134.345      158.607       60.681        0.107        0.018       42.299        7.098        0.028      335.354        5.930      863.450
12/01/2014  20:45:00      -52.683      -27.006       -1.841       20.621       14.519       11.478      425.212      210.801      131.754        0.214        0.038       59.202       13.627        0.053      335.309        5.856      863.459
12/01/2014  20:46:00      -77.882      -38.190       -7.619       12.891       10.601        8.451      166.190      112.374       71.418        0.397        0.017       86.742        2.785        0.001      335.280        5.810      863.460
12/01/2014  20:47:00      -86.479      -39.552       -1.072       22.650       13.207       12.020      513.015      174.428      144.470        0.494        0.042       95.094       12.943        0.019      335.324        5.881      863.462
12/01/2014  20:48:00      -75.854      -31.451       -2.766       14.269        9.555        9.751      203.605       91.303       95.085        0.357        0.019       82.116        8.396        0.010      335.374        5.964      863.454
12/01/2014  20:49:00      -68.511      -36.232       -5.705       12.808       13.016        7.698      164.038      169.416       59.264        0.322        0.020       77.502        5.151        0.004      335.401        6.010      863.436
12/01/2014  20:50:00      -81.398      -35.882      -15.808       11.598        8.441        8.343      134.516       71.250       69.599        0.422        0.014       88.956        2.802        0.001      335.435        6.066      863.428
12/01/2014  20:51:00      -95.032      -29.851       -9.246       18.916       10.134        8.199      357.812      102.695       67.225        0.527        0.026       99.610        3.240        0.001      335.409        6.024      863.438
12/01/2014  20:52:00      -96.927      -35.185       -5.551       16.484       20.469       11.511      271.712      418.979      132.503        0.574        0.041      103.116        7.998        0.006      335.364        5.947      863.440
12/01/2014  20:53:00      -92.608      -20.270       -5.239       22.211       21.489       14.886      493.329      461.763      221.601        0.510        0.059       94.800       11.921        0.016      335.278        5.805      863.442
12/01/2014  20:54:00      -70.498      -16.796        2.199       24.403       19.709       12.174      595.516      388.462      148.211        0.319        0.057       72.471       12.412        0.029      335.166        5.619      863.450
12/01/2014  20:55:00      -86.515       -8.392       -6.624       30.008       17.537       15.527      900.466      307.532      241.097        0.452        0.072       86.921       17.027        0.038      335.220        5.707      863.458
12/01/2014  20:56:00     -101.948      -11.495       -6.525       25.374       16.452       13.265      643.815      270.666      175.949        0.583        0.055      102.594       12.221        0.014      335.276        5.800      863.468
12/01/2014  20:57:00     -110.173      -20.611       -7.679       26.066       17.033       15.589      679.429      290.132      243.008        0.692        0.061      112.084       15.732        0.020      335.196        5.667      863.455
12/01/2014  20:58:00     -128.910      -13.362      -12.334       14.548       12.453        9.440      211.655      155.071       89.105        0.870        0.023      129.601        7.151        0.003      335.124        5.550      863.449
12/01/2014  20:59:00      -98.178      -13.113       -8.549       27.381       14.959       15.850      749.721      223.779      251.221        0.555        0.061       99.050       14.362        0.021      335.135        5.568      863.453
12/01/2014  21:00:00     -114.845      -10.591      -12.274       18.898       13.540       11.235      357.133      183.327      126.225        0.706        0.033      115.332        6.939        0.004      335.157        5.603      863.465
12/01/2014  21:01:00      -88.860       -8.634      -10.098       21.817       15.872       12.376      475.991      251.920      153.157        0.448        0.044       89.279        8.904        0.010      335.133        5.565      863.475
12/01/2014  21:02:00      -90.103      -10.071       -6.705       27.505        9.660       13.623      756.546       93.317      185.581        0.465        0.052       90.664       15.297        0.028      335.081        5.479      863.479
12/01/2014  21:03:00     -102.003      -20.716      -12.444       16.662       13.784        9.020      277.613      190.003       81.358        0.577        0.027      104.085        7.537        0.005      334.995        5.336      863.481
12/01/2014  21:04:00      -77.633      -14.621       -0.560       23.178       13.524       11.835      537.197      182.888      140.072        0.355        0.043       78.998       13.263        0.028      335.007        5.355      863.498
12/01/2014  21:05:00      -57.850       -8.304       -4.715       22.365       15.170       14.148      500.171      230.132      200.158        0.218        0.047       58.443       12.925        0.049      334.977        5.307      863.506
12/01/2014  21:06:00      -79.460        1.045       -9.410       16.238       12.829       11.329      263.685      164.593      128.345        0.348        0.028       79.467        8.939        0.013      335.067        5.456      863.505
12/01/2014  21:07:00      -98.862        5.389      -17.550       13.786       10.187        8.103      190.065      103.775       65.653        0.524        0.018       99.009        6.266        0.004      335.067        5.455      863.482
12/01/2014  21:08:00     -101.337        7.813      -16.453        6.952        8.722        6.269       48.326       76.071       39.294        0.538        0.008      101.638        2.278        0.001      335.060        5.442      863.463
12/01/2014  21:09:00      -92.813       -1.752      -18.346       15.316       10.311       10.654      234.581      106.318      113.508        0.470        0.023       92.829        8.423        0.008      335.040        5.412      863.438
12/01/2014  21:10:00      -86.716       -3.462      -16.561       21.415       14.713       11.705      458.594      216.461      137.012        0.431        0.041       86.785       11.728        0.018      334.889        5.160      863.418
12/01/2014  21:11:00      -90.452       -0.415      -14.518       24.728       17.458       12.153      611.497      304.793      147.701        0.473        0.053       90.453        5.132        0.003      334.874        5.135      863.406
12/01/2014  21:12:00      -64.119       -3.855      -13.396       13.895       16.053       11.357      193.078      257.700      128.978        0.244        0.029       64.234       11.054        0.030      334.877        5.141      863.404
12/01/2014  21:13:00      -62.361        6.850      -12.480       10.813        9.689        9.644      116.915       93.879       93.003        0.220        0.015       62.736        6.017        0.009      334.946        5.255      863.411
12/01/2014  21:14:00      -36.255       -3.092       -8.714       11.831       13.018        7.092      139.973      169.460       50.300        0.088        0.018       36.387        4.183        0.013      335.062        5.446      863.410
12/01/2014  21:15:00        7.178      -15.585       -0.201       15.401       13.887       10.569      237.195      192.852      111.700        0.042        0.027       17.158        9.204        0.288      335.130        5.558      863.411
12/01/2014  21:16:00        5.417      -26.406       -3.166       14.710       12.981        9.421      216.371      168.509       88.748        0.061        0.024       26.956        4.550        0.028      335.271        5.795      863.429
12/01/2014  21:17:00      -59.775      -17.802       -8.559       19.141       12.953       11.786      366.366      167.771      138.921        0.232        0.034       62.370       11.724        0.035      335.035        5.402      863.436
12/01/2014  21:18:00      -51.652      -23.732      -15.923       12.829       12.335       12.096      164.583      152.142      146.317        0.197        0.023       56.843        7.920        0.019      334.849        5.093      863.434
12/01/2014  21:19:00      -55.435      -17.160       -6.970       13.022       13.976       12.773      169.583      195.321      163.147        0.197        0.026       58.030       10.862        0.035      334.864        5.119      863.434
12/01/2014  21:20:00      -55.012      -12.651       -3.033       13.301       16.418       13.758      176.924      269.561      189.281        0.192        0.032       56.448       13.477        0.057      334.865        5.120      863.432
12/01/2014  21:21:00      -51.440      -24.747       -8.767        8.677        8.963        8.714       75.291       80.329       75.935        0.178        0.012       57.083        6.019        0.011      334.911        5.196      863.442
12/01/2014  21:22:00      -62.820      -21.726      -15.393       12.595        8.755        9.209      158.646       76.654       84.804        0.249        0.016       66.470        7.860        0.014      334.849        5.094      863.454
12/01/2014  21:23:00      -65.357      -32.113      -13.096       17.776       18.165       12.781      315.970      329.952      163.363        0.314        0.040       72.820        8.038        0.012      334.739        4.910      863.461
12/01/2014  21:24:00      -74.031      -11.610      -15.763       13.148       15.641       12.293      172.866      244.645      151.109        0.322        0.028       74.936        7.493        0.010      334.787        4.992      863.475
12/01/2014  21:25:00      -88.411      -15.932      -17.964       22.353       20.891       16.848      499.654      436.443      283.859        0.481        0.061       89.836        6.767        0.006      334.731        4.897      863.483
12/01/2014  21:26:00      -88.308      -24.564       -9.347       18.524       22.136       14.918      343.126      490.020      222.556        0.477        0.053       91.661       12.649        0.019      334.707        4.858      863.501
12/01/2014  21:27:00      -95.355      -23.757      -17.606       14.187       12.103       12.483      201.275      146.477      155.819        0.524        0.025       98.270        6.321        0.004      334.718        4.877      863.509
12/01/2014  21:28:00      -93.250      -17.577      -18.978       18.045       16.199       11.337      325.609      262.393      128.529        0.504        0.036       94.892       10.693        0.013      334.710        4.863      863.509
12/01/2014  21:29:00      -51.317      -45.409      -15.140       24.931       28.767       17.675      621.556      827.542      312.396        0.334        0.088       68.523       19.072        0.077      334.802        5.015      863.499
12/01/2014  21:30:00      -79.791      -29.752      -20.118       20.925       22.409       12.448      437.866      502.143      154.962        0.438        0.055       85.158       11.927        0.020      334.727        4.892      863.495
12/01/2014  21:31:00      -91.880      -15.926      -22.685       14.308       13.064       10.640      204.720      170.680      113.209        0.485        0.024       93.250        8.706        0.009      334.732        4.898      863.478
12/01/2014  21:32:00      -92.753       -3.980      -13.261       25.698       23.468       15.163      660.411      550.741      229.927        0.512        0.072       92.839       14.238        0.024      334.639        4.744      863.457
12/01/2014  21:33:00      -92.995       -7.898      -14.255       23.544       22.251       18.560      554.315      495.107      344.465        0.515        0.070       93.330       15.080        0.026      334.581        4.647      863.452
12/01/2014  21:34:00      -95.261       -6.781      -14.273       22.101       15.573       14.401      488.449      242.529      207.383        0.513        0.047       95.502       12.811        0.018      334.550        4.597      863.444
12/01/2014  21:35:00     -106.238        3.815      -20.709       17.909       16.157       14.147      320.724      261.049      200.137        0.626        0.039      106.306        9.031        0.007      334.586        4.657      863.427
12/01/2014  21:36:00      -92.089       -8.934       -9.951       27.030       22.977       20.820      730.632      527.939      433.485        0.518        0.085       92.521       16.457        0.032      334.559        4.611      863.386
12/01/2014  21:37:00      -59.662      -12.007      -12.929       24.702       18.961       18.459      610.177      359.538      340.745        0.259        0.066       60.859       13.572        0.050      334.584        4.654      863.360
12/01/2014  21:38:00      -79.916       -8.261      -17.503       33.612       23.356       14.663     1129.749      545.511      215.017        0.433        0.095       80.342        8.244        0.011      334.695        4.837      863.337
12/01/2014  21:39:00      -99.171      -11.641       -8.211       35.053       34.835       16.758     1228.693     1213.510      280.847        0.638        0.136       99.852       16.042        0.026      334.669        4.793      863.312
12/01/2014  21:40:00     -100.680        3.002       -8.914       43.291       26.081       17.606     1874.085      680.235      309.971        0.654        0.143      100.725       20.070        0.040      334.709        4.862      863.296
12/01/2014  21:41:00      -76.566      -11.988       -8.925       26.886       23.555       13.149      722.876      554.842      172.905        0.377        0.073       77.499       11.493        0.022      334.724        4.884      863.286
12/01/2014  21:42:00      -79.922      -13.448      -11.379       24.974       17.845       15.663      623.689      318.430      245.327        0.394        0.059       81.046       12.659        0.024      334.687        4.823      863.275
12/01/2014  21:43:00      -67.609      -16.277       -9.646       24.301       16.365       16.788      590.560      267.808      281.849        0.303        0.057       69.541       16.245        0.055      334.779        4.977      863.280
12/01/2014  21:44:00      -64.838      -31.325      -12.666       19.010       19.013       12.251      361.374      361.484      150.086        0.311        0.044       72.009        6.912        0.009      334.732        4.901      863.294
12/01/2014  21:45:00      -54.598      -43.094      -14.606       13.517       13.481       12.665      182.704      181.740      160.396        0.279        0.026       69.556        7.550        0.012      334.770        4.963      863.320
12/01/2014  21:46:00      -61.206      -37.482      -13.812       22.044       16.428       12.020      485.951      269.865      144.479        0.312        0.045       71.771       11.869        0.027      334.794        5.001      863.324
12/01/2014  21:47:00      -80.291      -41.369      -19.622       15.797       18.922       12.535      249.545      358.040      157.119        0.465        0.038       90.322       10.195        0.013      334.758        4.944      863.318
12/01/2014  21:48:00     -101.532      -27.100      -20.206       18.904       15.415        9.970      357.351      237.611       99.396        0.607        0.035      105.086        5.106        0.002      334.673        4.801      863.322
12/01/2014  21:49:00      -81.908      -32.911       -7.941       22.408       18.406       12.936      502.130      338.795      167.341        0.443        0.050       88.272       10.316        0.014      334.671        4.798      863.327
12/01/2014  21:50:00      -98.376      -55.925      -15.955       18.060       21.820       14.759      326.170      476.126      217.834        0.704        0.051      113.161       12.877        0.013      334.635        4.737      863.324
12/01/2014  21:51:00      -94.343      -49.088      -16.687       17.858       16.774        9.936      318.913      281.366       98.730        0.614        0.035      106.350        5.457        0.003      334.594        4.669      863.321
12/01/2014  21:52:00     -107.799      -42.430      -16.806       19.015       13.228       10.743      361.573      174.975      115.402        0.718        0.033      115.848        5.796        0.003      334.600        4.678      863.323
12/01/2014  21:53:00      -96.744      -36.091       -5.342       21.793       18.102       12.396      474.929      327.692      153.653        0.582        0.048      103.257        9.426        0.008      334.676        4.805      863.318
12/01/2014  21:54:00     -106.049      -26.481      -13.539       17.496       14.654       13.274      306.102      214.751      176.200        0.641        0.035      109.305       10.399        0.009      334.744        4.918      863.311
12/01/2014  21:55:00      -86.216      -31.848       -8.779       11.090       15.566        9.077      122.991      242.301       82.398        0.449        0.022       91.910        6.427        0.005      334.813        5.033      863.311
12/01/2014  21:56:00      -66.278      -29.083       -8.721       15.147       14.680        8.537      229.434      215.516       72.885        0.292        0.026       72.378        3.895        0.003      334.830        5.063      863.318
12/01/2014  21:57:00      -87.874      -35.381      -15.597       12.624        9.899        7.693      159.370       98.000       59.183        0.477        0.016       94.730        5.703        0.004      334.822        5.049      863.314
12/01/2014  21:58:00     -101.853      -31.914      -13.616       11.837       10.801        8.178      140.109      116.662       66.881        0.595        0.016      106.736        5.162        0.002      334.860        5.112      863.300
12/01/2014  21:59:00      -93.089      -11.485      -12.544       12.333       14.702        7.934      152.104      216.151       62.952        0.469        0.022       93.795        4.392        0.002      334.840        5.079      863.281
12/01/2014  22:00:00     -102.459       -9.556      -15.968        9.892       11.174        8.790       97.843      124.849       77.272        0.557        0.015      102.904        3.700        0.001      334.849        5.094      863.269
12/01/2014  22:01:00     -117.515      -28.037      -16.363       16.461       14.430       11.913      270.979      208.224      141.918        0.774        0.031      120.813        8.519        0.005      334.795        5.003      863.265
12/01/2014  22:02:00      -99.630      -30.680       -6.155       32.301       30.391       19.218     1043.356      923.591      369.339        0.662        0.117      104.247       19.245        0.034      334.641        4.747      863.256
12/01/2014  22:03:00      -80.989      -23.853       -7.273       41.649       27.178       19.486     1734.658      738.643      379.706        0.502        0.143       84.429       21.065        0.062      334.600        4.679      863.245
12/01/2014  22:04:00      -77.668        2.861      -20.389       37.940       32.875       19.208     1439.432     1080.771      368.933        0.467        0.144       77.721       20.998        0.073      334.591        4.663      863.240
12/01/2014  22:05:00      -83.196       -5.890      -13.016       27.996       23.160       18.408      783.773      536.408      338.857        0.439        0.083       83.405       14.739        0.031      334.595        4.671      863.251
12/01/2014  22:06:00      -65.049        5.235       -7.883       50.148       19.977       19.803     2514.823      399.096      392.153        0.381        0.165       65.260       16.618        0.065      334.654        4.769      863.278
12/01/2014  22:07:00      -84.024      -14.581      -11.464       25.624       15.673       15.435      656.614      245.639      238.254        0.427        0.057       85.280       10.563        0.015      334.602        4.683      863.300
12/01/2014  22:08:00      -61.356       -6.027      -10.503       37.220       21.164       16.451     1385.346      447.900      270.622        0.301        0.105       61.651       16.465        0.071      334.597        4.674      863.314
12/01/2014  22:09:00      -74.563       -6.594      -10.744       26.717       17.240       14.795      713.795      297.206      218.889        0.347        0.061       74.854       12.606        0.028      334.603        4.683      863.316
12/01/2014  22:10:00      -88.092      -17.238      -12.321       14.246       13.390       11.326      202.946      179.280      128.288        0.436        0.026       89.762        6.957        0.006      334.559        4.611      863.297
12/01/2014  22:11:00      -74.447      -19.997       -7.945       12.669       16.871       10.492      160.515      284.626      110.083        0.328        0.028       77.086        7.505        0.009      334.604        4.685      863.285
12/01/2014  22:12:00      -68.518      -28.607       -9.861       17.213       10.859       11.753      296.276      117.919      138.139        0.308        0.028       74.250       10.065        0.018      334.579        4.642      863.292
12/01/2014  22:13:00      -89.747       -6.585      -10.415       11.853       19.593        9.884      140.494      383.893       97.698        0.441        0.031       89.989        9.338        0.011      334.686        4.822      863.309
12/01/2014  22:14:00      -74.019        4.121      -10.567       13.472       15.647       14.246      181.493      244.822      202.936        0.312        0.031       74.134       10.618        0.021      334.707        4.857      863.309
12/01/2014  22:15:00      -72.766       -4.816      -13.866       15.035       13.318        9.216      226.043      177.369       84.938        0.300        0.024       72.925        8.307        0.013      334.697        4.842      863.304
12/01/2014  22:16:00      -75.032       -1.607      -12.845        7.984        7.631        6.659       63.749       58.228       44.337        0.298        0.008       75.050        4.384        0.003      334.698        4.842      863.296
12/01/2014  22:17:00      -63.227       -3.339      -13.002        8.445        6.100        5.985       71.326       37.208       35.815        0.216        0.007       63.315        3.044        0.002      334.679        4.812      863.289
12/01/2014  22:18:00      -42.285        6.519      -15.401        9.786        5.625        6.547       95.760       31.636       42.861        0.112        0.009       42.784        3.489        0.007      334.707        4.857      863.289
12/01/2014  22:19:00      -40.429       -1.952      -12.884       16.581        6.741        8.203      274.932       45.443       67.297        0.110        0.019       40.476        8.678        0.046      334.788        4.993      863.287
12/01/2014  22:20:00      -39.600       -4.505       -2.232        9.866       13.372        6.176       97.346      178.812       38.143        0.095        0.016       39.856        3.332        0.007      334.885        5.154      863.292
12/01/2014  22:21:00      -13.846       11.598        0.176       14.090       17.196        6.208      198.538      295.705       38.538        0.043        0.027       18.061        7.099        0.154      335.204        5.679      863.293
12/01/2014  22:22:00       30.872        2.885        6.422       17.132        9.093        9.095      293.512       82.688       82.719        0.073        0.023       31.006        4.030        0.017      335.241        5.741      863.293
12/01/2014  22:23:00       34.604       11.652        7.193       17.920        9.366       10.688      321.112       87.724      114.239        0.095        0.026       36.513        7.307        0.040      335.156        5.600      863.299
12/01/2014  22:24:00       39.789       21.220       14.002       10.173        9.359        9.192      103.484       87.594       84.500        0.125        0.014       45.094        4.853        0.012      335.175        5.634      863.308
12/01/2014  22:25:00       40.543       12.276        8.537       11.421       10.417        9.023      130.430      108.524       81.411        0.109        0.016       42.361        5.347        0.016      335.160        5.608      863.312
12/01/2014  22:26:00       41.339       12.575       15.411       21.109       11.518       12.516      445.584      132.667      156.649        0.142        0.037       43.209        9.703        0.050      335.074        5.467      863.318
12/01/2014  22:27:00       46.946       17.480        1.768       28.827       16.465       17.653      830.975      271.104      311.633        0.196        0.071       50.094       15.327        0.094      335.192        5.663      863.320
12/01/2014  22:28:00       47.058       21.386        3.221       17.416       14.344       13.460      303.307      205.742      181.183        0.169        0.035       51.690        5.598        0.012      335.148        5.589      863.314
12/01/2014  22:29:00       46.347       19.047        7.806       19.369       12.668        8.401      375.143      160.485       70.577        0.159        0.030       50.108        4.438        0.008      335.156        5.600      863.314
12/01/2014  22:30:00       26.721       13.454        3.477       11.565        6.932        6.134      133.745       48.052       37.625        0.056        0.011       29.916        3.784        0.016      335.139        5.575      863.316
12/01/2014  22:31:00       -3.884        1.439        5.896       12.443       11.101        5.033      154.823      123.228       25.329        0.018        0.015        4.142        3.909        0.890      335.089        5.491      863.316
12/01/2014  22:32:00      -15.414      -18.897       -1.999       11.714       12.490        7.525      137.210      155.992       56.620        0.047        0.017       24.386        7.709        0.100      334.774        4.969      863.326
12/01/2014  22:33:00      -20.394      -14.622       -3.672        7.770       10.203        4.661       60.374      104.105       21.724        0.041        0.009       25.094        3.180        0.016      334.738        4.909      863.328
12/01/2014  22:34:00      -41.972       -8.561       -3.004       10.524        7.478        9.004      110.752       55.925       81.076        0.105        0.012       42.837        4.094        0.009      334.635        4.737      863.319
12/01/2014  22:35:00      -42.473       -1.395       -5.160       10.694        6.039        6.061      114.353       36.467       36.734        0.101        0.009       42.496        2.281        0.003      334.665        4.788      863.309
12/01/2014  22:36:00      -52.218        2.417       -3.928        8.915        7.034        6.919       79.485       49.477       47.875        0.146        0.009       52.274        3.624        0.005      334.480        4.481      863.292
12/01/2014  22:37:00      -52.950       -9.408       -8.124       15.357        5.960        8.163      235.848       35.516       66.637        0.165        0.017       53.779        8.982        0.028      334.406        4.359      863.272
12/01/2014  22:38:00      -27.992       -6.730        3.260        7.819        7.207        9.349       61.135       51.938       87.402        0.052        0.010       28.790        5.442        0.036      334.555        4.604      863.254
12/01/2014  22:39:00      -16.627       -1.462       -0.776        6.342        5.650        6.476       40.219       31.924       41.942        0.020        0.006       16.691        3.968        0.057      334.750        4.930      863.222
12/01/2014  22:40:00       -4.073       10.178        3.031       10.150        7.057        5.766      103.027       49.808       33.251        0.016        0.009       10.962        3.273        0.089      334.814        5.036      863.191
12/01/2014  22:41:00       -0.296       -0.812        2.754        5.004        5.711        5.357       25.036       32.621       28.693        0.005        0.004        0.864        2.446        8.019      334.600        4.680      863.187
12/01/2014  22:42:00       10.511       14.323        0.694        5.092        7.070        2.768       25.927       49.985        7.660        0.020        0.004       17.766        2.369        0.018      334.826        5.053      863.195
12/01/2014  22:43:00        3.003       14.344        2.335        3.147        4.056        3.203        9.902       16.450       10.256        0.013        0.002       14.655        2.639        0.032      334.964        5.281      863.215
12/01/2014  22:44:00       -6.448       10.729        6.971        9.780        6.694        4.966       95.644       44.809       24.656        0.019        0.008       12.518        4.889        0.153      334.802        5.015      863.230
12/01/2014  22:45:00       -4.788        7.686        2.992        5.594        6.299        2.871       31.292       39.671        8.243        0.009        0.004        9.056        2.702        0.089      334.799        5.011      863.239
12/01/2014  22:46:00       -8.348      -10.575       -0.401        7.390        8.954        6.484       54.618       80.174       42.036        0.018        0.009       13.473        4.730        0.123      334.659        4.776      863.238
12/01/2014  22:47:00      -40.365      -12.148      -10.255        9.566        8.272        7.316       91.512       68.434       53.519        0.105        0.011       42.154        2.177        0.003      334.453        4.438      863.241
12/01/2014  22:48:00      -40.301      -16.106       -6.470       12.936        9.587        7.237      167.339       91.905       52.378        0.112        0.016       43.400        3.124        0.005      334.489        4.496      863.249
12/01/2014  22:49:00      -28.219      -22.095       -5.556       10.862       11.874        5.742      117.987      140.981       32.973        0.080        0.015       35.840        4.638        0.017      334.532        4.568      863.271
12/01/2014  22:50:00       -5.747        9.196       -0.121       10.734       13.469        5.879      115.225      181.409       34.564        0.022        0.017       10.843        6.281        0.336      334.752        4.933      863.302
12/01/2014  22:51:00       -0.709        8.918        5.782       10.993       12.179        6.877      120.845      148.338       47.292        0.021        0.016        8.946        6.551        0.536      334.635        4.738      863.327
12/01/2014  22:52:00       19.506       17.467        0.467       15.086        8.794        8.327      227.580       77.341       69.334        0.053        0.019       26.184        8.347        0.102      334.919        5.209      863.345
12/01/2014  22:53:00       61.593       24.686        7.104       16.344       14.122       18.216      267.137      199.422      331.839        0.263        0.040       66.356        5.510        0.007      334.697        4.841      863.356
12/01/2014  22:54:00       36.432       20.458        1.279       13.420       13.886        8.716      180.083      192.824       75.974        0.110        0.022       41.783        2.614        0.004      334.633        4.734      863.349
12/01/2014  22:55:00       60.487       44.869       12.629       16.319       13.297       10.936      266.309      176.818      119.597        0.320        0.028       75.312        6.049        0.006      334.609        4.694      863.337
12/01/2014  22:56:00       80.192       59.189       14.335       32.092       20.848       20.184     1029.915      434.628      407.385        0.601        0.094       99.670       10.648        0.011      334.753        4.933      863.320
12/01/2014  22:57:00      101.868       64.073       17.803       25.378       27.498       22.434      644.048      756.158      503.280        0.835        0.095      120.343       17.900        0.022      334.939        5.244      863.308
12/01/2014  22:58:00       88.117       50.285       10.038       32.903       19.075       19.091     1082.613      363.867      364.451        0.610        0.091      101.456       11.322        0.012      334.808        5.025      863.297
12/01/2014  22:59:00       56.363       53.499        6.462       18.981       16.668       15.544      360.277      277.832      241.624        0.348        0.044       77.710       13.882        0.032      334.744        4.918      863.304
12/01/2014  23:00:00       45.172       46.297        0.239       26.125       26.613       20.658      682.514      708.276      426.770        0.300        0.091       64.683       17.290        0.071      334.752        4.932      863.301
12/01/2014  23:01:00       27.628       69.010      -10.010       21.998       32.669       20.922      483.928     1067.242      437.721        0.381        0.099       74.335       18.493        0.062      334.807        5.023      863.314
12/01/2014  23:02:00       54.103       72.337        8.976       49.294       32.591       21.762     2429.862     1062.171      473.597        0.610        0.198       90.332       21.433        0.056      334.818        5.043      863.316
12/01/2014  23:03:00       53.062       65.690        2.664       39.778       22.841       19.056     1582.306      521.703      363.142        0.480        0.123       84.444       14.000        0.027      334.894        5.168      863.321
12/01/2014  23:04:00       51.774       74.092       -1.850       34.705       42.073       30.665     1204.434     1770.147      940.338        0.604        0.196       90.389       27.709        0.094      334.920        5.210      863.327
12/01/2014  23:05:00       66.571       61.026        3.340       39.386       26.439       19.800     1551.271      699.040      392.058        0.540        0.132       90.310       17.830        0.039      334.959        5.275      863.341
12/01/2014  23:06:00       36.787       41.392        4.544       28.812       21.414       19.476      830.130      458.552      379.327        0.238        0.083       55.377       12.702        0.053      334.859        5.110      863.349
12/01/2014  23:07:00       38.163       61.183       -1.092       30.890       31.527       23.355      954.183      993.972      545.442        0.385        0.125       72.109       20.220        0.079      334.884        5.151      863.350
12/01/2014  23:08:00       40.498       43.516        0.734       35.309       20.037       23.132     1246.709      401.483      535.108        0.286        0.109       59.445       15.986        0.072      334.950        5.260      863.349
12/01/2014  23:09:00       25.475       51.386        4.097       19.462       24.834       20.257      378.759      616.713      410.359        0.236        0.070       57.354       16.870        0.087      334.937        5.243      863.355
12/01/2014  23:10:00       33.674       51.367       -1.463       35.074       22.485       19.414     1230.205      505.587      376.916        0.294        0.106       61.421       17.371        0.080      334.989        5.326      863.361
12/01/2014  23:11:00       22.321       77.016       -7.706       16.040       23.527       13.913      257.291      553.534      193.573        0.375        0.050       80.186       11.485        0.021      335.084        5.483      863.377
12/01/2014  23:12:00       40.324       43.973        2.144       32.358       20.567       19.925     1047.055      423.003      396.997        0.272        0.093       59.663       12.562        0.044      334.963        5.283      863.389
12/01/2014  23:13:00       74.979       43.896       11.121       25.420       14.628       15.033      646.175      213.966      225.981        0.438        0.054       86.884        7.589        0.008      335.034        5.402      863.392
12/01/2014  23:14:00       48.112       33.632        9.115       15.703       11.203       15.290      246.571      125.510      233.770        0.207        0.030       58.701        9.950        0.029      334.989        5.326      863.388
12/01/2014  23:15:00       36.439       30.047        4.804       17.219       17.065       12.594      296.488      291.214      158.621        0.150        0.037       47.229       10.430        0.049      334.997        5.340      863.377
12/01/2014  23:16:00       40.653       30.878        9.171       15.089        9.437       11.618      227.675       89.052      134.988        0.157        0.023       51.050        9.106        0.032      335.028        5.392      863.377
12/01/2014  23:17:00       31.171       28.696        0.064       16.062       14.220       10.880      257.974      202.209      118.368        0.119        0.029       42.369        8.883        0.044      334.979        5.310      863.385
12/01/2014  23:18:00        9.315       24.127       -5.698       13.879        7.841        5.250      192.639       61.489       27.566        0.049        0.014       25.863        5.028        0.038      334.974        5.301      863.387
12/01/2014  23:19:00       -4.480       18.433       -1.172       10.470       12.325        7.176      109.622      151.894       51.490        0.034        0.016       18.969        5.227        0.076      334.955        5.269      863.386
12/01/2014  23:20:00       -5.910       23.660        6.228       12.388       11.914       10.006      153.455      141.947      100.123        0.051        0.020       24.387        9.954        0.167      334.951        5.264      863.380
12/01/2014  23:21:00      -14.449       14.147        4.685       15.452       13.500        9.500      238.770      182.258       90.258        0.047        0.026       20.222        6.185        0.094      334.876        5.138      863.360
12/01/2014  23:22:00      -26.523        5.002       -2.904       10.186        9.037        7.963      103.753       81.665       63.417        0.049        0.012       26.990        5.177        0.037      334.538        4.576      863.337
12/01/2014  23:23:00      -14.383       -4.252       -0.299        6.462        8.286        8.664       41.762       68.651       75.062        0.021        0.009       14.998        3.305        0.049      334.747        4.924      863.310
12/01/2014  23:24:00      -32.478       -0.384       -7.080       12.503        5.772        7.391      156.320       33.316       54.632        0.067        0.012       32.480        4.624        0.020      334.511        4.531      863.293
12/01/2014  23:25:00      -78.476        1.395      -12.025       18.923       11.648       12.706      358.071      135.687      161.444        0.348        0.033       78.488        7.565        0.009      334.335        4.239      863.298
12/01/2014  23:26:00      -82.862       -5.859      -16.579       21.466       22.584       13.874      460.805      510.059      192.482        0.417        0.058       83.068       13.136        0.025      334.208        4.028      863.299
12/01/2014  23:27:00     -119.318        7.543      -17.957       20.791       25.335       16.331      432.250      641.877      266.688        0.798        0.067      119.556       14.000        0.014      334.164        3.957      863.304
12/01/2014  23:28:00      -73.535        3.002       -1.376       29.851       22.180       17.486      891.069      491.963      305.756        0.355        0.084       73.597       17.941        0.059      334.020        3.718      863.293
12/01/2014  23:29:00      -74.653       10.445      -17.531       15.766       14.543        8.959      248.555      211.499       80.260        0.326        0.027       75.381        5.563        0.005      334.087        3.830      863.280
12/01/2014  23:30:00      -68.256      -16.318      -15.511        9.602        9.429        7.842       92.196       88.901       61.496        0.270        0.012       70.179        3.402        0.002      334.098        3.848      863.263
12/01/2014  23:31:00      -63.994       -5.957      -11.283        6.656       10.069        6.354       44.301      101.378       40.368        0.222        0.009       64.271        0.773        0.000      334.186        3.992      863.241
12/01/2014  23:32:00      -46.242       -4.721      -11.075        7.801        7.330        6.732       60.858       53.723       45.322        0.122        0.008       46.482        3.758        0.007      334.163        3.953      863.223
12/01/2014  23:33:00      -42.625      -21.272      -10.565        7.533        9.234        5.987       56.743       85.261       35.843        0.128        0.009       47.638        2.675        0.003      334.244        4.089      863.202
12/01/2014  23:34:00      -70.298       -8.918      -12.933        9.739        9.008        7.986       94.853       81.143       63.773        0.271        0.012       70.861        5.064        0.005      334.169        3.964      863.183
12/01/2014  23:35:00      -78.993      -11.182      -15.663       20.607        9.467        8.602      424.634       89.625       73.999        0.360        0.029       79.781        5.611        0.005      334.059        3.781      863.170
12/01/2014  23:36:00      -83.124      -18.622      -14.045       17.985       13.252       13.002      323.470      175.611      169.039        0.406        0.033       85.184        7.008        0.007      334.033        3.740      863.165
12/01/2014  23:37:00      -90.483      -23.644       -8.866       16.619       20.478       11.362      276.188      419.369      129.103        0.482        0.041       93.522       10.669        0.013      333.968        3.633      863.170
12/01/2014  23:38:00      -73.620      -16.183       -9.011       21.590       16.506       10.832      466.143      272.445      117.325        0.331        0.043       75.378        9.161        0.015      333.947        3.598      863.178
12/01/2014  23:39:00      -98.756      -12.109      -11.177       22.973       14.707       13.406      527.777      216.296      179.709        0.547        0.046       99.495       12.765        0.016      333.923        3.557      863.185
12/01/2014  23:40:00      -98.670       -8.083      -16.103       13.819       10.163        7.899      190.970      103.278       62.395        0.521        0.018       99.001        5.191        0.003      333.986        3.661      863.187
12/01/2014  23:41:00      -89.222      -12.034      -13.602       11.058       10.288       10.639      122.274      105.834      113.193        0.432        0.017       90.030        5.789        0.004      333.941        3.588      863.183
12/01/2014  23:42:00     -111.367      -25.806      -11.278       19.082       14.798       12.634      364.123      218.982      159.607        0.697        0.037      114.318        8.459        0.005      333.967        3.630      863.172
12/01/2014  23:43:00     -109.737      -25.074       -6.837       24.112       14.703       15.962      581.412      216.167      254.780        0.688        0.053      112.565       13.522        0.014      334.033        3.740      863.156
12/01/2014  23:44:00      -90.651      -23.029       -5.357       14.920       15.273       11.322      222.612      233.264      128.181        0.468        0.029       93.530        4.768        0.003      334.055        3.775      863.140
12/01/2014  23:45:00      -87.072      -27.724       -3.918        8.877       10.245        8.140       78.800      104.966       66.256        0.431        0.013       91.379        4.475        0.002      334.108        3.863      863.121
12/01/2014  23:46:00      -78.071      -14.160       -4.674       14.935       10.451        8.209      223.043      109.231       67.385        0.336        0.020       79.344        6.278        0.006      334.123        3.888      863.098
12/01/2014  23:47:00      -96.561      -20.006       -8.384       26.762       13.529       11.336      716.198      183.023      128.499        0.541        0.051       98.611       13.955        0.020      334.128        3.896      863.082
12/01/2014  23:48:00      -89.262      -22.838       -3.457       27.006       16.337       14.531      729.299      266.904      211.137        0.485        0.060       92.137       12.915        0.020      334.134        3.907      863.062
12/01/2014  23:49:00      -71.172      -22.270        3.142       29.926       17.080       15.309      895.580      291.725      234.380        0.350        0.071       74.574       17.000        0.052      334.063        3.789      863.060
12/01/2014  23:50:00      -70.819      -18.589        1.023       28.075       16.755       11.762      788.219      280.714      138.337        0.328        0.060       73.218       11.330        0.024      334.043        3.755      863.054
12/01/2014  23:51:00      -79.644      -24.866        0.073       27.581       25.415       16.560      760.689      645.939      274.241        0.432        0.084       83.436       14.571        0.031      333.999        3.683      863.041
12/01/2014  23:52:00     -112.977      -20.643      -11.234       24.048       13.424       11.656      578.285      180.209      135.874        0.711        0.045      114.847       12.484        0.012      333.955        3.610      863.027
12/01/2014  23:53:00     -127.256      -30.968      -14.556       18.298       13.425       14.395      334.822      180.230      207.217        0.904        0.036      130.970       10.833        0.007      333.954        3.609      863.018
12/01/2014  23:54:00     -140.254      -35.015      -19.480       14.346       12.457       12.296      205.821      155.169      151.199        1.089        0.026      144.559        8.639        0.004      333.943        3.591      863.016
12/01/2014  23:55:00     -104.302      -37.337       -4.981       25.867       18.652       13.084      669.089      347.898      171.200        0.674        0.059      110.783       13.023        0.014      333.941        3.587      863.018
12/01/2014  23:56:00     -104.923      -46.743       -3.578       27.705       18.211       13.795      767.549      331.628      190.290        0.725        0.064      114.864       17.372        0.023      333.914        3.541      863.024
12/01/2014  23:57:00      -75.316      -39.232        0.897       43.758       19.736       20.221     1914.743      389.497      408.877        0.496        0.136       84.922       23.526        0.077      333.888        3.498      863.028
12/01/2014  23:58:00     -103.190      -52.895       -1.367       26.150       21.757       14.790      683.837      473.381      218.742        0.741        0.069      115.957       14.180        0.015      333.923        3.555      863.035
12/01/2014  23:59:00      -66.682      -35.366        0.604       34.944       26.974       19.467     1221.104      727.572      378.966        0.401        0.116       75.481       18.321        0.059      333.945        3.594      863.028
